[[{"header":{"parameterUnit":"m.s-1","parameterCategory":1,"la1":30.6,"la2":28.766,"lo1":-90.7593,"lo2":-88.6598,"dy":0.0162,"dx":0.0183,"nx":116,"ny":114,"refTime":"2023-11-09T06:00:00:Z","depth":0,"parameterNumber":2,"parameterNumberName":"U-component_of_WINDS"},"data":[0.0,0.0,0.0,0.0,0.0,0.0,0.0,0.0,0.0,0.0,0.0,0.0,0.0,0.0,0.0,0.0,0.0,0.0,0.0,0.0,0.0,0.0,0.0,0.0,0.0,0.0,0.0,0.0,0.0,0.0,0.0,0.0,0.0,0.0,0.0,0.0,0.0,0.0,0.0,0.0,0.0,0.0,0.0,0.0,0.0,0.0,0.0,0.0,0.0,0.0,0.0,0.0,0.0,0.0,0.0,0.0,0.0,0.0,0.0,0.0,0.0,0.0,0.0,0.0,0.0,0.0,0.0,0.0,0.0,0.0,0.0,0.0,0.0,0.0,0.0,0.0,0.0,0.0,0.0,0.0,0.0,0.0,0.0,0.0,0.0,0.0,0.0,0.0,0.0,0.0,0.0,0.0,0.0,0.0,0.0,0.0,0.0,0.0,0.0,0.0,0.0,0.0,0.0,0.0,0.0,0.0,0.0,0.0,0.0,0.0,0.0,0.0,0.0,0.0,0.0,0.0,0.0,0.0,0.0,0.0,0.0,0.0,0.0,0.0,0.0,0.0,0.0,0.0,0.0,0.0,0.0,0.0,0.0,0.0,0.0,0.0,0.0,0.0,0.0,0.0,0.0,0.0,0.0,0.0,0.0,0.0,0.0,0.0,0.0,0.0,0.0,0.0,0.0,0.0,0.0,0.0,0.0,0.0,0.0,0.0,0.0,0.0,0.0,0.0,0.0,0.0,0.0,0.0,0.0,0.0,0.0,0.0,0.0,0.0,0.0,0.0,0.0,0.0,0.0,0.0,0.0,0.0,0.0,0.0,0.0,0.0,0.0,0.0,0.0,0.0,0.0,0.0,0.0,0.0,0.0,0.0,0.0,0.0,0.0,0.0,0.0,0.0,0.0,0.0,0.0,0.0,0.0,0.0,0.0,0.0,0.0,0.0,0.0,0.0,0.0,0.0,0.0,0.0,0.0,0.0,0.0,0.0,0.0,0.0,0.0,0.0,0.0,0.0,0.0,0.0,0.0,0.0,0.0,0.0,0.0,0.0,0.0,0.0,0.0,0.0,0.0,0.0,0.0,0.0,0.0,0.0,0.0,0.0,0.0,0.0,0.0,0.0,0.0,0.0,0.0,0.0,0.0,0.0,0.0,0.0,0.0,0.0,0.0,0.0,0.0,0.0,0.0,0.0,0.0,0.0,0.0,0.0,0.0,0.0,0.0,0.0,0.0,0.0,0.0,0.0,0.0,0.0,0.0,0.0,0.0,0.0,0.0,0.0,0.0,0.0,0.0,0.0,0.0,0.0,0.0,0.0,0.0,0.0,0.0,0.0,0.0,0.0,0.0,0.0,0.0,0.0,0.0,0.0,0.0,0.0,0.0,0.0,0.0,0.0,0.0,0.0,0.0,0.0,0.0,0.0,0.0,0.0,0.0,0.0,0.0,0.0,0.0,0.0,0.0,0.0,0.0,0.0,0.0,0.0,0.0,0.0,0.0,0.0,0.0,0.0,0.0,0.0,0.0,0.0,0.0,0.0,0.0,0.0,0.0,0.0,0.0,0.0,0.0,0.0,0.0,0.0,0.0,0.0,0.0,0.0,0.0,0.0,0.0,0.0,0.0,0.0,0.0,0.0,0.0,0.0,0.0,0.0,0.0,0.0,0.0,0.0,0.0,0.0,0.0,0.0,0.0,0.0,0.0,0.0,0.0,0.0,0.0,0.0,0.0,0.0,0.0,0.0,0.0,0.0,0.0,0.0,0.0,0.0,0.0,0.0,0.0,0.0,0.0,0.0,0.0,0.0,0.0,0.0,0.0,0.0,0.0,0.0,0.0,0.0,0.0,0.0,0.0,0.0,0.0,0.0,0.0,0.0,0.0,0.0,0.0,0.0,0.0,0.0,0.0,0.0,0.0,0.0,0.0,0.0,0.0,0.0,0.0,0.0,0.0,0.0,0.0,0.0,0.0,0.0,0.0,0.0,0.0,0.0,0.0,0.0,0.0,0.0,0.0,0.0,0.0,0.0,0.0,0.0,0.0,0.0,0.0,0.0,0.0,0.0,0.0,0.0,0.0,0.0,0.0,0.0,0.0,0.0,0.0,0.0,0.0,0.0,0.0,0.0,0.0,0.0,0.0,0.0,0.0,0.0,0.0,0.0,0.0,0.0,0.0,0.0,0.0,0.0,0.0,0.0,0.0,0.0,0.0,0.0,0.0,0.0,0.0,0.0,0.0,0.0,0.0,0.0,0.0,0.0,0.0,0.0,0.0,0.0,0.0,0.0,0.0,0.0,0.0,0.0,0.0,0.0,0.0,0.0,0.0,0.0,0.0,0.0,0.0,0.0,0.0,0.0,0.0,0.0,0.0,0.0,0.0,0.0,0.0,0.0,0.0,0.0,0.0,0.0,0.0,0.0,0.0,0.0,0.0,0.0,0.0,0.0,0.0,0.0,0.0,0.0,0.0,0.0,0.0,0.0,0.0,0.0,0.0,0.0,0.0,0.0,0.0,0.0,0.0,0.0,0.0,0.0,0.0,0.0,0.0,0.0,0.0,0.0,0.0,0.0,0.0,0.0,0.0,0.0,0.0,0.0,0.0,0.0,0.0,0.0,0.0,0.0,0.0,0.0,0.0,0.0,0.0,0.0,0.0,0.0,0.0,0.0,0.0,0.0,0.0,0.0,0.0,0.0,0.0,0.0,0.0,0.0,0.0,0.0,0.0,0.0,0.0,0.0,0.0,0.0,0.0,0.0,0.0,0.0,0.0,0.0,0.0,0.0,0.0,0.0,0.0,0.0,0.0,0.0,0.0,0.0,0.0,0.0,0.0,0.0,0.0,0.0,0.0,0.0,0.0,0.0,0.0,0.0,0.0,0.0,0.0,0.0,0.0,0.0,0.0,0.0,0.0,0.0,0.0,0.0,0.0,0.0,0.0,0.0,0.0,0.0,0.0,0.0,0.0,0.0,0.0,0.0,0.0,0.0,0.0,0.0,0.0,0.0,0.0,0.0,0.0,0.0,0.0,0.0,0.0,0.0,0.0,0.0,0.0,0.0,0.0,0.0,0.0,0.0,0.0,0.0,0.0,0.0,0.0,0.0,0.0,0.0,0.0,0.0,0.0,0.0,0.0,0.0,0.0,0.0,0.0,0.0,0.0,0.0,0.0,0.0,0.0,0.0,0.0,0.0,0.0,0.0,0.0,0.0,0.0,0.0,0.0,0.0,0.0,0.0,0.0,0.0,0.0,0.0,0.0,0.0,0.0,0.0,0.0,0.0,0.0,0.0,0.0,0.0,0.0,0.0,0.0,0.0,0.0,0.0,0.0,0.0,0.0,0.0,0.0,0.0,0.0,0.0,0.0,0.0,0.0,0.0,0.0,0.0,0.0,0.0,0.0,0.0,0.0,0.0,0.0,0.0,0.0,0.0,0.0,0.0,0.0,0.0,0.0,0.0,0.0,0.0,0.0,0.0,0.0,0.0,0.0,0.0,0.0,0.0,0.0,0.0,0.0,0.0,0.0,0.0,0.0,0.0,0.0,0.0,0.0,0.0,0.0,0.0,0.0,0.0,0.0,0.0,0.0,0.0,0.0,0.0,0.0,0.0,0.0,0.0,0.0,0.0,0.0,0.0,0.0,0.0,0.0,0.0,0.0,0.0,0.0,0.0,0.0,0.0,0.0,0.0,0.0,0.0,0.0,0.0,0.0,0.0,0.0,0.0,0.0,0.0,0.0,0.0,0.0,0.0,0.0,0.0,0.0,0.0,0.0,0.0,0.0,0.0,0.0,0.0,0.0,0.0,0.0,0.0,0.0,0.0,0.0,0.0,0.0,0.0,0.0,0.0,0.0,0.0,0.0,0.0,0.0,0.0,0.0,0.0,0.0,0.0,0.0,0.0,0.0,0.0,0.0,0.0,0.0,0.0,0.0,0.0,0.0,0.0,0.0,0.0,0.0,0.0,0.0,0.0,0.0,0.0,0.0,0.0,0.0,0.0,0.0,0.0,0.0,0.0,0.0,0.0,0.0,0.0,0.0,0.0,0.0,0.0,0.0,0.0,0.0,0.0,0.0,0.0,0.0,0.0,0.0,0.0,0.0,0.0,0.0,0.0,0.0,0.0,0.0,0.0,0.0,0.0,0.0,0.0,0.0,0.0,0.0,0.0,0.0,0.0,0.0,0.0,0.0,0.0,0.0,0.0,0.0,0.0,0.0,0.0,0.0,0.0,0.0,0.0,0.0,0.0,0.0,0.0,0.0,0.0,0.0,0.0,0.0,0.0,0.0,0.0,0.0,0.0,0.0,0.0,0.0,0.0,0.0,0.0,0.0,0.0,0.0,0.0,0.0,0.0,0.0,0.0,0.0,0.0,0.0,0.0,0.0,0.0,0.0,0.0,0.0,0.0,0.0,0.0,0.0,0.0,0.0,0.0,0.0,0.0,0.0,0.0,0.0,0.0,0.0,0.0,0.0,0.0,0.0,0.0,0.0,0.0,0.0,0.0,0.0,0.0,0.0,0.0,0.0,0.0,0.0,0.0,0.0,0.0,0.0,0.0,0.0,0.0,0.0,0.0,0.0,0.0,0.0,0.0,0.0,0.0,0.0,0.0,0.0,0.0,0.0,0.0,0.0,0.0,0.0,0.0,0.0,0.0,0.0,0.0,0.0,0.0,0.0,0.0,0.0,0.0,0.0,0.0,0.0,0.0,0.0,0.0,0.0,0.0,0.0,0.0,0.0,0.0,0.0,0.0,0.0,0.0,0.0,0.0,0.0,0.0,0.0,0.0,0.0,0.0,0.0,0.0,0.0,0.0,0.0,0.0,0.0,0.0,0.0,0.0,0.0,0.0,0.0,0.0,0.0,0.0,0.0,0.0,0.0,0.0,0.0,0.0,0.0,0.0,0.0,0.0,0.0,0.0,0.0,0.0,0.0,0.0,0.0,0.0,0.0,0.0,0.0,0.0,0.0,0.0,0.0,0.0,0.0,0.0,0.0,0.0,0.0,0.0,0.0,0.0,0.0,0.0,0.0,0.0,0.0,0.0,0.0,0.0,0.0,0.0,0.0,0.0,0.0,0.0,0.0,0.0,0.0,0.0,0.0,0.0,0.0,0.0,0.0,0.0,0.0,0.0,0.0,0.0,0.0,0.0,0.0,0.0,0.0,0.0,0.0,0.0,0.0,0.0,0.0,0.0,0.0,0.0,0.0,0.0,0.0,0.0,0.0,0.0,0.0,0.0,0.0,0.0,0.0,0.0,0.0,0.0,0.0,0.0,0.0,0.0,0.0,0.0,0.0,0.0,0.0,0.0,0.0,0.0,0.0,0.0,0.0,0.0,0.0,0.0,0.0,0.0,0.0,0.0,0.0,0.0,0.0,0.0,0.0,0.0,0.0,0.0,0.0,0.0,0.0,0.0,0.0,0.0,0.0,0.0,0.0,0.0,0.0,0.0,0.0,0.0,0.0,0.0,0.0,0.0,0.0,0.0,0.0,0.0,0.0,0.0,0.0,0.0,0.0,0.0,0.0,0.0,0.0,0.0,0.0,0.0,0.0,0.0,0.0,0.0,0.0,0.0,0.0,0.0,0.0,0.0,0.0,0.0,0.0,0.0,0.0,0.0,0.0,0.0,0.0,0.0,0.0,0.0,0.0,0.0,0.0,0.0,0.0,0.0,0.0,0.0,0.0,0.0,0.0,0.0,0.0,0.0,0.0,0.0,0.0,0.0,0.0,0.0,0.0,0.0,0.0,0.0,0.0,0.0,0.0,0.0,0.0,0.0,0.0,0.0,0.0,0.0,0.0,0.0,0.0,0.0,0.0,0.0,0.0,0.0,0.0,0.0,0.0,0.0,0.0,0.0,0.0,0.0,0.0,0.0,0.0,0.0,0.0,0.0,0.0,0.0,0.0,0.0,0.0,0.0,0.0,0.0,0.0,0.0,0.0,0.0,0.0,0.0,0.0,0.0,0.0,0.0,0.0,0.0,0.0,0.0,0.0,0.0,0.0,0.0,0.0,0.0,0.0,0.0,0.0,0.0,0.0,0.0,0.0,0.0,0.0,0.0,0.0,0.0,0.0,0.0,0.0,0.0,0.0,0.0,0.0,0.0,0.0,0.0,0.0,0.0,3.316,0.0,0.0,0.0,0.0,0.0,0.0,0.0,0.0,0.0,0.0,0.0,0.0,0.0,0.0,0.0,0.0,0.0,0.0,0.0,0.0,0.0,0.0,0.0,0.0,0.0,0.0,0.0,0.0,0.0,0.0,0.0,0.0,0.0,0.0,0.0,0.0,0.0,0.0,0.0,3.3007,3.4123,3.5577,3.6623,3.6294,3.479,0.0,0.0,0.0,0.0,0.0,0.0,0.0,0.0,0.0,0.0,0.0,0.0,0.0,0.0,0.0,0.0,0.0,0.0,0.0,0.0,0.0,0.0,0.0,0.0,0.0,0.0,0.0,0.0,0.0,0.0,0.0,0.0,0.0,0.0,0.0,0.0,0.0,0.0,0.0,0.0,0.0,0.0,0.0,0.0,0.0,0.0,0.0,0.0,0.0,0.0,0.0,0.0,0.0,0.0,0.0,0.0,0.0,0.0,0.0,0.0,0.0,0.0,0.0,0.0,0.0,0.0,0.0,0.0,0.0,0.0,0.0,3.4668,0.0,0.0,0.0,0.0,0.0,0.0,0.0,0.0,0.0,0.0,0.0,0.0,0.0,0.0,0.0,0.0,0.0,0.0,0.0,0.0,0.0,0.0,0.0,0.0,0.0,0.0,0.0,0.0,0.0,0.0,0.0,0.0,0.0,0.0,0.0,0.0,0.0,0.0,3.3966,3.5914,3.8936,3.9455,3.8803,3.7093,3.6321,0.0,0.0,0.0,0.0,0.0,0.0,0.0,0.0,0.0,0.0,0.0,0.0,0.0,0.0,0.0,0.0,0.0,0.0,0.0,0.0,0.0,0.0,0.0,0.0,0.0,0.0,0.0,0.0,0.0,0.0,0.0,0.0,0.0,0.0,0.0,0.0,0.0,0.0,0.0,0.0,0.0,0.0,0.0,0.0,0.0,0.0,0.0,0.0,0.0,0.0,0.0,0.0,0.0,0.0,0.0,0.0,0.0,0.0,0.0,0.0,0.0,0.0,0.0,4.1193,4.246,4.2812,4.2977,4.325,4.3412,4.0109,3.8348,3.7709,0.0,0.0,0.0,0.0,0.0,0.0,0.0,0.0,0.0,0.0,0.0,0.0,0.0,0.0,0.0,0.0,0.0,0.0,0.0,0.0,0.0,0.0,0.0,0.0,0.0,0.0,0.0,0.0,0.0,0.0,0.0,0.0,0.0,0.0,3.2339,3.2778,3.2462,3.6171,3.9737,4.3027,4.3227,4.3723,4.4218,3.9921,3.8975,4.039,0.0,0.0,0.0,0.0,0.0,0.0,0.0,0.0,0.0,0.0,0.0,0.0,0.0,0.0,0.0,0.0,0.0,0.0,0.0,0.0,0.0,0.0,0.0,0.0,0.0,0.0,0.0,0.0,0.0,0.0,0.0,0.0,0.0,0.0,0.0,0.0,0.0,0.0,0.0,0.0,0.0,3.1142,3.1639,0.0,0.0,0.0,0.0,0.0,0.0,0.0,0.0,0.0,0.0,0.0,0.0,0.0,3.8387,4.0256,4.2239,4.2698,4.1691,4.4387,4.5112,4.4087,4.5184,4.6083,4.6661,4.5538,0.0,4.0,3.7945,0.0,0.0,0.0,0.0,0.0,0.0,0.0,0.0,0.0,0.0,0.0,0.0,0.0,0.0,0.0,0.0,0.0,0.0,0.0,0.0,0.0,0.0,0.0,0.0,0.0,0.0,0.0,0.0,0.0,0.0,0.0,0.0,3.2442,3.2925,3.4465,3.7019,4.1828,4.5128,4.7009,4.7842,4.8711,4.951,4.6404,4.3687,4.1262,3.9288,0.0,0.0,0.0,0.0,0.0,0.0,0.0,0.0,0.0,0.0,0.0,0.0,0.0,0.0,0.0,0.0,0.0,0.0,0.0,0.0,0.0,0.0,0.0,0.0,0.0,0.0,0.0,0.0,0.0,0.0,0.0,0.0,0.0,0.0,0.0,0.0,0.0,0.0,0.0,3.2744,3.3514,3.302,3.3607,3.3692,0.0,0.0,0.0,0.0,0.0,0.0,0.0,0.0,0.0,4.086,4.1279,4.2291,4.3938,4.5758,4.6526,4.6321,4.874,4.9399,4.8544,4.9378,4.9978,5.0335,4.9512,4.7817,4.5341,4.1247,3.8846,3.7599,0.0,0.0,0.0,0.0,3.4711,3.4928,0.0,0.0,0.0,0.0,0.0,0.0,0.0,0.0,0.0,0.0,0.0,0.0,0.0,0.0,0.0,3.8082,0.0,0.0,0.0,0.0,0.0,0.0,0.0,3.2012,3.3085,3.4094,3.726,4.2598,4.6838,4.9742,5.1359,5.2354,5.3316,5.4147,5.2577,4.9011,4.4092,4.2071,3.9951,3.7851,0.0,0.0,0.0,0.0,0.0,0.0,0.0,0.0,0.0,0.0,0.0,0.0,0.0,0.0,0.0,0.0,0.0,0.0,0.0,0.0,0.0,0.0,0.0,0.0,0.0,0.0,0.0,0.0,0.0,0.0,0.0,0.0,0.0,0.0,0.0,0.0,0.0,3.4494,3.5226,3.3851,3.5147,3.5354,0.0,0.0,0.0,0.0,0.0,0.0,3.924,4.1137,4.2926,4.4624,4.5388,4.6538,4.8216,4.9391,5.0301,5.0964,5.2599,5.3002,5.2433,5.2939,5.3192,5.3126,5.2191,5.1185,4.9843,4.4562,4.1227,3.937,3.8146,3.7716,3.7732,3.7278,3.7214,3.7333,0.0,0.0,0.0,0.0,0.0,0.0,0.0,0.0,0.0,0.0,0.0,0.0,0.0,0.0,3.966,4.1826,4.0853,4.0041,0.0,0.0,0.0,3.3423,3.2655,3.2293,3.2361,3.6328,4.1505,4.7812,4.9493,5.2367,5.6354,5.6401,5.7196,5.8522,5.7031,5.4678,5.1497,4.5832,4.3333,4.2851,3.8712,0.0,0.0,0.0,0.0,0.0,0.0,0.0,0.0,0.0,0.0,0.0,0.0,0.0,0.0,0.0,0.0,0.0,0.0,0.0,0.0,0.0,0.0,0.0,0.0,0.0,0.0,0.0,0.0,0.0,0.0,0.0,0.0,0.0,0.0,0.0,0.0,0.0,0.0,3.3609,3.563,0.0,0.0,0.0,0.0,3.7775,3.9704,4.14,4.2854,4.4255,4.6234,4.8879,4.9569,5.1163,5.3767,5.3882,5.4241,5.4895,5.5035,5.4705,5.4105,5.477,5.471,5.4105,5.3153,5.2491,5.1717,4.716,4.4236,4.247,4.0511,3.9938,4.0088,3.8927,3.89,3.9246,0.0,0.0,0.0,0.0,0.0,0.0,0.0,0.0,0.0,0.0,0.0,0.0,0.0,4.136,4.4215,4.6413,4.7008,4.623,4.3862,0.0,0.0,3.7731,3.4686,3.4486,3.762,4.1919,4.6347,5.0903,5.4254,5.6904,5.8833,5.9297,5.9827,6.0258,5.9264,5.7972,5.6216,5.0817,4.6378,4.2686,4.0216,3.8063,0.0,0.0,0.0,0.0,0.0,0.0,0.0,0.0,0.0,0.0,0.0,0.0,0.0,0.0,0.0,0.0,0.0,0.0,0.0,0.0,0.0,0.0,0.0,0.0,0.0,0.0,0.0,0.0,0.0,0.0,0.0,0.0,0.0,0.0,0.0,0.0,0.0,3.9705,4.1661,0.0,4.0716,4.0259,4.0776,4.2546,4.3781,4.5243,4.7042,4.8747,5.0531,5.242,5.3503,5.47,5.6047,5.6077,5.5987,5.5863,5.6252,5.5628,5.4251,5.5354,5.5239,5.4197,5.4126,5.3516,5.2453,5.0664,4.7957,4.473,4.3289,4.2288,4.1564,4.1037,4.1008,4.1057,0.0,0.0,0.0,0.0,0.0,0.0,0.0,0.0,0.0,0.0,0.0,3.7809,4.1597,4.5094,4.8173,5.0676,5.0845,4.9476,4.6278,0.0,0.0,3.9029,3.6545,3.7391,4.2066,4.6144,5.0224,5.4339,5.7415,5.9396,6.039,6.1119,6.145,6.145,6.0953,6.0191,5.9012,5.5051,5.0142,4.4889,4.2466,4.0616,3.8871,0.0,0.0,0.0,0.0,0.0,0.0,0.0,0.0,0.0,0.0,0.0,0.0,0.0,0.0,0.0,0.0,0.0,0.0,0.0,0.0,0.0,0.0,0.0,0.0,0.0,0.0,0.0,0.0,0.0,0.0,0.0,0.0,0.0,0.0,0.0,4.3392,4.3845,4.6041,4.6741,4.468,4.4567,4.5162,4.6466,4.7847,4.9314,5.0863,5.26,5.4042,5.5149,5.6256,5.7244,5.8082,5.7872,5.7693,5.7509,5.7693,5.6922,5.5415,5.6306,5.5926,5.4577,5.4742,5.4247,5.3262,5.2914,5.0792,4.7591,4.6395,4.5077,4.3772,4.347,4.3224,4.2934,0.0,0.0,0.0,0.0,0.0,0.0,0.0,0.0,0.0,0.0,3.5182,3.9986,4.5196,4.8477,5.147,5.4448,5.191,4.9203,4.7003,4.1927,0.0,3.6953,3.8167,4.0903,4.5224,4.8759,5.3037,5.8127,5.8681,5.9728,6.1152,6.1869,6.22,6.2255,6.2266,6.145,5.9923,5.8284,5.4822,5.0033,4.5619,4.3726,4.299,0.0,0.0,0.0,0.0,0.0,0.0,0.0,0.0,0.0,0.0,0.0,0.0,0.0,0.0,0.0,0.0,0.0,0.0,0.0,0.0,0.0,0.0,0.0,0.0,0.0,0.0,0.0,0.0,0.0,0.0,0.0,0.0,0.0,3.931,4.2938,4.5484,4.5574,4.8424,4.9142,4.5933,4.8019,4.9516,4.9539,5.1881,5.3593,5.4251,5.5534,5.6521,5.7094,5.7782,5.877,6.0084,5.9428,5.9428,6.0057,5.9398,5.8608,5.7713,5.7713,5.6811,5.528,5.5019,5.4691,5.4252,5.371,5.2552,5.0959,4.9653,4.8202,4.6772,4.6156,4.5511,4.4843,0.0,0.0,0.0,0.0,0.0,0.0,0.0,0.0,0.0,0.0,3.6502,4.207,4.6771,5.1404,5.4938,5.6851,5.3247,5.0202,4.8511,0.0,3.8989,3.8988,4.1692,4.5242,4.9643,5.2664,5.5644,5.8681,5.9914,6.0986,6.1902,6.2101,6.2465,6.3029,6.3526,6.2782,6.126,6.1545,5.9121,5.4549,4.872,4.5197,4.3127,0.0,0.0,0.0,0.0,0.0,0.0,0.0,0.0,0.0,0.0,0.0,0.0,0.0,0.0,0.0,0.0,0.0,0.0,0.0,0.0,0.0,0.0,0.0,0.0,0.0,0.0,0.0,0.0,0.0,0.0,0.0,0.0,4.27,4.3536,4.6646,4.9561,5.1528,5.3414,5.4216,5.3288,5.4276,5.4785,5.4336,5.5384,5.6107,5.6286,5.6645,5.7154,5.7786,5.8501,5.9009,5.9368,5.9189,5.9189,5.9368,5.9189,5.8608,5.7713,5.7713,5.6811,5.528,5.5019,5.456,5.3968,5.3632,5.2685,5.1366,5.0551,4.9131,4.7433,4.6772,4.5866,4.4901,0.0,0.0,0.0,0.0,0.0,0.0,0.0,0.0,0.0,0.0,3.7889,4.3606,4.8732,5.2554,5.5243,5.6411,5.2706,4.9104,4.638,0.0,4.0145,4.1956,4.5339,4.9244,5.3561,5.5857,5.8071,6.0278,6.114,6.1769,6.22,6.283,6.311,6.3132,6.3958,6.3259,6.1521,6.1854,6.0161,5.6825,5.2431,4.9326,4.6887,4.3456,4.1892,4.1405,3.9988,3.9536,3.9282,3.6985,0.0,0.0,0.0,0.0,0.0,0.0,0.0,0.0,0.0,0.0,0.0,0.0,0.0,0.0,0.0,0.0,0.0,0.0,0.0,0.0,0.0,0.0,0.0,0.0,4.3898,4.7279,4.9883,5.1678,5.3593,5.5987,5.7423,5.7902,5.7064,5.8082,5.8411,5.7483,5.8018,5.8231,5.7962,5.7932,5.8112,5.853,5.9189,5.9518,5.9518,5.9518,5.9368,5.9099,5.8991,5.8565,5.791,5.7774,5.6849,0.0,5.5187,5.4582,5.3736,5.3553,5.2749,0.0,0.0,0.0,0.0,0.0,4.6162,4.5337,0.0,0.0,0.0,0.0,0.0,0.0,0.0,0.0,0.0,0.0,0.0,4.4485,5.0186,5.2418,5.3788,5.455,5.1014,4.694,0.0,4.1062,4.1928,4.5663,4.9193,5.3014,5.7097,5.8634,6.0378,6.23,6.23,6.229,6.2316,6.3605,6.3731,6.2889,6.3883,6.3219,6.1316,6.0951,5.9621,5.7664,5.628,5.4497,5.2121,4.6396,4.5185,4.6109,4.3013,4.1471,4.0716,3.9233,0.0,0.0,0.0,0.0,0.0,0.0,0.0,0.0,0.0,0.0,0.0,0.0,0.0,0.0,0.0,0.0,0.0,0.0,0.0,0.0,0.0,0.0,0.0,0.0,4.8049,5.1612,5.6615,5.6941,5.733,5.9129,6.0326,6.0296,5.8504,6.0086,6.0655,5.9308,5.9817,5.9937,5.9368,0.0,0.0,0.0,0.0,6.0059,6.0059,5.9942,5.9586,5.8991,5.8835,5.8561,5.8169,5.7978,5.6971,5.5416,5.5416,5.4691,5.3474,5.3474,5.2749,5.1588,5.1443,5.0225,4.8455,4.7323,4.6475,4.5917,0.0,0.0,0.0,0.0,0.0,0.0,0.0,0.0,0.0,3.3931,3.9051,4.3876,4.809,5.1505,5.3788,5.455,5.0067,4.6032,4.3224,4.3017,4.5163,4.9959,5.3594,5.6984,6.0191,6.1682,6.2664,6.3095,6.3095,6.2969,6.2711,6.2971,6.3127,6.3256,6.4052,6.3647,6.2495,6.378,6.2182,5.8813,5.8822,5.6201,5.212,5.0487,4.8727,4.704,4.6423,4.6174,4.5851,4.376,4.3347,4.3008,3.9156,0.0,0.0,0.0,0.0,0.0,0.0,0.0,0.0,0.0,0.0,0.0,0.0,0.0,0.0,0.0,0.0,0.0,0.0,0.0,0.0,4.781,5.1169,5.4521,5.8201,5.9069,5.9668,6.0595,6.0475,6.0146,5.9727,6.1044,6.1343,5.9997,6.0535,6.0864,6.0717,6.0206,6.0146,6.0715,6.0104,5.9783,5.9783,5.8972,5.8508,5.839,0.0,0.0,5.7892,5.8335,5.738,5.5416,5.5416,5.4691,5.3474,5.3474,5.2749,5.1501,5.0452,4.9228,4.7927,4.7695,4.6882,4.5917,0.0,0.0,0.0,0.0,0.0,0.0,0.0,0.0,0.0,0.0,3.8103,4.1914,4.5283,4.7282,4.8397,4.8443,4.4955,4.317,4.4169,4.5654,4.8978,5.4464,5.7387,6.0258,6.3184,6.3637,6.4222,6.4895,6.4316,6.3979,6.3791,6.3589,6.3323,6.3054,6.3909,6.339,6.1986,6.3393,6.248,6.0084,5.9958,5.8187,5.5499,5.3905,5.2054,5.0266,5.0305,4.9499,4.8219,4.6783,4.5914,4.4849,4.1709,3.9365,3.7332,0.0,0.0,0.0,0.0,0.0,0.0,0.0,0.0,0.0,0.0,0.0,0.0,0.0,0.0,3.8656,0.0,0.0,4.7184,5.1322,5.3813,5.6143,5.8783,5.9277,5.971,6.0478,6.0595,6.0475,6.0116,6.1313,6.1822,6.1134,6.1262,6.1357,6.1357,6.0263,5.9971,6.0624,5.9889,5.9449,5.9449,5.8927,5.8696,5.8726,5.8558,5.8418,5.8221,5.808,5.7065,5.5416,5.5416,5.4691,5.3445,5.2807,5.2169,5.1472,5.0216,4.8909,4.7805,4.7805,4.6992,4.5917,0.0,0.0,0.0,0.0,0.0,0.0,0.0,0.0,0.0,0.0,3.6737,3.9462,4.207,4.251,4.2348,0.0,4.0052,4.0929,4.5362,4.8377,5.2582,5.8368,6.075,6.3173,6.5767,6.5293,6.5591,6.6728,6.5797,6.5149,6.4739,6.4393,6.3662,6.2629,6.3419,6.2925,6.1549,6.2433,6.2177,6.1253,6.0565,5.9967,5.9249,5.6855,5.5029,5.3707,5.3198,5.1402,4.9187,4.8462,4.6929,4.5005,4.3399,4.1545,3.9559,3.7325,3.6025,0.0,0.0,0.0,0.0,0.0,0.0,0.0,0.0,0.0,3.6658,3.8789,4.0496,4.2711,4.6296,4.8276,5.0594,5.4412,5.5824,5.7048,5.8783,5.8889,5.9107,5.9834,6.0512,6.0749,6.0339,6.132,6.1978,6.1921,6.1781,6.1637,6.1518,6.0283,5.9787,6.0199,5.9493,5.9141,5.9141,5.8938,5.8823,5.8824,5.8189,5.8077,5.8428,5.7794,5.6723,5.5387,5.5155,5.4458,5.3387,5.2111,5.1588,5.1472,5.0216,4.8909,4.7805,4.7805,4.6992,4.5917,0.0,0.0,0.0,0.0,0.0,0.0,0.0,0.0,0.0,0.0,0.0,0.0,0.0,0.0,0.0,3.9261,3.9925,4.2222,4.6626,5.0688,5.5256,6.051,6.3438,6.5668,6.7324,6.7291,6.7324,6.7489,6.7341,6.6311,6.4431,6.4399,6.3605,6.217,6.2281,6.2557,6.2868,6.3012,6.2625,6.1942,6.1253,6.0954,6.0687,5.9249,5.7483,5.5564,5.3169,5.1013,4.9164,4.8231,4.6778,4.5224,4.4807,4.3488,4.1523,3.8799,3.6384,3.4381,3.3237,3.3465,3.4299,3.5335,3.6067,3.727,0.0,0.0,4.2254,4.4234,4.6116,4.8132,5.0305,5.1812,5.349,5.5748,5.6665,5.7372,5.8195,5.8813,5.9194,5.9282,5.9815,6.0403,6.0934,6.1401,6.1547,6.123,6.1732,6.1821,6.126,6.1083,6.073,6.0228,5.9296,5.8832,5.8832,5.7964,5.7532,5.7532,5.7999,5.797,5.7476,5.7942,5.7187,5.5358,5.42,5.3619,5.3387,5.2111,5.1588,5.1472,5.0216,4.8909,4.7805,4.7805,4.6992,4.5917,0.0,0.0,0.0,0.0,0.0,0.0,0.0,0.0,0.0,0.0,0.0,0.0,0.0,0.0,3.4891,3.5348,3.8546,4.277,4.8046,5.3539,5.8701,6.3405,6.5569,6.7158,6.8241,6.8241,6.8126,6.7899,6.723,6.6116,6.4546,6.3933,6.329,6.266,6.266,6.2838,6.3108,6.3108,6.2958,6.2599,6.1523,6.1076,6.0835,5.8351,5.6354,5.4609,5.2851,5.0212,0.0,4.6513,4.548,4.451,4.4303,4.2989,4.0942,3.8257,3.6467,3.5324,3.5146,3.528,3.579,0.0,3.8732,4.0451,4.2169,4.3726,4.5419,4.7531,4.9594,5.1624,5.3609,5.4884,5.5971,0.0,5.7545,5.796,5.8223,5.7983,5.7892,5.8076,5.8311,5.9151,6.0937,6.0904,6.1022,6.1644,6.1439,6.1175,6.0911,6.0033,5.9566,5.9654,5.8547,5.8112,5.8519,5.7708,5.7507,5.7884,5.7768,5.7768,5.7884,5.7419,5.6345,5.4809,5.388,5.3297,5.2891,5.1965,5.141,5.0975,5.0071,4.8909,4.7805,4.7805,4.6992,4.5917,0.0,0.0,0.0,0.0,0.0,0.0,0.0,0.0,0.0,0.0,0.0,0.0,0.0,0.0,3.0979,3.2473,3.67,4.1668,4.7367,5.3768,5.9529,6.4299,6.6297,6.7821,6.897,6.9003,6.8846,6.8552,6.7414,6.6296,6.5142,6.4071,6.3394,6.3108,6.3108,6.3108,6.3108,6.3108,6.3108,6.2988,6.1642,6.0894,6.0176,5.6701,5.3973,5.1863,5.0873,4.8156,4.4798,4.3247,4.2406,4.2021,4.1843,4.0968,3.9601,3.747,3.6104,3.5419,3.5914,3.6546,0.0,3.907,4.1528,4.386,4.5004,4.6748,4.881,5.1283,5.3021,5.4611,5.6267,5.7269,5.7795,5.7699,5.8171,5.8406,5.7855,5.7297,5.6887,5.6809,5.6495,5.7181,5.9561,5.9969,6.0586,6.1762,6.1057,6.0501,6.0326,5.9015,5.8435,5.8726,5.7826,5.7536,5.8029,5.7536,5.7536,5.8029,5.7536,5.7477,5.7739,5.6461,5.5387,5.4461,5.3764,5.3239,5.2801,5.1962,5.1352,5.0884,5.0042,4.9025,4.8014,4.7863,4.6807,4.5452,0.0,0.0,0.0,0.0,0.0,0.0,0.0,0.0,0.0,0.0,0.0,0.0,0.0,0.0,2.9603,3.1651,3.4489,3.8295,4.3448,4.9905,5.6183,6.2034,6.5028,6.7556,6.9699,6.9765,6.9765,6.9751,6.8634,6.7465,6.6322,6.5169,6.4097,6.3108,6.3108,6.3108,6.3108,6.3108,6.3108,6.2988,6.1642,6.0326,5.874,5.479,5.0807,4.7219,4.6526,4.4415,4.142,3.8098,3.7063,3.7169,3.6993,3.7446,0.0,3.6993,3.5232,3.3727,3.4439,3.6382,3.8754,4.1358,4.4356,4.7323,4.9896,5.149,5.3294,5.6432,5.7129,5.7361,5.8087,5.8784,5.8813,5.7507,5.8406,5.861,5.6723,5.6926,5.6839,5.562,5.4371,5.4398,0.0,5.8487,6.0122,6.1166,6.0613,5.9945,5.9364,5.8668,5.8,5.739,5.7332,5.7303,5.7332,5.7303,5.7303,5.7332,5.7303,5.7013,5.6432,5.5155,5.4546,5.4461,5.3764,5.3474,5.3358,5.2111,5.1588,5.1468,5.0187,4.9262,4.86,4.8014,4.6359,4.4359,0.0,0.0,0.0,0.0,0.0,0.0,0.0,0.0,0.0,0.0,0.0,0.0,0.0,0.0,0.0,0.0,3.4762,3.848,4.2605,4.9475,5.5156,5.9118,6.3471,6.633,6.7556,6.8572,6.8566,6.7516,6.7157,6.6031,6.4211,6.3847,6.3451,6.3108,6.3108,6.3108,6.3078,6.2629,6.2421,6.2151,5.8907,5.7305,5.6262,5.0453,4.6207,4.2974,0.0,3.7759,3.6355,3.4681,3.412,3.4266,3.4976,3.511,3.4869,3.4126,3.4002,3.462,3.7008,0.0,4.2092,4.5133,4.7956,5.0312,5.1668,5.3614,5.5184,5.5416,5.5097,5.472,5.4572,5.4718,5.4863,5.4807,5.6578,5.7623,5.6549,5.6578,5.591,5.3791,5.3152,0.0,0.0,0.0,0.0,5.9742,5.9306,5.9219,5.9858,5.9306,5.8871,5.8639,5.8203,5.7971,5.7971,5.7536,5.71,5.6694,5.6258,5.5736,5.5099,5.472,5.4052,5.3236,5.3004,5.2423,5.1614,5.1178,5.0743,5.0229,4.9048,4.818,4.7538,4.6569,4.4768,4.2991,0.0,0.0,0.0,0.0,0.0,0.0,0.0,0.0,0.0,0.0,0.0,0.0,0.0,0.0,0.0,0.0,0.0,3.6957,4.0368,4.5931,5.0783,5.4527,5.8071,6.0535,6.1794,6.2285,6.2295,6.1798,6.1677,6.1102,6.0193,6.0246,6.0294,6.0294,6.0294,6.0413,6.0563,5.9668,5.9129,5.859,5.4862,5.2524,5.0655,4.5052,4.1067,0.0,3.4077,3.2275,3.1586,3.0616,3.0732,3.1299,3.1586,3.2354,3.3167,3.3164,3.4382,3.6519,3.9973,4.2615,4.514,4.8333,5.0569,5.231,5.3672,5.4865,5.5562,5.4952,5.3965,5.2833,5.1759,5.1556,5.1614,5.1762,5.3735,5.5213,5.5068,5.5039,5.4604,5.344,5.2888,5.2859,0.0,0.0,0.0,5.8697,5.8552,5.8755,5.9829,5.951,5.919,5.8958,5.8523,5.8174,5.7942,5.7507,5.7013,5.6403,5.5271,5.4517,5.4139,5.3648,5.3036,5.2249,5.2249,5.1759,5.1004,5.0797,5.0448,4.9914,4.8333,4.7484,4.6939,4.5367,4.3658,4.2259,0.0,0.0,0.0,0.0,0.0,0.0,0.0,0.0,0.0,0.0,0.0,0.0,0.0,0.0,0.0,0.0,0.0,0.0,3.6704,3.9573,4.3414,4.8431,4.9491,5.093,5.3081,5.2009,5.2034,5.3266,5.2891,5.3307,5.4514,5.4727,5.479,5.479,5.479,5.5144,5.5653,5.4341,5.3414,5.2546,4.967,4.6266,4.2525,3.9028,3.5625,3.2345,2.9811,2.8354,2.7463,2.6329,2.7243,2.8695,2.7504,2.9668,3.2903,3.4237,3.6472,3.9334,4.3195,4.564,4.7874,5.0979,5.2252,5.3352,5.5678,5.5271,5.4517,5.4923,5.3471,5.1581,0.0,0.0,4.918,4.8687,5.037,5.1991,5.2597,5.283,5.3323,0.0,0.0,0.0,0.0,0.0,0.0,5.8029,0.0,5.8552,5.9277,5.9335,5.9016,5.8319,5.829,5.7971,5.7303,5.7245,5.6897,5.6287,5.4371,5.3471,5.3387,5.2169,5.1559,5.153,5.153,5.1505,5.1367,5.0784,5.0523,5.02,4.7921,4.702,4.6699,4.4422,4.2968,4.2083,0.0,0.0,0.0,0.0,0.0,0.0,0.0,0.0,0.0,0.0,0.0,0.0,0.0,0.0,0.0,0.0,0.0,0.0,3.3735,3.6572,3.952,4.2483,4.4992,4.7321,4.9484,4.9876,5.0122,5.0133,5.0061,4.971,4.9241,4.9292,4.9314,4.9314,4.9314,4.9404,4.9494,4.8663,4.7938,4.7018,4.3604,4.133,3.9528,3.5451,3.2772,3.0949,2.9318,2.801,2.7113,2.7736,2.9566,3.1555,3.1744,3.3126,3.5084,3.7331,4.0147,4.3253,4.6569,4.9586,5.2111,5.3416,5.4226,5.4487,5.3759,5.3323,5.2452,5.0216,4.7863,4.5605,0.0,0.0,0.0,4.7004,5.0921,0.0,5.3994,5.6084,0.0,5.4749,0.0,5.5503,5.5649,5.5678,0.0,0.0,5.7565,5.8058,5.9248,5.9742,5.9451,5.8348,5.829,5.7971,5.7303,5.6374,5.5591,5.4981,5.35,5.283,5.2801,5.1991,5.1352,5.0942,5.0942,5.0148,4.8906,4.8736,4.7968,4.6682,4.5224,4.4408,4.3904,4.2449,4.1487,4.0946,0.0,0.0,0.0,0.0,0.0,0.0,0.0,0.0,0.0,0.0,0.0,0.0,0.0,0.0,0.0,0.0,0.0,0.0,0.0,3.3447,3.5346,3.7877,3.9018,4.0355,4.202,4.2269,4.2174,4.1709,4.2319,4.2465,4.2132,4.2432,4.2551,4.2551,4.2551,4.2701,4.291,4.2282,4.1586,0.0,0.0,3.5706,3.4205,3.143,2.9784,2.8854,2.8114,2.8114,2.8753,0.0,0.0,3.3296,3.5346,3.6682,3.8134,4.1541,0.0,4.6766,4.9934,5.2517,5.4371,5.4487,5.4342,5.3646,5.1755,5.0681,4.9059,4.5576,4.3485,0.0,3.9392,4.0263,0.0,0.0,0.0,0.0,5.3849,5.6113,5.7361,0.0,5.7245,0.0,5.7274,5.7507,5.7565,0.0,5.7565,5.8058,5.8813,5.9451,5.9335,5.8348,5.829,5.7855,5.6926,5.5649,5.4865,5.4487,5.292,5.2165,5.2107,5.1178,5.0319,4.952,0.0,4.8663,4.7227,4.7003,4.634,4.5346,4.3727,4.2892,4.2501,4.1098,4.0425,4.0149,0.0,0.0,0.0,0.0,0.0,0.0,0.0,0.0,0.0,0.0,0.0,0.0,0.0,0.0,0.0,0.0,0.0,0.0,0.0,0.0,3.1493,3.4352,3.307,3.2754,3.3726,3.3112,3.2478,3.194,3.3107,3.3982,3.4551,3.5073,3.5386,3.5446,3.5446,3.5789,3.6327,3.5805,3.5126,3.4206,3.2344,3.041,2.8568,0.0,0.0,2.6807,2.6981,2.8462,3.0786,3.379,3.4603,3.5014,3.8667,4.0437,4.1947,4.6104,4.8281,4.9992,5.2952,5.4691,5.5474,5.4691,5.353,5.2017,4.9838,4.7695,4.5118,4.1366,0.0,3.8754,3.6373,3.7651,3.9799,4.1976,0.0,4.9407,5.3326,5.5068,5.681,5.9132,5.951,5.9335,5.8755,5.9219,5.9016,5.7681,5.8116,5.8348,5.8174,5.8813,5.8871,5.8203,5.8087,5.7477,5.6287,5.5097,5.4458,5.4316,5.2488,5.1512,5.1327,5.0051,4.8852,4.7793,4.7793,0.0,4.6056,4.5514,4.514,4.4719,4.2758,4.1929,4.1697,4.0159,3.9622,3.9697,0.0,0.0,0.0,0.0,0.0,0.0,0.0,0.0,0.0,0.0,2.9427,0.0,0.0,0.0,0.0,0.0,0.0,0.0,0.0,0.0,0.0,3.2078,3.0904,3.0572,3.139,3.0779,3.0164,2.9522,2.9371,2.9363,2.9441,2.9241,2.9428,2.9953,2.9953,3.0356,3.0955,3.0835,3.0347,2.9553,2.906,2.8261,2.7312,2.705,0.0,0.0,2.7998,2.8637,2.9827,3.5038,3.7767,3.947,4.2266,4.4676,4.6934,4.9345,5.1265,5.301,5.4633,5.5997,5.6578,5.4896,5.353,5.1668,4.8106,4.5031,0.0,0.0,3.703,3.577,3.4242,3.6373,3.9538,4.3079,4.6882,5.0892,5.53,5.7477,5.8987,0.0,0.0,0.0,0.0,0.0,0.0,0.0,0.0,5.8639,5.7536,5.8116,5.8174,5.7507,5.6984,5.6374,5.5591,5.4865,5.42,5.3675,5.2256,5.1126,5.0134,4.8864,4.7664,4.658,4.658,0.0,4.4941,4.4335,4.3282,4.1941,4.1121,4.0511,4.0031,3.9322,3.9321,3.9622,0.0,0.0,0.0,0.0,0.0,0.0,0.0,0.0,0.0,3.2354,3.1846,3.105,0.0,0.0,0.0,0.0,0.0,0.0,0.0,0.0,0.0,0.0,0.0,0.0,2.9696,2.9543,2.8834,2.7484,0.0,2.7188,2.6855,2.6651,2.6722,2.7051,2.741,2.7701,2.7965,2.8306,2.8146,2.7682,2.76,2.7293,0.0,0.0,0.0,0.0,0.0,2.9334,3.08,3.4939,3.8482,4.1715,4.4959,4.7027,4.8856,5.1817,5.3326,5.4432,5.6374,5.7361,5.7361,5.5445,5.3007,4.9925,4.5401,0.0,0.0,0.0,3.408,3.3703,3.3093,3.5299,0.0,4.1453,4.4908,4.8885,5.3733,5.6055,0.0,5.9974,6.0787,6.1048,0.0,0.0,0.0,0.0,0.0,5.8348,5.7361,5.7303,5.7158,5.6839,5.591,5.5271,5.4925,5.4287,5.3822,5.3474,5.1627,5.0424,4.9846,4.7963,4.653,4.5475,4.5475,0.0,4.3744,4.2873,4.2039,4.1227,4.0399,3.9923,3.9672,3.9421,3.9497,3.9647,0.0,0.0,0.0,0.0,0.0,0.0,0.0,2.9761,3.0996,3.4087,3.4364,3.4,3.3238,3.1868,3.0797,0.0,0.0,0.0,0.0,0.0,0.0,0.0,0.0,0.0,0.0,0.0,0.0,2.613,2.638,0.0,0.0,0.0,0.0,0.0,2.6363,2.6601,2.6698,2.7191,2.7275,0.0,0.0,2.6925,0.0,0.0,0.0,0.0,0.0,0.0,3.1162,3.4155,3.764,4.1329,4.5162,4.7637,4.9702,5.2604,5.4142,5.5387,5.7507,5.8203,5.7768,5.5562,5.2223,4.8154,4.305,3.9305,0.0,3.2439,3.2032,3.2322,3.2468,3.4353,3.6838,0.0,4.244,4.6185,5.1639,5.4023,5.6403,0.0,6.07,0.0,6.0264,0.0,0.0,0.0,0.0,0.0,5.7158,5.6665,5.6345,5.62,5.5097,5.449,5.449,5.3849,5.3311,5.29,5.0885,4.9581,4.8911,4.6888,4.5369,4.4343,4.4343,0.0,0.0,4.1907,4.1428,4.1202,4.0249,3.9798,3.9672,3.9572,3.9597,3.9672,0.0,0.0,0.0,0.0,0.0,0.0,0.0,3.0986,3.2718,3.6328,3.6208,3.5512,3.4783,3.337,3.168,0.0,0.0,0.0,0.0,0.0,0.0,0.0,0.0,0.0,0.0,0.0,0.0,2.5937,2.6152,0.0,0.0,0.0,0.0,0.0,0.0,2.6944,2.75,2.742,0.0,0.0,0.0,0.0,0.0,0.0,0.0,0.0,0.0,0.0,2.871,0.0,0.0,3.67,4.0515,4.5772,5.0477,5.0196,0.0,0.0,5.7187,5.7826,5.7565,5.4458,5.1211,4.7439,4.2353,0.0,3.4968,3.2845,3.1974,3.1771,3.238,3.3628,0.0,0.0,0.0,4.4531,5.0805,5.3384,5.5794,5.9016,0.0,0.0,6.0264,0.0,0.0,0.0,0.0,0.0,5.652,5.6432,5.6142,5.5533,5.4865,5.449,5.449,5.3849,5.2711,5.113,5.0291,4.8537,4.597,4.5202,4.4234,4.3156,4.3156,0.0,0.0,4.2361,4.1781,4.1225,4.065,4.0149,3.9647,3.9145,3.9296,3.9622,0.0,0.0,0.0,0.0,0.0,0.0,0.0,3.1019,3.2575,3.7156,3.7122,3.6539,3.6274,3.4928,3.2961,0.0,0.0,0.0,0.0,0.0,0.0,0.0,0.0,0.0,0.0,0.0,0.0,2.6567,2.6086,0.0,0.0,0.0,0.0,0.0,0.0,2.7325,2.7476,0.0,0.0,0.0,0.0,0.0,0.0,0.0,0.0,0.0,0.0,0.0,2.9116,0.0,0.0,0.0,3.5212,3.9218,0.0,0.0,5.0656,5.35,5.6084,5.7507,5.7536,5.4287,5.0486,4.6221,4.1134,0.0,3.3707,3.1773,3.1148,3.1264,3.2322,3.2584,3.3773,0.0,0.0,0.0,4.5634,4.7753,5.0481,5.5242,5.6926,0.0,0.0,0.0,0.0,0.0,0.0,0.0,5.5852,5.5823,5.5533,5.4894,5.4229,5.388,5.388,5.3268,5.2282,5.0883,4.9158,4.7379,4.5561,4.4272,4.3434,4.3014,4.3014,0.0,0.0,4.2032,4.1503,4.1227,4.0349,3.9898,3.9672,3.9472,3.9522,3.9672,0.0,0.0,0.0,0.0,0.0,0.0,3.0754,3.1195,3.2685,3.699,3.7288,3.7023,3.6791,3.5247,3.3392,3.1327,0.0,0.0,0.0,0.0,0.0,0.0,0.0,0.0,0.0,0.0,0.0,2.7379,2.6933,2.6717,0.0,0.0,2.7183,2.7213,0.0,0.0,0.0,0.0,0.0,0.0,0.0,0.0,0.0,0.0,0.0,0.0,0.0,0.0,0.0,0.0,0.0,0.0,3.2119,3.4295,3.8289,0.0,4.755,5.083,5.411,5.62,5.6723,5.3677,4.9702,4.5176,0.0,0.0,3.2951,3.1004,3.0598,3.0989,3.2264,3.2119,3.2729,3.5561,0.0,3.7553,4.2092,4.3979,4.6737,0.0,0.0,0.0,0.0,0.0,0.0,0.0,0.0,0.0,5.5184,5.4952,5.4662,5.42,5.3588,5.3082,5.2737,5.2104,5.0995,4.9333,4.7595,4.6111,4.4775,4.3556,4.3014,4.3014,4.3014,0.0,0.0,4.1907,4.1352,4.1001,4.0249,3.9848,3.9697,3.9697,3.9697,3.9697,0.0,0.0,0.0,0.0,0.0,0.0,0.0,3.1735,3.3469,3.5744,3.6638,3.6837,3.6108,3.4033,3.2707,3.2674,0.0,0.0,0.0,0.0,0.0,0.0,0.0,0.0,0.0,0.0,0.0,2.83,2.8928,2.9355,2.9548,2.8876,2.8577,2.8547,0.0,0.0,0.0,0.0,0.0,0.0,0.0,0.0,0.0,0.0,0.0,0.0,0.0,0.0,0.0,0.0,0.0,0.0,0.0,3.2526,3.3454,3.797,4.3776,4.9151,5.1124,5.3474,5.4836,5.2256,4.874,4.456,0.0,0.0,3.2951,3.1004,3.0598,3.0989,3.2264,3.2497,3.3122,3.5101,3.6478,0.0,4.1657,4.3718,4.6121,0.0,0.0,0.0,0.0,0.0,0.0,0.0,0.0,0.0,5.4604,5.3907,5.3503,5.3503,5.2917,5.2049,5.0938,5.0264,4.8483,4.5642,4.5642,4.4721,4.3042,4.3014,4.3014,0.0,0.0,0.0,0.0,4.2213,4.1532,4.0499,4.0499,4.0174,3.9697,3.9697,3.9697,3.9697,0.0,0.0,0.0,0.0,0.0,0.0,0.0,2.946,3.0729,3.3403,3.3967,3.4397,3.5148,3.3735,3.2707,3.2707,0.0,0.0,0.0,0.0,0.0,0.0,0.0,0.0,0.0,0.0,2.9908,3.0831,3.0323,3.0356,3.0855,2.9793,2.9039,2.8577,2.838,0.0,0.0,0.0,0.0,0.0,0.0,0.0,0.0,0.0,0.0,0.0,0.0,0.0,0.0,0.0,0.0,0.0,0.0,0.0,0.0,3.4063,3.8503,4.3253,4.5198,4.7584,4.8803,4.5866,4.3515,4.0931,3.7146,3.4503,3.2396,3.0917,3.0598,3.0844,3.1655,3.1496,3.2267,3.5473,3.6014,0.0,0.0,0.0,0.0,4.7404,5.1381,5.4342,0.0,0.0,0.0,0.0,0.0,0.0,5.3851,5.2497,5.2074,5.2862,5.1496,5.0578,5.021,4.8829,4.7271,4.5615,4.5195,4.4305,4.3014,4.3014,4.3014,0.0,0.0,0.0,0.0,4.1381,4.0827,4.0449,4.0099,3.9848,3.9697,3.9697,3.9697,3.9697,0.0,0.0,0.0,0.0,0.0,0.0,0.0,2.821,2.9138,3.1183,3.1437,3.21,3.3867,3.2508,3.1779,3.2641,0.0,0.0,0.0,0.0,0.0,0.0,0.0,0.0,0.0,3.0127,3.0945,3.2797,3.184,3.1792,3.2571,3.1541,3.0454,2.9295,2.9086,0.0,0.0,0.0,0.0,0.0,0.0,0.0,2.6097,0.0,0.0,0.0,0.0,0.0,0.0,0.0,0.0,0.0,0.0,0.0,0.0,0.0,3.4557,3.7883,4.0786,4.3427,4.477,4.2324,4.0525,0.0,0.0,3.3371,3.1771,3.048,3.0408,3.0786,3.1394,3.1206,3.1874,3.4777,0.0,0.0,0.0,0.0,0.0,4.6482,0.0,0.0,0.0,0.0,0.0,0.0,0.0,0.0,5.2521,5.0632,4.9863,5.0576,4.9497,4.8722,4.8268,4.6974,4.5737,4.4613,4.4224,4.3685,4.3014,4.3014,4.2889,0.0,0.0,0.0,0.0,4.0802,4.0374,4.0174,3.9823,3.9697,3.9697,3.9697,3.9697,3.9697,0.0,0.0,0.0,0.0,0.0,0.0,0.0,0.0,0.0,0.0,2.9241,3.0036,3.2144,3.0609,3.0245,0.0,0.0,0.0,0.0,0.0,0.0,0.0,0.0,0.0,0.0,3.0952,3.1824,3.4163,3.3448,3.3582,3.4516,3.3841,3.2426,3.0492,2.9907,0.0,0.0,0.0,0.0,0.0,0.0,0.0,0.0,0.0,0.0,0.0,0.0,0.0,0.0,0.0,0.0,0.0,0.0,0.0,0.0,0.0,0.0,0.0,0.0,4.0437,4.2026,4.0728,3.9102,3.7012,3.4039,3.2396,0.0,2.9914,3.0176,3.0786,3.1452,3.1539,3.199,0.0,0.0,0.0,0.0,4.0641,0.0,0.0,0.0,0.0,0.0,0.0,0.0,0.0,0.0,0.0,5.0668,4.8458,4.7162,4.7108,4.7001,4.649,4.5562,4.485,4.3991,4.3014,4.2964,4.2939,4.2939,4.2939,4.2637,0.0,0.0,0.0,0.0,4.0449,4.0149,3.9697,3.9697,3.9697,3.9697,3.9697,3.9697,3.9697,0.0,0.0,0.0,0.0,0.0,0.0,0.0,0.0,0.0,0.0,2.7779,2.821,2.9304,2.9383,2.9605,0.0,0.0,0.0,0.0,0.0,0.0,0.0,0.0,0.0,0.0,3.1702,3.3004,3.4703,3.4188,3.4614,3.5886,3.4254,3.2419,3.0492,3.0342,0.0,0.0,0.0,0.0,0.0,0.0,0.0,0.0,0.0,0.0,0.0,2.6807,2.72,0.0,0.0,0.0,0.0,0.0,0.0,0.0,0.0,3.0843,3.1974,3.3019,0.0,3.5404,3.4109,3.3802,3.3512,0.0,0.0,0.0,0.0,0.0,3.0931,3.2061,3.1858,3.2409,0.0,0.0,0.0,3.8696,0.0,0.0,0.0,0.0,0.0,0.0,0.0,0.0,0.0,0.0,4.9172,4.879,4.6999,4.5788,4.5312,4.4082,4.3892,4.4906,4.3491,4.2838,4.2989,4.2587,4.2386,4.2386,4.2386,4.2085,0.0,0.0,0.0,4.0449,4.0074,3.9798,3.9697,3.9697,3.9697,3.9697,3.9697,3.9697,3.9697,0.0,0.0,0.0,0.0,0.0,0.0,0.0,0.0,0.0,0.0,0.0,0.0,0.0,0.0,0.0,0.0,0.0,0.0,0.0,0.0,0.0,0.0,0.0,0.0,3.0986,3.1791,3.309,3.4943,3.469,3.5211,3.6358,3.5018,3.3306,3.1346,3.0108,0.0,0.0,0.0,0.0,0.0,2.5442,0.0,0.0,0.0,0.0,0.0,2.6691,2.72,0.0,2.8057,2.8812,2.9537,0.0,0.0,0.0,0.0,2.9856,3.064,3.064,3.2019,3.3255,3.2206,3.2235,3.2322,3.1655,3.1278,0.0,0.0,0.0,3.0902,3.1858,3.1476,0.0,0.0,3.5239,0.0,0.0,0.0,0.0,0.0,0.0,0.0,0.0,0.0,0.0,0.0,0.0,4.6763,4.6943,4.511,4.3883,4.3573,4.2412,4.2359,4.3547,4.2359,4.1932,4.2233,4.1932,4.1781,4.1781,4.1781,4.148,0.0,0.0,0.0,4.0124,3.9823,3.9697,3.9697,3.9697,3.9697,3.9697,3.9697,3.9697,3.9647,0.0,0.0,0.0,0.0,0.0,0.0,0.0,0.0,0.0,0.0,0.0,0.0,0.0,0.0,0.0,0.0,0.0,0.0,0.0,0.0,0.0,0.0,0.0,3.0886,3.1747,3.178,3.2876,3.5156,3.5155,3.5584,3.6369,3.5799,3.4425,3.2228,2.9669,2.8021,0.0,0.0,0.0,0.0,2.5849,0.0,0.0,0.0,0.0,0.0,0.0,0.0,0.0,2.8259,2.8884,2.9421,2.9247,0.0,0.0,0.0,0.0,0.0,2.9856,3.1584,3.3167,3.2396,3.2264,3.2177,3.151,3.0989,0.0,0.0,0.0,0.0,3.1486,3.1117,0.0,0.0,0.0,0.0,4.1641,4.3743,0.0,0.0,0.0,0.0,0.0,0.0,0.0,0.0,0.0,4.4167,4.5049,4.3241,4.2162,4.206,4.1505,4.1403,4.1934,4.1455,4.1227,4.1302,4.1227,4.1202,4.1202,4.1202,4.0876,4.0374,0.0,0.0,3.9697,3.9697,3.9697,3.9697,3.9697,3.9697,3.9697,3.9597,3.9572,3.9471,0.0,0.0,0.0,0.0,0.0,0.0,0.0,0.0,0.0,0.0,0.0,0.0,0.0,0.0,0.0,0.0,0.0,0.0,0.0,0.0,0.0,0.0,3.0489,3.1129,3.2508,3.2542,3.3622,3.584,3.597,3.6113,3.6314,3.6315,3.4656,3.1586,2.9782,2.8328,2.7122,0.0,0.0,0.0,0.0,0.0,0.0,0.0,0.0,0.0,0.0,0.0,0.0,2.7229,2.7853,2.8637,2.7562,0.0,0.0,0.0,0.0,0.0,3.093,3.1916,3.2367,3.1192,3.1264,3.1481,3.0873,0.0,0.0,0.0,0.0,0.0,0.0,3.2184,3.2807,0.0,0.0,0.0,0.0,0.0,0.0,0.0,0.0,0.0,0.0,0.0,0.0,0.0,0.0,4.3473,4.2737,4.237,4.1984,4.1453,4.0901,4.065,4.0777,4.065,4.0851,4.1275,4.0826,4.0625,4.0625,4.0625,4.035,3.9823,0.0,3.9772,3.9697,3.9697,3.9697,3.9697,3.9697,3.9697,3.9647,3.9195,3.9019,3.8869,0.0,0.0,0.0,0.0,0.0,0.0,0.0,0.0,0.0,0.0,0.0,0.0,0.0,0.0,0.0,0.0,0.0,0.0,0.0,0.0,0.0,3.1636,3.1294,3.1416,3.2089,3.2895,3.4199,3.6058,3.6543,3.6849,3.6922,3.5517,3.3484,3.0913,2.9679,2.839,2.7152,0.0,0.0,0.0,0.0,0.0,0.0,0.0,0.0,0.0,0.0,0.0,0.0,0.0,2.7694,2.8057,2.7477,0.0,0.0,0.0,0.0,0.0,2.9392,3.0669,3.1742,3.0815,3.1031,3.1336,0.0,0.0,0.0,0.0,0.0,0.0,0.0,0.0,0.0,0.0,0.0,0.0,0.0,0.0,0.0,0.0,0.0,0.0,0.0,0.0,0.0,0.0,0.0,0.0,4.1756,4.143,4.1153,4.0876,4.035,4.0074,4.0074,4.0074,4.0199,4.0424,4.0199,4.0074,4.0074,4.0074,3.9923,3.9697,0.0,3.9697,3.9672,3.9396,3.9271,3.9245,3.8894,3.8793,3.8743,3.8492,3.824,3.7914,0.0,0.0,0.0,0.0,0.0,0.0,0.0,0.0,0.0,0.0,0.0,0.0,0.0,0.0,0.0,0.0,0.0,0.0,0.0,0.0,3.0996,3.2144,3.1956,3.2177,3.2872,3.3822,3.5054,3.6578,3.7242,3.7467,3.7224,3.4664,3.2482,3.0631,2.9563,2.8377,2.713,2.6912,2.6487,0.0,0.0,0.0,0.0,0.0,0.0,0.0,0.0,0.0,0.0,0.0,0.0,0.0,0.0,0.0,0.0,2.7113,2.7694,2.8419,2.8188,2.9682,3.1177,3.0728,0.0,0.0,0.0,0.0,0.0,0.0,0.0,0.0,0.0,3.2755,0.0,0.0,0.0,0.0,0.0,0.0,0.0,0.0,0.0,0.0,0.0,0.0,0.0,0.0,0.0,0.0,4.0951,4.065,4.0424,4.0325,3.9923,3.9697,3.9697,3.9697,3.9697,3.9697,3.9697,3.9697,3.9697,3.9697,3.9697,3.9697,3.9572,3.9496,3.9472,3.8919,3.8693,3.8642,3.8191,3.7914,3.7814,3.7814,3.7462,3.7009,0.0,0.0,0.0,0.0,0.0,0.0,0.0,0.0,0.0,0.0,0.0,0.0,0.0,0.0,0.0,0.0,0.0,0.0,0.0,0.0,3.0555,3.0654,3.1901,3.39,3.6626,3.6141,3.6585,3.805,3.8225,3.7716,3.6547,3.4474,3.2691,3.1188,2.9728,2.8309,2.7003,2.6859,2.6778,2.672,0.0,0.0,0.0,0.0,0.0,0.0,0.0,0.0,0.0,0.0,0.0,0.0,0.0,0.0,2.6981,2.7477,2.7695,2.8014,2.9145,3.0045,3.0656,3.0627,3.106,0.0,3.201,3.189,0.0,3.1721,0.0,0.0,0.0,0.0,0.0,0.0,0.0,0.0,0.0,0.0,0.0,0.0,0.0,0.0,0.0,0.0,0.0,0.0,0.0,0.0,3.9873,4.0249,4.0275,3.9772,3.9722,3.9697,3.9697,3.9697,3.9697,3.9697,3.9697,3.9697,3.9697,3.9697,3.9697,3.9672,3.917,3.8944,3.8919,3.8316,3.8065,3.8065,3.8015,3.7688,3.7261,3.7261,3.6909,3.6332,0.0,0.0,0.0,0.0,0.0,0.0,0.0,0.0,0.0,0.0,0.0,0.0,0.0,0.0,0.0,0.0,0.0,0.0,0.0,0.0,3.0897,3.1835,3.2409,3.3668,3.5678,3.6804,3.8078,3.956,3.8856,3.7623,3.5818,3.3379,3.1691,3.0624,2.9194,2.8189,2.7517,2.7018,2.6807,2.6807,2.6807,0.0,0.0,0.0,0.0,0.0,0.0,0.0,0.0,0.0,2.6807,2.6807,2.6807,2.6807,2.6836,2.7055,2.7419,2.7724,2.7839,2.9218,3.0495,3.0074,3.0756,0.0,0.0,3.1361,3.1348,3.1672,0.0,0.0,0.0,0.0,0.0,0.0,0.0,0.0,0.0,0.0,0.0,0.0,0.0,0.0,0.0,0.0,0.0,0.0,0.0,0.0,3.9747,3.9572,3.9421,3.922,3.8843,3.8642,3.8642,3.8642,3.8642,3.8642,3.9019,3.9019,3.8642,3.8642,3.8642,3.8642,3.8417,3.8341,3.8291,3.7713,3.7487,3.7462,3.7135,3.6884,3.6708,3.6708,3.6487,3.6071,0.0,0.0,0.0,0.0,0.0,0.0,0.0,0.0,0.0,0.0,0.0,0.0,0.0,0.0,0.0,0.0,0.0,0.0,0.0,3.0489,3.0963,3.1967,3.2442,3.3271,3.453,3.697,3.8506,3.9056,3.8091,3.6768,3.513,3.2617,3.1127,3.0479,2.9052,2.8196,2.7787,2.7298,2.6981,2.6807,2.6807,2.6242,0.0,0.0,0.0,0.0,0.0,0.0,0.0,0.0,2.6807,2.6807,2.6807,2.6807,2.6807,2.6807,2.7084,2.7332,2.6923,2.8389,2.9885,2.9375,0.0,0.0,3.1703,3.1823,3.2031,3.2533,0.0,0.0,0.0,0.0,0.0,0.0,0.0,0.0,0.0,0.0,0.0,0.0,0.0,0.0,0.0,0.0,0.0,0.0,0.0,0.0,0.0,3.8818,3.8617,3.8617,3.8216,3.8015,3.8015,3.8015,3.7839,3.7487,3.809,3.824,3.8015,3.8015,3.8015,3.799,3.7814,3.7739,3.7713,3.7185,3.6959,3.6909,3.6532,3.6281,3.613,3.613,3.5842,3.5408,0.0,0.0,0.0,0.0,0.0,0.0,0.0,0.0,0.0,0.0,0.0,0.0,0.0,0.0,0.0,0.0,0.0,0.0,3.0489,3.0489,3.0489,3.0489,3.1901,3.3039,3.3768,3.6659,3.7519,3.6198,3.5734,3.5146,3.4428,3.2303,3.1219,3.1028,2.9561,2.8457,2.7695,2.7695,2.7361,2.6807,2.6807,2.6807,0.0,0.0,0.0,0.0,0.0,0.0,0.0,0.0,2.6807,2.6807,2.6807,2.6807,2.6807,2.6807,2.6807,2.6807,2.6807,2.7736,2.867,0.0,0.0,0.0,3.3014,3.3826,3.4409,3.4664,0.0,0.0,0.0,0.0,0.0,0.0,0.0,0.0,0.0,0.0,0.0,0.0,0.0,0.0,0.0,0.0,0.0,0.0,0.0,0.0,0.0,3.799,3.799,3.799,3.799,3.7965,3.7965,3.7965,3.7437,3.6405,3.6909,3.7437,3.799,3.799,3.799,3.7965,3.7412,3.721,3.716,3.6607,3.6405,3.6405,3.6405,3.6006,3.5483,3.5483,3.5019,3.4291,0.0,0.0,0.0,0.0,0.0,0.0,0.0,0.0,0.0,0.0,0.0,0.0,0.0,0.0,0.0,0.0,0.0,0.0,3.0489,3.0489,3.0489,3.0489,3.1427,3.2023,3.2255,3.334,3.4957,3.7113,3.6027,3.4653,3.3066,3.1496,3.0355,2.9658,2.9233,2.8525,2.7695,2.7695,2.7608,2.739,2.6981,2.6807,2.6807,0.0,0.0,0.0,0.0,0.0,0.0,0.0,0.0,0.0,2.6807,2.7084,2.7361,2.6923,2.7113,2.7332,2.6923,2.8042,0.0,2.9108,0.0,0.0,0.0,3.4004,0.0,0.0,0.0,0.0,0.0,0.0,0.0,0.0,0.0,0.0,0.0,0.0,0.0,0.0,0.0,0.0,0.0,0.0,0.0,0.0,0.0,0.0,0.0,3.7262,3.6884,3.6885,3.6083,3.5682,3.5682,3.5682,3.5506,3.5203,3.5378,3.5707,3.6259,3.6684,3.6859,3.6859,3.6708,3.6632,3.6582,3.6006,3.5757,3.5732,3.5353,3.5013,3.4726,3.4726,3.4466,3.3966,0.0,0.0,0.0,0.0,0.0,0.0,0.0,0.0,0.0,0.0,0.0,0.0,0.0,0.0,0.0,0.0,0.0,0.0,0.0,0.0,3.0489,3.0489,3.0919,3.146,3.2023,3.2365,3.348,3.5383,3.4142,3.3015,3.2079,3.1127,3.0419,2.9894,3.0015,2.9331,2.8086,2.8086,2.7941,2.7666,2.7303,2.7171,2.7171,0.0,0.0,0.0,0.0,0.0,0.0,0.0,0.0,0.0,2.6807,2.7055,2.7274,2.6923,2.7055,2.7303,2.72,2.8347,0.0,2.9584,3.2212,3.4799,3.4706,0.0,0.0,0.0,0.0,0.0,0.0,0.0,0.0,0.0,0.0,0.0,0.0,0.0,0.0,0.0,0.0,0.0,0.0,0.0,0.0,0.0,0.0,0.0,0.0,3.6182,3.5705,3.5707,3.5054,3.4703,3.4703,3.4703,3.4603,3.4377,3.4603,3.4753,3.4904,3.568,3.5931,3.5705,3.5705,3.5854,3.5981,3.5431,3.5136,3.5042,3.4717,3.4307,3.3927,3.3769,3.3368,3.2759,0.0,0.0,0.0,0.0,0.0,0.0,0.0,0.0,0.0,0.0,2.6194,0.0,0.0,0.0,0.0,0.0,0.0,0.0,0.0,0.0,3.0489,3.0489,3.0621,3.136,3.2774,3.2935,3.2734,3.2127,3.1023,3.0777,3.1331,3.1116,3.0984,3.0925,3.1271,3.035,2.852,2.852,2.8129,2.7521,2.7521,2.7521,2.7521,2.7521,0.0,0.0,0.0,0.0,0.0,0.0,0.0,0.0,2.6807,2.6836,2.6865,2.6807,2.6836,2.6984,2.754,0.0,0.0,2.9974,3.2684,0.0,3.6601,0.0,0.0,0.0,0.0,0.0,0.0,0.0,0.0,0.0,0.0,0.0,0.0,0.0,0.0,0.0,0.0,0.0,0.0,0.0,0.0,0.0,0.0,0.0,0.0,3.4929,3.4628,3.4628,3.4577,3.4527,3.4477,3.4477,3.4201,3.3671,3.4173,3.4126,3.3721,3.4904,3.5157,3.4703,3.4703,3.4979,3.5382,3.4853,3.449,3.4284,3.4261,3.3731,3.2938,3.2692,3.1976,3.1159,0.0,0.0,0.0,0.0,0.0,0.0,0.0,0.0,0.0,0.0,0.0,0.0,0.0,0.0,0.0,0.0,0.0,0.0,0.0,0.0,3.0489,3.0489,3.1603,3.2641,3.3536,3.2289,3.157,3.1424,3.0809,3.0342,3.0013,3.0846,3.0643,2.9555,3.0529,2.9551,2.7214,2.7214,2.6836,2.6213,2.6213,2.6213,2.6213,2.6213,2.6139,0.0,0.0,0.0,0.0,0.0,0.0,0.0,2.6807,2.7142,2.7419,2.6952,2.7142,2.75,2.7541,2.8554,0.0,0.0,3.2403,3.4748,3.6787,3.614,0.0,0.0,0.0,0.0,0.0,0.0,0.0,0.0,0.0,0.0,0.0,0.0,0.0,0.0,0.0,0.0,0.0,0.0,0.0,0.0,0.0,0.0,3.4879,3.4352,3.4073,3.4073,3.3646,3.3219,3.2746,3.2746,3.2466,0.0,3.2039,3.2039,3.1989,3.3975,3.4803,3.4703,3.4703,3.4778,3.4828,3.4276,3.38,3.338,3.3137,3.2346,3.1364,3.1635,3.1392,3.0789,0.0,0.0,0.0,0.0,0.0,0.0,0.0,0.0,0.0,0.0,0.0,0.0,0.0,0.0,0.0,0.0,0.0,0.0,0.0,0.0,0.0,3.0489,3.1559,3.2199,3.2232,3.1227,3.0568,3.0196,2.9403,2.9171,2.9486,3.0627,3.0719,2.9942,3.0761,2.9668,2.7229,2.6923,2.64,2.579,2.579,2.579,2.579,2.579,2.5604,2.5359,2.5662,0.0,0.0,0.0,0.0,0.0,0.0,0.0,2.7229,2.6894,2.7026,2.7313,2.7511,0.0,0.0,3.3234,0.0,3.4507,3.6866,3.6009,3.4914,0.0,0.0,0.0,0.0,0.0,0.0,0.0,0.0,0.0,0.0,0.0,0.0,0.0,0.0,0.0,0.0,0.0,0.0,0.0,0.0,3.4198,3.3947,3.3395,3.2968,3.2692,3.2437,3.2135,3.1813,3.1813,3.1646,3.1268,3.1268,3.1227,3.117,3.2506,3.3505,3.4165,3.3702,3.3433,3.3368,3.3154,3.266,3.1995,3.1953,3.1395,3.0611,3.0695,3.025,2.9522,0.0,0.0,0.0,0.0,0.0,0.0,0.0,0.0,0.0,0.0,0.0,0.0,0.0,0.0,0.0,0.0,0.0,0.0,0.0,0.0,0.0,3.0654,3.1283,3.1383,3.0897,3.0443,2.9891,2.9287,2.8044,0.0,0.0,0.0,3.0676,3.0485,3.0961,2.9769,2.7318,2.6707,2.6081,2.5471,2.5471,2.5471,2.5471,2.5471,2.5139,2.4708,2.5255,2.5529,2.572,2.6284,0.0,0.0,0.0,0.0,2.6662,2.6778,2.6807,2.6922,2.7427,0.0,3.1486,3.5745,3.5115,0.0,3.6297,3.5409,3.4126,0.0,0.0,0.0,0.0,0.0,0.0,0.0,0.0,0.0,0.0,0.0,0.0,0.0,0.0,0.0,0.0,0.0,0.0,0.0,0.0,3.337,3.2839,3.234,3.1863,3.1411,3.1406,3.1336,3.122,3.122,3.1068,3.0749,3.0749,3.0737,3.0667,3.0896,3.1797,3.3134,3.2339,3.1922,3.1775,3.1985,3.1535,3.0737,3.0766,3.0465,2.9897,2.9511,2.8763,2.7877,0.0,0.0,0.0,0.0,0.0,0.0,0.0,0.0,0.0,0.0,0.0,0.0,0.0,0.0,0.0,0.0,0.0,0.0,2.8542,0.0,0.0,3.1416,3.1548,3.1857,3.2376,3.0948,3.0145,3.005,0.0,0.0,0.0,0.0,0.0,2.9169,0.0,2.8434,2.6023,2.5359,2.4721,2.4164,2.4164,2.4164,2.4164,2.4164,0.0,0.0,2.4135,2.45,2.494,2.5056,2.5098,0.0,0.0,0.0,2.6052,2.6633,2.6807,2.6908,2.7369,0.0,3.0681,0.0,3.3246,3.221,0.0,0.0,3.1838,0.0,0.0,0.0,0.0,0.0,0.0,0.0,0.0,0.0,0.0,0.0,0.0,0.0,0.0,0.0,0.0,0.0,0.0,0.0,3.247,3.219,3.1658,3.1537,3.1461,3.1406,3.1406,3.1079,3.0448,3.0468,3.0079,2.9372,2.9372,2.9618,3.0085,2.9633,3.0148,3.1427,3.1299,3.1224,3.1203,3.143,3.1063,3.0336,2.9827,2.9006,2.8089,2.7508,2.691,2.6383,0.0,0.0,0.0,0.0,0.0,0.0,0.0,0.0,0.0,0.0,0.0,0.0,0.0,0.0,0.0,2.6709,2.6965,2.7339,2.7755,2.9118,3.0026,3.0357,3.0754,3.1129,3.147,3.0249,2.9548,2.9466,0.0,0.0,0.0,2.9112,2.942,0.0,0.0,0.0,0.0,2.5284,2.4285,2.3357,2.3357,2.3357,2.3357,0.0,0.0,0.0,0.0,0.0,0.0,0.0,0.0,2.4895,2.5156,0.0,0.0,0.0,2.6517,2.7008,2.7878,2.8795,3.0057,0.0,3.2669,3.2364,3.3077,0.0,3.1928,0.0,0.0,0.0,0.0,0.0,0.0,0.0,0.0,0.0,0.0,0.0,0.0,0.0,0.0,0.0,0.0,0.0,0.0,0.0,3.1763,3.1512,3.0984,3.0959,3.0809,3.0507,3.0363,3.0139,2.9791,2.9673,2.9372,2.8934,2.8816,2.8897,2.914,2.8878,2.9393,3.0474,3.0595,3.0175,2.946,2.9829,2.9288,2.8143,2.7879,2.7405,2.6812,2.6561,2.5993,2.5357,0.0,0.0,0.0,0.0,0.0,0.0,0.0,0.0,0.0,0.0,0.0,0.0,0.0,0.0,0.0,0.0,2.6194,2.6501,2.7258,2.8466,2.9208,2.9407,2.9926,3.0323,3.0489,2.9584,2.8933,0.0,0.0,0.0,2.8657,2.8909,2.958,0.0,2.9885,2.8551,0.0,0.0,0.0,0.0,0.0,0.0,0.0,0.0,0.0,0.0,0.0,0.0,0.0,0.0,0.0,0.0,0.0,0.0,0.0,0.0,0.0,0.0,0.0,0.0,2.9204,3.1082,3.1701,3.1916,0.0,0.0,3.1753,0.0,0.0,0.0,0.0,0.0,0.0,0.0,0.0,0.0,0.0,0.0,0.0,0.0,0.0,0.0,0.0,0.0,0.0,0.0,3.1185,3.0959,3.0432,3.0387,3.0206,2.9804,2.9599,2.9438,2.9321,2.9072,2.8802,2.8518,2.851,2.8307,2.7969,2.8108,2.8422,2.8883,2.9366,2.8956,2.7955,2.821,2.7543,2.64,2.6151,2.5943,2.5734,2.542,2.4935,2.4339,0.0,0.0,0.0,0.0,0.0,0.0,0.0,0.0,0.0,0.0,0.0,0.0,0.0,2.6261,2.6227,2.6194,2.6194,2.6501,2.7258,2.8011,2.8731,2.9373,2.944,0.0,3.0489,2.9584,2.8735,0.0,0.0,0.0,2.7984,2.9296,3.0178,3.0569,2.9885,2.8551,2.6749,0.0,0.0,0.0,0.0,0.0,0.0,0.0,0.0,0.0,0.0,0.0,0.0,0.0,0.0,0.0,0.0,0.0,0.0,0.0,0.0,0.0,0.0,2.7684,0.0,2.9373,2.9568,0.0,0.0,0.0,0.0,0.0,0.0,0.0,0.0,0.0,0.0,0.0,0.0,0.0,0.0,0.0,0.0,0.0,0.0,0.0,0.0,0.0,0.0,0.0,3.0638,3.0407,2.9854,2.9829,2.9829,2.9804,2.9804,2.9566,2.9131,2.8717,2.8278,2.7753,2.8258,2.7798,2.6536,2.7036,2.6707,2.5813,2.71,2.7588,2.7464,2.6876,2.6421,2.6025,2.521,2.4872,2.4745,2.3649,2.3212,2.321,0.0,0.0,0.0,0.0,0.0,0.0,0.0,0.0,0.0,0.0,0.0,0.0,0.0,2.6194,2.6194,2.6194,2.6194,2.6294,2.6568,2.7282,2.8011,2.8731,2.9175,2.9605,3.0043,2.9427,0.0,0.0,0.0,2.6899,2.7256,2.774,2.8226,2.8754,2.9334,2.8768,2.7303,2.6255,0.0,0.0,0.0,0.0,0.0,0.0,0.0,0.0,0.0,0.0,0.0,0.0,0.0,0.0,0.0,0.0,0.0,0.0,0.0,0.0,0.0,0.0,0.0,2.7025,2.7958,2.8766,2.8393,2.8669,2.9035,0.0,0.0,0.0,0.0,0.0,0.0,0.0,0.0,0.0,0.0,0.0,0.0,0.0,0.0,0.0,0.0,0.0,0.0,0.0,0.0,3.0005,2.9804,2.9804,2.9721,2.9541,2.9404,2.8983,2.8208,2.7714,2.7397,2.7186,2.6873,2.6442,2.5945,2.5614,2.5412,2.5302,2.5171,2.5299,2.5587,2.5437,2.502,2.4381,2.3908,2.3714,2.3649,2.3256,2.3101,2.3101,0.0,0.0,0.0,0.0,0.0,0.0,0.0,0.0,0.0,0.0,0.0,0.0,0.0,0.0,2.6932,2.6932,2.6932,2.6932,2.6932,2.7182,2.7713,2.8698,2.8953,2.9303,2.9804,0.0,0.0,0.0,0.0,0.0,0.0,2.6653,2.7079,2.7419,2.8289,2.8318,0.0,0.0,0.0,2.5529,0.0,0.0,2.5268,0.0,0.0,0.0,0.0,0.0,0.0,0.0,0.0,0.0,0.0,0.0,0.0,0.0,0.0,0.0,2.5371,0.0,0.0,0.0,2.6873,2.7888,2.7188,0.0,2.8161,0.0,0.0,0.0,0.0,0.0,0.0,0.0,0.0,0.0,0.0,0.0,0.0,0.0,0.0,0.0,0.0,0.0,0.0,0.0,0.0,0.0,2.9528,2.9503,2.9307,2.8872,2.8584,2.8168,2.756,2.7103,2.667,2.6212,2.5865,2.5328,2.4567,2.4235,2.3989,2.3838,2.3351,2.368,2.4493,2.4301,2.3887,2.3341,2.3166,2.3101,2.3101,2.3101,2.3101,2.3101,0.0,0.0,0.0,0.0,0.0,0.0,0.0,0.0,0.0,0.0,0.0,0.0,0.0,0.0,0.0,2.8409,2.8409,2.8409,2.8409,2.7722,2.7945,2.934,2.8764,2.8842,2.975,0.0,0.0,0.0,0.0,0.0,0.0,0.0,2.6837,2.6749,2.6749,2.7084,2.7608,0.0,2.6778,2.6778,0.0,2.5849,2.6081,0.0,0.0,0.0,2.8448,2.8274,0.0,0.0,0.0,0.0,0.0,0.0,0.0,0.0,0.0,0.0,0.0,0.0,0.0,0.0,0.0,0.0,2.6512,0.0,2.7391,0.0,0.0,0.0,0.0,0.0,0.0,0.0,0.0,0.0,0.0,0.0,0.0,0.0,0.0,0.0,0.0,0.0,0.0,0.0,2.9754,2.9503,2.8907,2.8863,2.8519,2.7804,2.7391,2.7168,2.7149,2.6925,2.6151,2.4843,2.5352,2.4465,2.2401,2.2894,2.2412,2.123,2.168,2.2849,2.436,2.3454,2.3081,2.3101,2.3101,2.3101,2.3101,2.3101,2.3101,2.3101,0.0,0.0,0.0,0.0,0.0,0.0,0.0,0.0,0.0,0.0,0.0,0.0,0.0,0.0,2.8409,2.8409,2.8409,2.8409,2.8409,2.821,2.8508,2.9373,2.9208,2.9139,2.9154,0.0,0.0,0.0,0.0,0.0,0.0,0.0,0.0,0.0,2.5346,2.5707,2.63,2.6139,0.0,0.0,2.6778,2.7082,0.0,0.0,0.0,0.0,0.0,2.8173,0.0,0.0,2.7161,2.658,0.0,0.0,0.0,0.0,0.0,0.0,2.418,0.0,0.0,0.0,0.0,0.0,2.5375,2.548,2.5954,0.0,0.0,0.0,0.0,0.0,0.0,0.0,0.0,0.0,0.0,0.0,0.0,0.0,0.0,0.0,0.0,0.0,0.0,0.0,2.8574,2.8499,2.8329,2.8052,2.7811,2.7582,2.6822,2.6126,2.5546,2.5098,2.4421,2.3527,2.3078,2.2565,2.1943,2.1526,2.1293,2.121,2.1347,2.1862,2.2623,2.2644,2.2849,2.3101,2.3101,2.3101,2.3101,2.3101,2.3101,2.3013,0.0,0.0,0.0,0.0,0.0,0.0,0.0,0.0,0.0,0.0,0.0,0.0,0.0,0.0,0.0,2.9284,2.9294,2.9294,2.9294,2.8996,2.9118,2.9837,2.9572,2.9283,2.8993,0.0,0.0,0.0,0.0,0.0,0.0,0.0,0.0,0.0,0.0,0.0,0.0,0.0,0.0,0.0,2.7229,0.0,0.0,2.8753,2.9232,0.0,0.0,0.0,2.9624,2.8154,2.6904,0.0,0.0,0.0,0.0,0.0,0.0,0.0,0.0,0.0,0.0,0.0,0.0,0.0,2.4187,2.4164,2.4433,0.0,2.5699,0.0,0.0,0.0,0.0,0.0,0.0,0.0,0.0,0.0,0.0,0.0,0.0,0.0,0.0,2.777,2.7871,2.8097,2.8097,2.7996,2.777,2.7167,2.6826,2.6826,2.6148,2.5396,2.4563,2.4269,2.3562,2.2491,2.2021,2.1603,2.128,2.0818,2.0723,2.0957,2.0957,2.1211,2.1641,2.1854,2.2323,2.2849,2.2849,2.2945,2.3101,2.3101,2.284,2.2444,0.0,0.0,0.0,0.0,0.0,0.0,0.0,0.0,0.0,0.0,0.0,0.0,0.0,0.0,0.0,0.0,3.0588,3.0522,3.0621,2.9926,0.0,0.0,2.9788,0.0,0.0,0.0,0.0,0.0,0.0,0.0,0.0,0.0,0.0,0.0,0.0,0.0,0.0,0.0,0.0,2.6836,2.7477,2.8173,0.0,0.0,3.1377,0.0,3.1386,3.1368,3.0966,2.8447,2.6385,0.0,0.0,0.0,0.0,0.0,2.2383,0.0,0.0,0.0,0.0,0.0,0.0,0.0,2.3212,2.3196,2.32,2.32,2.401,0.0,0.0,0.0,0.0,0.0,0.0,0.0,0.0,0.0,0.0,0.0,0.0,0.0,2.706,2.711,2.7293,2.7795,2.7752,2.7483,2.7007,2.6159,2.5693,2.5655,2.528,2.4696,2.3854,2.3836,2.3102,2.1661,2.1661,2.1299,2.0605,2.0605,2.0605,2.0605,2.0605,2.0801,2.1112,2.1032,2.1535,2.2351,2.2477,2.2603,2.2796,2.2884,2.2356,2.1516,0.0,0.0,0.0,0.0,0.0,0.0,0.0,0.0,0.0,0.0,0.0,0.0,0.0,0.0,0.0,0.0,3.1205,3.0754,3.135,3.0688,3.0167,2.9946,0.0,0.0,0.0,0.0,0.0,0.0,0.0,0.0,0.0,0.0,0.0,0.0,0.0,0.0,0.0,0.0,0.0,2.6836,2.7477,0.0,3.0205,3.003,3.0533,3.1293,3.0785,3.0552,3.0149,0.0,2.6343,2.4778,0.0,0.0,0.0,0.0,0.0,0.0,0.0,0.0,0.0,0.0,0.0,0.0,2.3317,2.3557,2.3912,0.0,2.4045,0.0,0.0,0.0,0.0,0.0,0.0,0.0,0.0,0.0,0.0,0.0,0.0,0.0,2.5912,2.5912,2.5979,2.6088,2.5594,2.5186,2.4913,2.4557,2.4275,2.4055,2.3869,2.3271,2.2245,2.2247,2.1775,2.0818,2.0818,2.076,2.0605,2.0605,2.0605,2.0605,2.0605,2.0625,2.0644,1.9956,2.0346,2.1453,2.2202,2.1783,2.0872,2.1672,2.1342,2.0353,0.0,0.0,0.0,0.0,0.0,0.0,0.0,0.0,0.0,0.0,0.0,0.0,0.0,0.0,0.0,0.0,0.0,0.0,0.0,0.0,0.0,0.0,0.0,0.0,0.0,0.0,0.0,0.0,0.0,0.0,0.0,0.0,0.0,0.0,0.0,0.0,0.0,0.0,2.6487,2.6894,2.781,0.0,2.9654,3.0221,3.0801,3.125,3.0896,3.0093,2.9042,2.7644,2.6301,0.0,0.0,2.3788,2.3562,0.0,2.3336,2.3095,0.0,0.0,0.0,2.3095,0.0,0.0,0.0,2.2363,2.248,2.2748,2.2781,2.2924,2.3461,0.0,0.0,0.0,0.0,0.0,0.0,0.0,0.0,0.0,0.0,0.0,2.5193,2.5193,2.516,2.5094,2.4788,2.4508,2.4304,2.4107,2.379,2.3333,2.3127,2.2439,2.1146,2.1167,2.0864,2.0253,2.0253,2.0371,2.0605,2.0605,2.0605,2.0586,2.0137,1.9961,1.9883,1.9015,1.8833,1.9273,2.0364,2.0493,2.0073,2.0712,2.024,1.9216,0.0,0.0,0.0,0.0,0.0,0.0,0.0,0.0,0.0,0.0,0.0,0.0,0.0,0.0,0.0,0.0,0.0,0.0,0.0,0.0,0.0,0.0,3.0015,2.9065,0.0,0.0,0.0,0.0,0.0,0.0,0.0,0.0,0.0,0.0,0.0,0.0,0.0,0.0,0.0,2.7068,0.0,2.8756,2.8951,3.0556,3.1131,3.105,3.0645,2.9487,2.798,2.7163,0.0,2.5435,2.4456,2.4079,0.0,0.0,0.0,0.0,0.0,0.0,0.0,0.0,0.0,2.192,0.0,0.0,0.0,2.1543,2.1644,0.0,0.0,0.0,0.0,0.0,0.0,0.0,0.0,0.0,0.0,0.0,0.0,0.0,0.0,2.4641,2.4536,2.4259,2.4218,2.4073,2.3709,2.3546,2.311,2.2394,2.2207,2.1532,2.0285,2.0267,2.0131,1.9903,1.9903,2.0137,2.0605,2.0605,2.0508,2.0313,1.9627,1.9193,1.8975,1.8118,1.7454,1.7175,1.8514,1.909,1.9218,1.9613,1.9055,1.8033,3.0489,3.0489,0.0,0.0,0.0,0.0,0.0,0.0,0.0,0.0,0.0,0.0,0.0,0.0,0.0,0.0,0.0,0.0,3.5512,0.0,0.0,0.0,0.0,0.0,2.7143,0.0,0.0,0.0,0.0,0.0,0.0,0.0,0.0,0.0,2.6429,0.0,0.0,0.0,2.7113,0.0,2.839,2.9015,0.0,3.0315,3.0522,3.0246,2.8934,2.7994,2.7384,0.0,2.65,2.5485,0.0,2.4365,0.0,0.0,0.0,0.0,0.0,0.0,0.0,0.0,2.3411,0.0,0.0,0.0,2.2146,2.2196,0.0,0.0,0.0,0.0,0.0,0.0,0.0,0.0,0.0,0.0,0.0,0.0,0.0,0.0,0.0,2.4079,2.3754,2.2988,2.2908,2.2482,2.1515,2.1451,2.1004,2.0099,2.0051,1.9839,1.9441,1.9441,1.9584,1.9903,1.9903,2.0137,2.0605,2.0605,2.0177,1.9431,1.9332,1.8856,1.8078,1.7208,1.671,1.6635,1.8176,1.7991,1.6978,1.7919,1.7623,1.6777,3.0489,3.0489,0.0,0.0,0.0,0.0,0.0,0.0,0.0,0.0,0.0,0.0,0.0,0.0,0.0,0.0,0.0,3.5015,0.0,0.0,0.0,0.0,0.0,0.0,0.0,0.0,0.0,0.0,2.5994,0.0,0.0,0.0,0.0,0.0,2.6662,0.0,2.6807,0.0,0.0,0.0,0.0,0.0,0.0,2.96,2.948,2.8904,2.7954,2.7487,2.7211,0.0,2.6231,0.0,0.0,0.0,0.0,0.0,0.0,0.0,0.0,0.0,0.0,0.0,0.0,0.0,0.0,0.0,2.192,0.0,0.0,0.0,0.0,0.0,0.0,0.0,2.2357,0.0,0.0,0.0,0.0,0.0,0.0,0.0,0.0,0.0,0.0,0.0,2.2235,2.1698,2.1123,2.0725,2.0134,1.9334,1.93,1.9045,1.8555,1.8555,1.8887,1.9551,1.9551,1.9921,2.0586,2.0079,1.9648,1.9233,1.8218,1.7513,1.7,1.6118,1.5622,1.548,1.6206,1.6309,1.6106,1.6664,1.6677,1.6258,0.0,0.0,0.0,0.0,0.0,0.0,0.0,0.0,0.0,0.0,0.0,0.0,3.6274,3.6671,0.0,0.0,0.0,3.6708,0.0,0.0,3.3027,0.0,0.0,0.0,0.0,0.0,0.0,0.0,0.0,0.0,0.0,0.0,0.0,0.0,0.0,2.7055,2.7042,0.0,0.0,2.7939,2.7689,2.7888,2.8337,2.8671,2.8325,2.7595,2.7211,2.7085,2.6959,2.613,2.6147,0.0,2.5335,0.0,0.0,0.0,0.0,0.0,2.3145,0.0,0.0,0.0,0.0,0.0,0.0,0.0,0.0,0.0,0.0,0.0,0.0,0.0,0.0,0.0,0.0,2.2289,0.0,0.0,0.0,0.0,0.0,0.0,0.0,0.0,0.0,2.2399,2.1641,2.108,2.0837,2.0177,1.9474,1.8744,1.8727,1.8496,1.7991,1.7991,1.8437,1.9315,1.916,1.9458,2.0082,1.9401,1.8872,1.8378,1.7139,1.6407,1.5989,1.5284,1.4845,1.4629,1.4715,1.4859,1.507,1.5677,1.5811,1.5557,3.0489,3.0489,0.0,0.0,0.0,0.0,0.0,0.0,0.0,0.0,0.0,0.0,0.0,0.0,0.0,0.0,0.0,3.8576,3.9347,0.0,3.2471,0.0,0.0,2.8556,0.0,0.0,0.0,0.0,0.0,0.0,0.0,0.0,0.0,0.0,0.0,2.7666,2.7684,2.7612,2.7957,2.8501,2.7872,2.7579,2.7528,0.0,2.7146,2.6549,2.6524,0.0,0.0,2.6474,2.6474,0.0,0.0,0.0,0.0,0.0,0.0,0.0,0.0,0.0,0.0,2.3371,0.0,0.0,0.0,0.0,2.3045,0.0,0.0,0.0,0.0,0.0,0.0,0.0,0.0,0.0,0.0,0.0,0.0,0.0,0.0,0.0,0.0,0.0,0.0,2.1618,2.1005,2.0479,2.0155,1.9441,1.8727,1.8059,1.8025,1.8025,1.7991,1.7991,1.8437,1.9296,1.8849,1.8703,1.884,1.8686,1.7761,1.6305,1.6388,1.5927,1.5131,1.4824,1.4594,1.4412,1.4405,1.3913,1.3368,1.4881,1.4969,1.4328,0.0,0.0,0.0,0.0,0.0,0.0,0.0,3.3735,0.0,0.0,0.0,0.0,0.0,0.0,4.3179,0.0,0.0,4.0139,3.9469,3.6208,0.0,0.0,0.0,2.9554,0.0,0.0,0.0,0.0,0.0,0.0,0.0,0.0,0.0,0.0,0.0,2.7031,0.0,0.0,0.0,0.0,0.0,2.7248,2.685,0.0,0.0,2.6499,2.6499,2.6499,0.0,2.6499,2.6499,2.6399,2.5804,2.5218,2.4691,2.4155,2.3712,0.0,0.0,0.0,2.4064,2.3296,0.0,0.0,0.0,0.0,0.0,0.0,0.0,0.0,0.0,0.0,0.0,0.0,0.0,0.0,0.0,0.0,0.0,0.0,0.0,0.0,0.0,0.0,0.0,2.0089,1.9529,1.9028,1.8595,1.8422,1.8245,1.8008,1.7991,1.7991,1.7991,1.7991,1.8041,1.8113,1.7964,1.7899,1.7898,1.7159,1.6636,1.6296,1.5578,1.5033,1.4636,1.4552,1.4384,1.4145,1.3519,1.32,1.3165,1.3681,1.3463,1.2766,3.1615,0.0,0.0,0.0,0.0,0.0,0.0,0.0,0.0,0.0,4.0594,0.0,4.4471,0.0,4.5357,0.0,4.3394,4.1388,3.9208,3.6517,0.0,3.2586,3.1361,0.0,0.0,0.0,0.0,0.0,0.0,2.6997,0.0,0.0,0.0,0.0,0.0,2.675,2.6721,0.0,2.6868,0.0,0.0,2.6901,0.0,0.0,2.6499,2.6499,0.0,2.6499,2.6499,2.6499,2.6499,2.6399,2.5804,2.5218,2.4691,2.4155,2.3587,2.3095,2.3095,2.3537,0.0,2.3246,2.3562,0.0,2.3246,0.0,0.0,0.0,0.0,0.0,0.0,0.0,0.0,0.0,0.0,0.0,0.0,1.8936,0.0,0.0,0.0,0.0,0.0,0.0,1.9453,1.8963,1.8538,1.8134,0.0,0.0,1.7852,1.8008,1.7991,1.7991,1.7991,1.7733,1.7563,1.7495,1.7063,1.682,1.6724,1.5999,1.5648,1.5602,1.4893,1.4517,1.4391,1.4321,1.4026,1.354,1.2945,1.2398,1.2025,1.2467,1.2126,1.1242,0.0,0.0,0.0,0.0,3.2299,0.0,0.0,0.0,3.9348,0.0,4.2038,4.4143,4.5002,4.628,4.6782,4.5922,4.4618,0.0,3.874,3.6436,0.0,0.0,3.1201,3.0469,2.9682,0.0,0.0,0.0,0.0,0.0,0.0,0.0,0.0,0.0,2.6763,0.0,2.6707,2.6687,2.6677,2.6681,2.6561,2.6499,2.6499,2.6499,2.6499,2.6499,2.6499,2.6499,2.6499,2.6499,2.6499,2.6399,2.5804,2.5218,2.4691,2.4155,2.3587,2.312,2.3145,2.3537,2.3813,2.3271,0.0,0.0,0.0,0.0,2.3782,0.0,0.0,0.0,0.0,0.0,0.0,0.0,0.0,0.0,0.0,0.0,0.0,0.0,0.0,0.0,0.0,1.9028,1.8701,1.8222,1.7946,1.7785,0.0,0.0,1.7578,1.7991,1.7957,1.7957,1.7957,1.72,1.7021,1.7333,1.6174,1.5515,1.5288,1.5165,1.4801,1.4279,1.4338,1.4378,1.4308,1.4131,1.3498,1.2665,1.2592,1.1435,0.997,1.1178,1.0895,0.9777,3.2431,3.2862,3.3226,0.0,3.3403,3.3569,0.0,0.0,0.0,0.0,4.5037,4.7769,5.0171,5.0177,4.9538,4.8241,4.5859,0.0,0.0,0.0,0.0,3.328,3.1999,3.1004,3.035,2.9697,0.0,2.8201,0.0,0.0,2.7463,0.0,0.0,0.0,0.0,0.0,2.545,2.6219,2.6561,2.6544,2.6509,2.6499,0.0,0.0,2.6499,2.6499,2.6499,2.6499,2.6499,2.6499,2.6499,2.6399,2.5804,2.5218,2.4691,2.4155,2.3587,2.3195,2.3637,2.3562,2.3396,2.3703,2.3562,2.3296,0.0,0.0,0.0,0.0,0.0,0.0,0.0,0.0,0.0,0.0,0.0,0.0,0.0,0.0,0.0,1.8751,0.0,0.0,1.9059,1.8301,1.7394,1.6567,1.6599,1.6438,1.6039,0.0,0.0,1.7991,1.7476,1.7182,1.7182,1.6385,1.57,1.5121,1.4808,1.4399,1.3901,1.3919,1.3859,1.3732,1.4041,1.3911,1.3487,1.3184,1.2801,1.2287,1.1091,0.9811,0.8684,0.9011,0.8918,0.8573,3.3171,0.0,0.0,3.4717,0.0,0.0,3.6187,0.0,0.0,4.3216,4.6163,0.0,5.0304,5.0573,5.0071,4.8648,4.5551,0.0,0.0,0.0,0.0,3.368,3.2531,3.1526,3.0627,2.9958,0.0,2.7853,0.0,0.0,2.6895,0.0,0.0,0.0,0.0,2.4842,2.4603,2.5427,2.603,2.6499,2.6499,0.0,0.0,2.6499,2.6499,2.6499,2.6499,2.6499,2.6499,2.6499,2.6499,2.6348,2.5511,2.5042,2.4641,2.3838,2.3371,2.3221,2.3853,2.3738,2.3587,2.3929,2.3738,2.3421,2.317,2.3325,2.3299,0.0,0.0,0.0,0.0,0.0,0.0,0.0,0.0,0.0,0.0,0.0,0.0,0.0,1.7274,0.0,1.8253,1.7689,1.6766,1.5584,1.6147,1.622,0.0,0.0,0.0,1.7293,1.717,1.6824,1.6222,1.561,1.4977,1.431,1.3876,1.3542,1.3236,1.3424,1.3443,1.3385,1.3373,1.3103,1.2617,1.2084,1.1577,1.1035,0.9684,0.8771,0.8179,0.7959,0.79,0.7804,0.0,0.0,0.0,0.0,0.0,0.0,0.0,4.0042,0.0,4.3545,0.0,4.82,4.8001,4.8967,4.9037,4.7567,0.0,4.0988,3.8067,3.6523,3.5073,3.3678,3.2977,3.2019,3.0743,3.0074,0.0,0.0,0.0,0.0,0.0,0.0,0.0,0.0,0.0,0.0,0.0,2.4643,2.541,2.6399,2.6474,2.6499,2.6499,2.6499,2.6499,2.6474,2.6399,2.6424,2.6499,2.6499,2.6449,2.6197,2.5118,2.4766,2.449,2.3421,2.3095,2.3221,2.3853,2.3954,2.3904,2.3979,2.3929,2.3738,2.3221,2.3015,2.2848,2.2736,2.2267,2.1834,0.0,0.0,0.0,0.0,0.0,0.0,0.0,0.0,0.0,0.0,0.0,0.0,1.7132,1.7004,1.6382,1.5099,1.6021,1.6232,0.0,0.0,0.0,1.634,1.6859,1.6528,1.5223,0.0,1.4421,1.4173,1.3273,1.2885,1.292,1.3258,1.3224,1.289,1.2525,1.2111,1.1667,1.0915,1.0152,0.9349,0.8444,0.8081,0.8016,0.7467,0.7261,0.7143,0.0,0.0,0.0,0.0,0.0,3.9905,4.1684,4.4023,4.5511,4.5358,4.7911,4.926,4.8061,4.7491,4.6672,4.5303,4.2804,0.0,0.0,0.0,0.0,3.4283,3.3661,3.2703,3.1365,3.0757,2.974,0.0,0.0,0.0,0.0,0.0,0.0,0.0,0.0,0.0,2.4675,2.4764,0.0,2.5804,2.6298,2.6499,2.6499,2.6499,2.6499,2.6424,2.5929,2.608,2.6499,2.6499,2.6172,2.5653,2.4992,2.449,2.3988,2.3296,2.3095,2.3221,2.3853,2.3637,2.3371,2.3879,2.3612,2.3221,2.3105,2.3015,2.2848,2.2736,2.2485,2.2244,2.2115,0.0,0.0,0.0,0.0,0.0,0.0,0.0,0.0,0.0,0.0,1.6463,0.0,1.5797,1.529,1.5018,1.4767,0.0,0.0,0.0,0.0,0.0,1.5859,0.0,0.0,0.0,1.3335,1.3553,1.2945,1.2571,1.2422,1.2768,1.2387,1.1495,1.1875,1.137,1.0237,0.9827,0.901,0.8003,0.7668,0.7514,0.7347,0.643,0.6069,0.5996,0.0,0.0,0.0,0.0,0.0,0.0,0.0,4.5404,0.0,4.478,4.5786,4.6432,4.5688,4.5782,4.5529,4.4534,4.1607,3.9239,3.7834,3.6026,3.485,3.4412,3.3499,0.0,3.151,3.0263,2.9305,2.8695,0.0,0.0,0.0,0.0,0.0,0.0,0.0,2.3838,0.0,0.0,0.0,2.5636,2.6273,2.6499,2.6499,2.6499,2.6298,2.6005,2.5686,2.5611,2.5628,2.5628,2.5611,2.546,2.4657,2.4205,2.3879,2.3271,2.3095,2.3221,2.3853,2.3562,2.3246,2.3853,2.3562,2.3065,2.3015,2.2894,2.2742,2.2574,2.2405,2.2194,2.1852,2.1572,0.0,0.0,0.0,0.0,0.0,0.0,0.0,0.0,0.0,0.0,0.0,0.0,0.0,0.0,0.0,0.0,0.0,0.0,0.0,0.0,0.0,0.0,0.0,0.0,0.0,1.3203,1.268,1.2255,1.1891,1.2163,1.168,1.0628,1.0654,1.0183,0.9387,0.8666,0.7971,0.7395,0.7361,0.7006,0.6469,0.5931,0.5115,0.4243,0.0,3.8058,0.0,0.0,4.1115,0.0,4.3821,4.5329,4.5743,4.4163,4.3957,4.3823,4.3434,4.4127,4.4336,4.3628,4.0412,3.808,3.7436,3.552,3.4382,3.4382,3.3425,3.2468,3.151,2.9797,2.8698,0.0,0.0,0.0,0.0,0.0,0.0,0.0,0.0,0.0,0.0,0.0,2.5042,2.5485,2.6223,2.6499,2.6491,2.6348,2.6005,2.5561,2.5335,2.5059,2.475,2.4515,2.4716,2.4933,2.4079,2.3728,2.3552,2.307,2.302,2.3195,2.3662,2.3461,2.3221,2.3687,2.3461,2.3075,2.2924,2.2787,2.2644,2.2436,2.2282,2.2029,2.15,2.15,0.0,0.0,0.0,0.0,0.0,0.0,0.0,0.0,0.0,0.0,0.0,0.0,0.0,0.0,0.0,0.0,0.0,0.0,0.0,0.0,0.0,1.3565,1.2369,0.0,1.2791,1.3094,1.2438,1.1923,1.1561,1.15,1.092,0.992,0.9487,0.9049,0.8548,0.7604,0.7138,0.6989,0.6868,0.635,0.5635,0.5195,0.4098,0.2777,0.0,0.0,0.0,0.0,0.0,0.0,0.0,4.3778,4.4871,4.5341,4.5403,4.4791,4.3239,4.2643,4.2049,4.1191,3.8999,3.7407,3.6746,3.524,3.4382,3.4382,3.4295,3.3367,3.1539,3.0267,2.8729,0.0,0.0,0.0,0.0,0.0,0.0,0.0,0.0,0.0,0.0,2.4324,2.4842,2.4967,2.6055,2.6499,2.6424,2.5904,2.5653,2.546,2.4506,2.4431,2.4641,2.3622,2.3296,2.3321,2.3221,2.2844,2.2433,2.2383,2.2734,2.312,2.317,2.3145,2.3105,2.317,2.3145,2.3075,2.2924,2.2787,2.2644,2.2436,2.2282,2.2029,2.15,2.1789,2.1789,0.0,0.0,0.0,0.0,0.0,0.0,0.0,0.0,0.0,0.0,1.4138,0.0,0.0,0.0,0.0,0.0,0.0,0.0,1.2771,0.0,1.3211,1.2845,1.2498,1.2717,1.3428,1.2183,1.1651,1.1746,1.0774,0.991,0.9104,0.9064,0.8413,0.7339,0.6875,0.6662,0.6541,0.5585,0.5279,0.5152,0.3492,0.273,0.2419,0.0,0.0,0.0,0.0,0.0,0.0,0.0,4.3485,4.3666,4.3838,4.4066,4.3765,4.2585,4.211,4.1342,4.0137,3.8435,3.7139,3.6451,3.516,3.4382,3.4382,3.4051,3.3296,3.2119,3.0133,2.8708,0.0,0.0,0.0,0.0,0.0,0.0,0.0,0.0,2.3095,2.3145,2.3963,2.4315,2.4406,2.5159,2.5485,2.546,2.5209,2.4933,2.4582,2.4155,2.3929,2.3722,2.3246,2.3346,2.3587,2.3221,2.2945,2.2769,2.2769,2.292,2.3095,2.3095,2.3095,2.3095,2.3095,2.3045,2.2939,2.2802,2.2635,2.2466,2.2297,2.2244,2.2125,2.1909,2.2053,2.2053,0.0,0.0,0.0,0.0,0.0,0.0,0.0,0.0,0.0,0.0,0.0,0.0,0.0,0.0,0.0,0.0,0.0,0.0,1.2254,0.0,1.2558,1.2415,1.2339,1.2299,1.2285,1.1878,1.1218,1.0343,0.9958,0.9216,0.8226,0.8226,0.7688,0.6834,0.666,0.6228,0.5607,0.5294,0.4568,0.3598,0.2815,0.2157,0.1459,4.1557,0.0,4.1358,0.0,4.2484,4.221,4.3339,4.31,4.2674,4.2514,4.2674,4.2664,4.2248,4.1686,4.0891,3.976,3.8034,3.6809,3.6326,3.5125,3.4382,3.4382,3.3623,0.0,3.2207,2.9679,2.8281,2.8115,2.5776,0.0,0.0,0.0,0.0,0.0,2.3095,2.3095,2.3145,2.3738,2.4004,2.4054,2.4591,2.4816,2.4791,2.4616,2.433,2.3979,2.3788,2.3461,2.3095,2.3095,2.3371,2.3637,2.3045,2.2869,2.2869,2.2869,2.297,2.3095,2.3095,2.3095,2.3095,2.3095,2.3015,2.2848,2.2736,2.2528,2.2359,2.2244,2.2197,2.2197,2.2197,2.2197,2.2197,2.2197,0.0,0.0,0.0,0.0,0.0,0.0,1.5944,1.4993,1.5123,0.0,0.0,0.0,0.0,0.0,0.0,0.0,0.0,0.0,0.0,0.0,0.0,1.2075,1.1872,1.1585,1.131,1.0613,0.9539,0.9202,0.8543,0.7687,0.7517,0.7113,0.6602,0.6544,0.5905,0.4999,0.4884,0.3888,0.2467,0.2188,0.1372,0.0226,4.2153,4.2285,4.2492,4.3188,4.328,4.307,4.253,4.2216,4.2079,4.2011,4.1834,4.1881,4.2345,4.1271,4.0402,4.0109,3.7767,3.6315,3.6315,3.5125,3.4382,0.0,0.0,3.2134,3.1509,2.8961,2.7315,2.6731,0.0,0.0,2.402,0.0,2.312,2.3095,2.3095,2.3095,2.3145,2.3738,2.4004,2.4054,2.4591,2.4816,2.4741,2.4205,2.4004,2.3929,2.3321,2.312,2.3095,2.3095,2.3105,2.302,2.2483,2.2307,2.2307,2.2307,2.2669,2.3095,2.3095,2.3095,2.3095,2.3095,2.3015,2.2848,2.2736,2.2528,2.2359,2.2244,2.2197,2.2197,2.2197,2.2197,2.2197,2.2197,0.0,0.0,0.0,0.0,0.0,0.0,1.5216,1.4478,1.4971,0.0,0.0,0.0,0.0,0.0,0.0,0.0,0.0,1.1696,1.1508,0.0,1.2291,1.1701,1.1527,1.1774,1.0398,0.9776,0.9845,0.8515,0.7837,0.7658,0.7071,0.6733,0.6583,0.6396,0.5792,0.493,0.4134,0.3207,0.2215,0.1401,0.0113,-0.1269,4.1354,4.1297,4.1341,4.1556,4.1606,4.1478,4.1165,4.1057,4.096,4.0724,4.0646,4.0674,4.0818,4.0616,3.9857,0.0,3.7041,3.6141,0.0,3.4864,3.3994,3.3078,3.2631,3.1702,3.0174,2.8465,2.7098,2.6107,0.0,0.0,0.0,2.3788,2.3487,2.3095,2.3095,2.3095,2.312,2.3296,2.3386,2.3396,2.3572,2.3647,2.3622,2.3446,2.3386,2.3346,2.317,2.3095,2.3095,2.3095,2.3095,2.307,2.2895,2.2844,2.2935,2.3351,2.3286,2.3195,2.3612,2.3396,2.3095,2.3095,2.2924,2.2766,2.272,2.2451,2.2259,2.2213,2.2197,2.2197,2.2197,2.2197,2.2034,2.1526,2.1234,0.0,0.0,0.0,0.0,0.0,1.5279,1.4634,0.0,1.3238,0.0,0.0,0.0,0.0,0.0,0.0,0.0,0.0,1.1873,0.0,1.1695,1.1688,1.1121,1.0029,0.991,0.9443,0.8719,0.8299,0.781,0.7274,0.7079,0.6765,0.6345,0.5692,0.4928,0.4086,0.3149,0.2222,0.1351,0.0823,-0.0135,-0.1293,4.1015,4.0849,4.0811,4.0811,4.0811,4.0664,4.0294,3.9963,3.9808,3.9877,3.9596,3.9479,3.9741,3.9683,0.0,3.7738,3.6838,3.6025,3.545,3.4562,3.3564,3.2433,3.1713,3.0614,2.9124,0.0,0.0,2.6055,2.5219,2.4415,2.3662,2.3662,2.3461,2.3095,2.3095,2.3095,2.3095,2.3095,2.3095,2.3095,2.3095,2.3095,2.3095,2.3095,2.3095,2.3095,2.3095,2.3095,2.3095,2.3095,2.3095,2.3095,2.3095,2.3095,2.317,2.3562,2.3411,2.317,2.3562,2.3386,2.3095,2.3095,2.2939,2.2726,2.2604,2.2398,2.2197,2.2197,2.2197,2.2197,2.2197,2.1972,2.1636,2.1171,2.0661,1.9895,1.873,0.0,0.0,0.0,0.0,0.0,0.0,1.3221,1.257,0.0,0.0,0.0,0.0,0.0,0.0,1.2291,1.179,0.0,1.1551,1.1131,1.0388,0.9317,0.9383,0.899,0.8201,0.8043,0.7653,0.7088,0.6941,0.6658,0.6229,0.5357,0.452,0.3706,0.2693,0.1723,0.0794,0.0089,-0.0855,-0.1998,4.0904,4.0769,0.0,0.0,4.0605,0.0,3.9791,3.9052,3.8764,3.9349,3.8712,3.8434,3.9015,3.8522,3.8115,3.7999,0.0,0.0,0.0,3.4146,3.3078,3.2213,3.0437,2.9107,2.8298,2.7105,2.6474,2.6424,2.5335,2.4224,2.317,2.317,2.3145,2.3095,2.3095,2.3095,2.3095,2.3095,2.3095,2.3095,2.3095,2.3095,2.3095,2.3095,2.3095,2.3095,2.3095,2.3095,2.3095,2.3095,2.3095,2.3095,2.3095,2.3095,2.312,2.3145,2.3145,2.312,2.3145,2.3145,2.312,2.3145,2.3049,2.2852,2.2482,2.2297,2.2197,2.2197,2.2197,2.2197,2.2197,2.1588,2.1076,2.1044,1.9879,1.8779,1.8181,0.0,0.0,0.0,0.0,0.0,0.0,1.3395,1.277,0.0,0.0,0.0,0.0,0.0,1.2069,1.2318,1.1428,1.1192,1.1738,1.0243,0.948,0.9435,0.8848,0.8428,0.8171,0.7763,0.7387,0.706,0.666,0.6436,0.6249,0.5308,0.4465,0.3686,0.2607,0.1562,0.0538,-0.0672,-0.1924,-0.3129,0.0,0.0,3.8818,3.8818,3.8818,3.876,3.8614,3.8431,3.8335,3.8481,3.8327,3.8086,3.7796,3.7622,3.7128,3.613,3.5799,3.5073,3.3793,3.3446,3.2302,3.0147,2.9609,2.8604,2.6968,2.6653,2.6273,2.5829,2.5118,2.4465,2.3803,2.3803,2.3537,2.3095,2.3095,2.3095,2.3095,2.3095,2.3095,2.3095,2.3095,2.3095,2.3095,2.3095,2.3095,2.3095,2.3095,2.3095,2.3095,2.3095,2.3095,2.3095,2.3095,2.3095,2.3195,2.3637,2.3461,2.3195,2.3662,2.3461,2.3221,2.3662,2.3586,2.3182,2.2548,2.2297,2.2197,2.2197,2.2197,2.2197,2.2197,2.1588,2.0933,2.042,1.9486,1.8448,1.7356,1.6525,0.0,0.0,1.5234,1.4831,1.4469,1.3835,1.3235,0.0,0.0,0.0,0.0,1.2543,1.2628,1.2677,1.177,1.1229,1.1113,1.0031,0.9277,0.8808,0.847,0.8179,0.7959,0.7555,0.7161,0.6771,0.6579,0.6471,0.6331,0.4736,0.3937,0.3553,0.1764,0.0825,0.0314,-0.0874,-0.2,-0.3074,3.8477,3.8258,3.8202,3.8202,3.8202,3.8202,3.8202,3.7709,3.7447,3.7767,3.7273,3.6896,3.6867,3.6606,3.6159,3.545,3.5392,3.4675,3.2962,3.2601,3.1382,2.8996,2.8621,2.7859,2.6516,2.6499,2.6197,2.5586,2.531,2.4892,2.4365,2.4104,2.3828,2.3512,2.3221,2.3095,2.3095,2.3095,2.3095,2.3095,2.3095,2.3095,2.3095,2.3095,2.3095,2.3095,2.3095,2.3095,2.3095,2.3095,2.3095,2.3095,2.3095,2.3095,2.317,2.3487,2.3346,2.317,2.3512,2.3346,2.3155,2.342,2.3492,2.3322,2.2573,2.2297,2.2197,2.2197,2.2197,2.2197,2.2197,2.1352,2.05,2.0025,1.8874,1.7655,1.6627,1.622,0.0,1.5473,1.5101,1.4728,1.4363,1.3688,1.2986,1.2273,1.2272,0.0,1.2382,1.2505,1.2573,1.2573,1.1666,1.094,1.0454,0.9545,0.8875,0.8406,0.8266,0.8025,0.7694,0.7426,0.7112,0.6776,0.6641,0.6349,0.5846,0.4361,0.3471,0.2888,0.1222,0.0224,-0.0425,-0.1636,-0.271,-0.3678,3.8482,3.8315,3.8202,3.8202,3.8202,3.8173,3.8086,3.7157,3.6635,3.7099,3.6217,3.5694,3.6112,3.5694,3.5328,3.5091,3.5074,3.4278,3.2353,3.1634,3.0368,2.8308,2.7728,2.7181,2.6516,2.6499,2.6248,2.5753,2.5753,2.546,2.4917,2.4365,2.4079,2.3979,2.3371,2.3095,2.3095,2.3095,2.3095,2.3095,2.3095,2.3095,2.3095,2.3095,2.3095,2.3095,2.3095,2.3095,2.3095,2.3095,2.3095,2.3095,2.3095,2.3095,2.3095,2.3095,2.3095,2.3095,2.3095,2.3221,2.3275,2.2989,2.3297,2.3452,2.2597,2.2297,2.2228,2.2197,2.212,2.2018,2.2018,2.0869,1.9884,1.9678,1.8193,1.6815,1.6094,0.0,1.5745,1.5237,1.489,1.453,1.4123,1.3449,1.2653,1.1672,1.2377,1.265,1.2176,1.2253,1.2242,1.2144,1.1235,1.038,0.9658,0.8911,0.8406,0.8157,0.8113,0.79,0.7503,0.7318,0.7118,0.6876,0.6616,0.6017,0.5178,0.3974,0.2996,0.2095,0.0867,-0.0224,-0.1297,-0.2462,-0.3492,-0.4433,3.8277,3.8221,3.8202,3.8202,3.8202,3.8028,3.7535,3.7273,3.6983,3.6519,3.6286,3.5996,3.5595,3.545,3.49,3.3638,3.3557,3.2951,3.1548,3.0753,2.9483,2.7549,2.7387,2.7056,2.6499,2.6499,2.6449,2.6348,2.6348,2.6055,2.546,2.4917,2.4415,2.3979,2.3371,2.3095,2.3095,2.3095,2.3095,2.3095,2.3095,2.3095,2.3095,2.3095,2.3095,2.3095,2.3095,2.3095,2.3095,2.3095,2.3095,2.3095,2.3095,2.3095,2.3095,2.3095,2.3095,2.3095,2.3095,2.3797,2.4267,2.3163,2.3663,2.4064,2.2725,2.2374,2.2328,2.2228,2.1706,2.1266,2.1266,2.0128,1.9127,1.8973,1.7836,1.6703,1.6094,0.0,1.5693,1.5622,1.5313,1.4949,1.4543,1.4045,1.3416,1.2639,1.2925,1.3213,1.332,1.2679,1.2033,1.1476,1.0542,0.9544,0.8478,0.8332,0.8157,0.7944,0.7724,0.7569,0.7481,0.713,0.6947,0.6855,0.5919,0.5367,0.4989,0.3243,0.2257,0.1782,0.0783,-0.0314,-0.1479,-0.2509,-0.3492,-0.4433,3.824,3.8202,3.8202,3.8202,3.8202,3.7999,3.7389,3.7302,3.707,3.6402,3.6025,3.5694,3.5421,3.5084,3.4399,3.3294,3.2844,3.1943,3.0343,2.9882,2.8834,2.6961,2.6876,2.6751,2.6499,2.6499,2.6499,2.6499,2.6499,2.6348,2.6055,2.5193,2.4666,2.439,2.3496,2.3095,2.3095,2.3095,2.3095,2.3095,2.3095,2.3095,2.3095,2.3095,2.3095,2.3095,2.3095,2.3095,2.3095,2.3095,2.3095,2.3095,2.3095,2.3095,2.3095,2.3095,2.3095,2.3095,2.3095,2.3722,2.4133,2.3138,2.3468,2.3712,2.2661,2.2328,2.2158,2.1698,2.1352,2.0981,2.0629,1.9721,1.8927,1.8677,1.7438,0.0,0.0,1.591,1.5845,1.6285,1.5652,1.5153,1.5178,1.4178,1.3325,1.2835,1.3173,1.3346,1.3233,1.2195,1.14,1.0928,0.9658,0.8719,0.8201,0.8091,0.7922,0.768,0.7547,0.7415,0.7275,0.7097,0.6736,0.6228,0.5616,0.4732,0.3612,0.249,0.1642,0.094,-0.0157,-0.1233,-0.233,-0.3291,-0.4283,-0.5257,3.7989,3.7883,3.7767,3.7767,3.7883,3.7796,3.7139,3.707,3.6838,3.617,3.5549,3.5189,3.5189,3.4536,3.3808,3.3003,3.2254,3.1028,2.914,2.9009,2.827,2.6584,2.6499,2.6499,2.6499,2.6499,2.6499,2.6499,2.6499,2.6499,2.6491,2.5335,2.4816,2.4766,2.3622,2.3095,2.3095,2.3095,2.3095,2.3095,2.3095,2.3095,2.3095,2.3095,2.3095,2.3095,2.3095,2.3095,2.3095,2.3095,2.3095,2.3095,2.3095,2.3095,2.3095,2.3095,2.3095,2.312,2.3271,2.3606,2.3785,2.3222,2.3306,2.3322,2.2573,2.2312,2.2034,2.1273,2.0981,2.0661,1.9966,1.9226,1.8593,1.8307,0.0,0.0,0.0,1.6175,1.623,1.6963,1.5962,1.5364,1.5669,1.4202,1.3134,1.2934,1.3299,1.3293,1.2728,1.1566,1.0626,0.9985,0.8763,0.8091,0.8047,0.7878,0.768,0.7415,0.7415,0.7304,0.7098,0.7098,0.6583,0.5675,0.5248,0.4042,0.235,0.1724,0.1008,0.0202,-0.0942,-0.2016,-0.3026,-0.3984,-0.5053,-0.607,3.7244,3.6867,3.6443,3.6443,3.6936,3.7139,3.6489,3.6356,3.6141,3.5566,3.4893,3.447,3.447,3.3756,3.2985,3.2254,3.1452,3.0203,2.8318,2.8188,2.7691,2.6549,2.6499,2.6499,2.6499,2.6499,2.6499,2.6499,2.6499,2.6499,2.6491,2.5335,2.4816,2.4766,2.3622,2.3095,2.3095,2.3095,2.3095,2.3095,2.3095,2.3095,2.3095,2.3095,2.3095,2.3095,2.3095,2.3095,2.3095,2.3095,2.3095,2.3095,2.3095,2.3095,2.3095,2.3095,2.3095,2.3221,2.3763,2.3829,2.3713,2.3648,2.3578,2.3322,2.2573,2.2389,2.2134,2.1266,2.0613,1.9949,1.9226,1.8375,1.775,1.7598,0.0,0.0,1.6833,1.6835,1.6982,1.7403,1.6387,1.5669,1.5685,1.4228,1.3274,1.3268,1.3368,1.3014,1.2107,1.1155,0.9854,0.8157,0.7988,0.7812,0.7547,0.7525,0.7393,0.7121,0.7121,0.7121,0.7098,0.7098,0.6583,0.563,0.451,0.3285,0.2037,0.0964,0.0314,-0.0067,-0.1032,-0.2016,-0.3032,-0.4089,-0.5252,-0.6431,3.7331,3.7081,3.6925,3.6925,3.6809,3.6733,3.6896,3.6577,3.6228,3.5996,3.5404,3.4808,3.4337,3.3624,3.2702,3.1471,3.1082,3.011,2.8209,2.8097,2.762,2.6549,2.6499,2.6499,2.6499,2.6499,2.6499,2.6499,2.6499,2.6499,2.6474,2.5661,2.5118,2.4791,2.4349,2.3963,2.3687,2.4014,2.3963,2.3662,2.3662,2.3421,2.3095,2.3095,2.3095,2.3095,2.3095,2.3095,2.3095,2.3095,2.3095,2.3095,2.3095,2.3095,2.3095,2.3095,2.3095,2.319,2.3673,2.3573,2.3299,2.3207,2.3109,2.2963,2.2914,2.2217,2.1469,2.1065,2.0128,1.921,1.8512,1.8022,1.7664,1.7512,0.0,1.704,1.7238,1.7275,1.7316,1.7425,1.6544,1.5783,1.5322,1.4221,1.349,1.3365,1.3404,1.2945,1.1864,1.0214,0.8719,0.7452,0.7408,0.743,0.7503,0.7326,0.7209,0.7098,0.7098,0.7098,0.7076,0.6495,0.5625,0.451,0.3307,0.2124,0.1008,0.0404,0.009,-0.0157,-0.1727,-0.2553,-0.3099,-0.4758,-0.5809,-0.6613,3.678,3.6548,3.6402,3.6402,3.6326,3.6402,3.6664,3.646,3.6139,3.5705,3.5112,3.4401,3.3637,3.2897,3.2046,3.1007,3.0696,2.9933,2.8442,2.8047,2.7462,2.6524,2.6499,2.6499,2.6499,2.6499,2.6499,2.6499,2.6499,2.6499,2.6474,2.5879,2.5293,2.4816,2.4816,2.449,2.4029,2.439,2.4415,2.423,2.3863,2.3587,2.3371,2.3371,2.3371,2.3396,2.3572,2.3521,2.3371,2.3371,2.3246,2.3095,2.3095,2.3095,2.3095,2.3095,2.3095,2.3165,2.3433,2.3274,2.309,2.3285,2.2803,2.2458,2.3069,2.194,2.0796,2.0825,1.9986,1.9002,1.8255,1.8058,1.7905,1.7653,1.7536,1.7582,1.7843,1.788,1.7783,1.7515,1.6712,1.5843,1.4997,1.4055,1.3455,1.3307,1.3222,1.2571,1.1209,0.9192,0.7753,0.7121,0.7098,0.7187,0.737,0.7187,0.7141,0.7188,0.7141,0.6963,0.6691,0.6002,0.4892,0.3419,0.2506,0.1455,0.0381,0.0112,-0.018,-0.0606,-0.2263,-0.3102,-0.3626,-0.5427,-0.6549,-0.7363,3.5421,3.4864,3.4412,3.4412,3.5473,3.6083,3.5508,3.5927,3.5787,3.4361,3.3635,3.2914,3.2164,3.1378,3.0895,3.0895,3.0235,2.9553,2.8913,2.7896,2.706,2.6524,2.6499,2.6499,2.6499,2.6499,2.6499,2.6499,2.6499,2.6499,2.6474,2.5879,2.5335,2.4816,2.4816,2.4515,2.4004,2.4029,2.4315,2.4716,2.3572,2.3487,2.4004,2.4004,2.4004,2.4079,2.4616,2.4465,2.4004,2.4004,2.3612,2.312,2.3095,2.3095,2.3095,2.3095,2.3095,2.3095,2.3095,2.3015,2.3136,2.405,2.2831,2.1729,2.2902,2.1588,2.0194,2.0624,2.0173,1.9437,1.8566,1.8571,1.8504,1.7893,1.7972,1.8247,1.8631,1.8705,1.8445,1.7785,1.6927,1.5944,1.4803,1.3717,1.3094,1.3094,1.2839,1.1853,0.9988,0.8119,0.7098,0.7098,0.7098,0.7098,0.7098,0.7098,0.7195,0.7389,0.7188,0.6675,0.5882,0.5746,0.4514,0.2486,0.2216,0.1433,0.0381,0.0112,-0.0561,-0.1503,-0.2511,-0.3558,-0.4669,-0.6011,-0.7393,-0.8811,3.6112,3.588,3.5862,3.6356,3.5601,3.5386,3.6548,3.5735,3.479,3.4276,3.3635,3.2702,3.1415,3.1044,3.0696,3.0177,2.9934,2.9377,2.8405,2.7688,2.706,2.6524,2.6499,2.6499,2.6499,2.6499,2.6499,2.6499,2.6499,2.6499,2.6499,2.6323,2.5929,2.5385,2.5804,2.5678,2.5134,2.5577,2.5603,2.5335,2.4992,2.4757,2.4566,2.4566,2.4566,2.4591,2.4741,2.4691,2.4566,2.4566,2.4189,2.3662,2.3221,2.3095,2.3095,2.3095,2.3045,2.2939,2.2833,2.2772,2.284,2.3114,2.248,2.1909,2.2218,2.1002,1.9952,2.0449,1.9693,1.8907,1.8846,1.8744,1.8599,1.8266,1.8378,1.8558,1.8668,1.8417,1.7857,1.6891,1.5985,1.4928,1.3696,1.3285,1.3009,1.2839,1.1531,1.0204,0.8973,0.7753,0.7098,0.7098,0.7098,0.7098,0.7098,0.7098,0.7141,0.7188,0.7141,0.6631,0.5723,0.4835,0.3619,0.2171,0.1299,0.0606,0.0112,0.0022,-0.0611,-0.1624,-0.2607,-0.3655,-0.4791,-0.6136,-0.7478,-0.8811,3.6025,3.5735,3.5677,3.6065,3.5415,3.5096,3.6025,3.5096,3.4096,3.3435,3.2726,3.1837,3.0601,3.045,3.0286,2.9837,2.9804,2.9302,2.8172,2.7795,2.7286,2.6524,2.6499,2.6499,2.6499,2.6499,2.6499,2.6499,2.6499,2.6499,2.6499,2.6499,2.6172,2.5611,2.6223,2.6155,2.5611,2.5979,2.6055,2.5929,2.546,2.5234,2.5118,2.5118,2.5118,2.5143,2.5385,2.5335,2.5118,2.5118,2.4632,2.3904,2.3296,2.3095,2.3095,2.3095,2.3015,2.2878,2.2787,2.2665,2.2512,2.2251,2.1752,2.1413,2.1665,2.0322,1.9283,2.023,1.9529,1.8825,1.9067,1.9089,1.8939,1.8582,1.8764,1.8944,1.8944,1.8338,1.7476,1.636,1.5365,1.4294,1.3073,1.2945,1.2732,1.2186,1.0399,0.9104,0.8522,0.7599,0.7098,0.7098,0.7098,0.7098,0.7098,0.7098,0.7148,0.7208,0.677,0.603,0.5065,0.3879,0.2638,0.1388,0.0695,0.0247,-0.0022,-0.0404,-0.118,-0.226,-0.3204,-0.4363,-0.5609,-0.6526,-0.7963,-0.9599,3.5421,3.491,3.4499,3.4557,3.4997,3.5113,3.4574,3.4252,3.3637,3.2282,3.1397,3.062,2.9876,2.9804,2.9804,2.9804,2.9754,2.9252,2.8172,2.8072,2.757,2.6549,2.6499,2.6499,2.6499,2.6499,2.6499,2.6499,2.6499,2.6499,2.6499,2.6499,2.6223,2.5686,2.6248,2.6197,2.5661,2.5661,2.6005,2.6399,2.5385,2.5243,2.5661,2.5661,2.5661,2.5753,2.6298,2.6147,2.5661,2.5561,2.4883,2.3954,2.3296,2.3095,2.3095,2.3095,2.3015,2.2878,2.2878,2.2635,2.2204,2.1509,2.0812,2.0478,2.118,1.9679,1.8513,1.9966,1.9588,1.9084,1.9317,1.9482,1.9417,1.8853,1.9072,1.9273,1.9157,1.8226,1.7143,1.5986,1.4892,1.3833,1.2805,1.2613,1.2186,1.1262,0.9519,0.8456,0.8368,0.7555,0.7098,0.7098,0.7098,0.7098,0.7098,0.7003,0.7077,0.7232,0.6177,0.5101,0.4021,0.2933,0.1703,0.0403,0.0381,0.0224,-0.0067,-0.1009,-0.2043,-0.3121,-0.4162,-0.5445,-0.6766,-0.7149,-0.8781,-1.0852,3.5479,3.5276,3.5346,3.5822,3.5183,3.4748,3.5113,3.4184,3.3099,3.2227,3.1397,3.062,2.9876,2.9804,2.9804,2.9804,2.9377,2.8806,2.8147,2.7695,2.7185,2.6524,2.6499,2.6499,2.6499,2.6499,2.6499,2.6499,2.6499,2.6499,2.6499,2.6499,2.6424,2.6323,2.6449,2.6424,2.6298,2.6298,2.6373,2.6474,2.6223,2.6197,2.6298,2.6298,2.6298,2.6323,2.6449,2.6424,2.6172,2.5285,2.4816,2.444,2.3421,2.3095,2.3095,2.3095,2.2924,2.2751,2.2751,2.2506,2.202,2.1083,2.049,2.0134,2.0108,1.9543,1.9214,1.9853,1.9456,1.9161,1.9676,1.9669,1.951,1.922,1.9237,1.8985,1.8074,1.704,1.595,1.4802,1.3728,1.2983,1.2729,1.2036,1.1209,1.0269,0.9148,0.8171,0.7445,0.7209,0.7098,0.7098,0.7098,0.7098,0.7098,0.6362,0.6025,0.607,0.5663,0.4545,0.2838,0.2242,0.1388,0.0381,0.018,0.0045,-0.0067,-0.1009,-0.2083,-0.3281,-0.4505,-0.5701,-0.695,-0.8255,-0.9624,-1.1072,3.545,3.5142,3.5009,3.5357,3.4847,3.4516,3.4864,3.3938,3.2932,3.22,3.1397,3.062,2.9876,2.9804,2.9804,2.9804,2.9528,2.8982,2.8147,2.8072,2.7613,2.6549,2.7002,2.7135,2.6901,2.6876,2.6751,2.6499,2.6499,2.6499,2.6499,2.6499,2.6499,2.6499,2.6499,2.6499,2.6499,2.6499,2.6499,2.6499,2.6499,2.6499,2.6499,2.6499,2.6499,2.6499,2.6499,2.6499,2.6323,2.5168,2.4816,2.46,2.3471,2.3095,2.308,2.303,2.2848,2.269,2.2574,2.2127,2.1564,2.1024,2.0537,2.0032,1.9329,1.8916,1.8831,1.9363,1.914,1.905,1.9634,1.9587,1.9429,1.9312,1.9292,1.8923,1.7783,1.6713,1.5589,1.4481,1.3358,1.2512,1.2089,1.1187,1.0275,0.9433,0.8408,0.7657,0.7267,0.7161,0.7154,0.7251,0.7251,0.702,0.652,0.6048,0.5253,0.418,0.4069,0.3422,0.2283,0.15,0.0784,0.0202,0.0067,0.0,-0.0112,-0.1562,-0.2569,-0.3376,-0.5155,-0.6322,-0.7116,-0.8088,-0.9509,-1.1317,3.5247,3.4777,3.4382,3.4382,3.4382,3.4382,3.4382,3.3607,3.2791,3.2182,3.1286,3.0495,2.9856,2.9804,2.9804,2.9804,2.9704,2.9202,2.8172,2.8505,2.8097,2.6575,2.7437,2.772,2.716,2.716,2.7002,2.6625,2.6549,2.6499,2.6499,2.6499,2.6499,2.6499,2.6499,2.6499,2.6499,2.6499,2.6499,2.6499,2.6499,2.6499,2.6499,2.6499,2.6499,2.6499,2.6499,2.6424,2.6197,2.5143,2.4741,2.449,2.3421,2.3095,2.3065,2.2939,2.2802,2.2644,2.2312,2.1683,2.1067,2.0902,2.0525,1.9938,1.8951,1.8483,1.843,1.8984,1.8917,1.8939,1.9515,1.9449,1.9292,1.9292,1.9154,1.8641,1.7553,1.6388,1.5292,1.428,1.3332,1.2394,1.1392,1.0482,0.9636,0.8849,0.7788,0.7249,0.7423,0.7269,0.7256,0.743,0.743,0.6929,0.5911,0.5705,0.4559,0.2509,0.226,0.2014,0.1768,0.0784,0.0202,0.0,0.0,-0.009,-0.0382,-0.2243,-0.3196,-0.3735,-0.5919,-0.6972,-0.7341,-0.7988,-0.9706,-1.1974,3.4661,3.4441,3.4382,3.4382,3.4382,3.4382,3.4382,3.3171,3.22,3.211,3.0853,2.9914,2.9824,2.9804,2.9804,2.9804,2.9308,2.8756,2.8147,2.8172,2.7695,2.6549,2.7085,2.716,2.6625,2.66,2.6801,2.7185,2.6725,2.6499,2.6499,2.6499,2.6499,2.6499,2.6499,2.6499,2.6499,2.6499,2.6499,2.6499,2.6499,2.6499,2.6499,2.6499,2.6499,2.6499,2.6499,2.6155,2.5611,2.5017,2.449,2.4004,2.3321,2.3095,2.3065,2.2939,2.2802,2.2512,2.1745,2.1313,2.0918,2.01,1.983,1.9687,1.9283,1.9306,1.9408,1.9505,1.9222,1.9086,1.9513,1.9449,1.9292,1.9292,1.8519,1.75,1.6309,1.5061,1.3994,1.329,1.3111,1.2594,1.1413,1.06,0.979,0.8871,0.8022,0.755,0.757,0.755,0.755,0.757,0.757,0.7031,0.5916,0.4927,0.3786,0.2486,0.1277,0.0672,0.0628,0.0225,0.0045,0.0,0.0,-0.0472,-0.1302,-0.2495,-0.3731,-0.4991,-0.6473,-0.7242,-0.7789,-0.992,-1.2047,-1.3932,3.5084,3.4661,3.4382,3.4382,3.4014,3.371,3.371,3.2791,3.1928,3.1489,3.0846,3.0247,2.9837,2.9804,2.9804,2.9804,2.9258,2.8681,2.8147,2.8097,2.7745,2.6977,2.7462,2.7638,2.7412,2.7085,2.706,2.7311,2.6776,2.6499,2.6499,2.6499,2.6499,2.6499,2.6499,2.6499,2.6499,2.6499,2.6499,2.6499,2.6499,2.6499,2.6499,2.6499,2.6499,2.6499,2.6499,2.6105,2.5511,2.4967,2.444,2.3888,2.3205,2.3,2.2954,2.2696,2.2574,2.2343,2.1478,2.0885,2.0498,2.0316,1.9861,1.9509,1.9653,1.9729,1.9697,1.9469,1.9202,1.9084,1.9375,1.937,1.9094,1.8499,1.8,1.7086,1.5303,1.4705,1.4173,1.3363,1.2786,1.2035,1.101,1.0062,0.9183,0.8301,0.7839,0.7638,0.7712,0.7645,0.7638,0.7719,0.7139,0.6244,0.5071,0.396,0.2709,0.1322,0.0688,0.0408,0.0381,0.0112,0.0,-0.0022,-0.0561,-0.1009,-0.1551,-0.3401,-0.4543,-0.5261,-0.6772,-0.7928,-0.8924,-1.0583,-1.2145,-1.3487]},{"header":{"parameterUnit":"m.s-1","parameterCategory":1,"la1":30.6,"la2":28.766,"lo1":-90.7593,"lo2":-88.6598,"dy":0.0162,"dx":0.0183,"nx":116,"ny":114,"refTime":"2023-11-09T06:00:00:Z","depth":0,"parameterNumber":3,"parameterNumberName":"V-component_of_WINDS"},"data":[0.0,0.0,0.0,0.0,0.0,0.0,0.0,0.0,0.0,0.0,0.0,0.0,0.0,0.0,0.0,0.0,0.0,0.0,0.0,0.0,0.0,0.0,0.0,0.0,0.0,0.0,0.0,0.0,0.0,0.0,0.0,0.0,0.0,0.0,0.0,0.0,0.0,0.0,0.0,0.0,0.0,0.0,0.0,0.0,0.0,0.0,0.0,0.0,0.0,0.0,0.0,0.0,0.0,0.0,0.0,0.0,0.0,0.0,0.0,0.0,0.0,0.0,0.0,0.0,0.0,0.0,0.0,0.0,0.0,0.0,0.0,0.0,0.0,0.0,0.0,0.0,0.0,0.0,0.0,0.0,0.0,0.0,0.0,0.0,0.0,0.0,0.0,0.0,0.0,0.0,0.0,0.0,0.0,0.0,0.0,0.0,0.0,0.0,0.0,0.0,0.0,0.0,0.0,0.0,0.0,0.0,0.0,0.0,0.0,0.0,0.0,0.0,0.0,0.0,0.0,0.0,0.0,0.0,0.0,0.0,0.0,0.0,0.0,0.0,0.0,0.0,0.0,0.0,0.0,0.0,0.0,0.0,0.0,0.0,0.0,0.0,0.0,0.0,0.0,0.0,0.0,0.0,0.0,0.0,0.0,0.0,0.0,0.0,0.0,0.0,0.0,0.0,0.0,0.0,0.0,0.0,0.0,0.0,0.0,0.0,0.0,0.0,0.0,0.0,0.0,0.0,0.0,0.0,0.0,0.0,0.0,0.0,0.0,0.0,0.0,0.0,0.0,0.0,0.0,0.0,0.0,0.0,0.0,0.0,0.0,0.0,0.0,0.0,0.0,0.0,0.0,0.0,0.0,0.0,0.0,0.0,0.0,0.0,0.0,0.0,0.0,0.0,0.0,0.0,0.0,0.0,0.0,0.0,0.0,0.0,0.0,0.0,0.0,0.0,0.0,0.0,0.0,0.0,0.0,0.0,0.0,0.0,0.0,0.0,0.0,0.0,0.0,0.0,0.0,0.0,0.0,0.0,0.0,0.0,0.0,0.0,0.0,0.0,0.0,0.0,0.0,0.0,0.0,0.0,0.0,0.0,0.0,0.0,0.0,0.0,0.0,0.0,0.0,0.0,0.0,0.0,0.0,0.0,0.0,0.0,0.0,0.0,0.0,0.0,0.0,0.0,0.0,0.0,0.0,0.0,0.0,0.0,0.0,0.0,0.0,0.0,0.0,0.0,0.0,0.0,0.0,0.0,0.0,0.0,0.0,0.0,0.0,0.0,0.0,0.0,0.0,0.0,0.0,0.0,0.0,0.0,0.0,0.0,0.0,0.0,0.0,0.0,0.0,0.0,0.0,0.0,0.0,0.0,0.0,0.0,0.0,0.0,0.0,0.0,0.0,0.0,0.0,0.0,0.0,0.0,0.0,0.0,0.0,0.0,0.0,0.0,0.0,0.0,0.0,0.0,0.0,0.0,0.0,0.0,0.0,0.0,0.0,0.0,0.0,0.0,0.0,0.0,0.0,0.0,0.0,0.0,0.0,0.0,0.0,0.0,0.0,0.0,0.0,0.0,0.0,0.0,0.0,0.0,0.0,0.0,0.0,0.0,0.0,0.0,0.0,0.0,0.0,0.0,0.0,0.0,0.0,0.0,0.0,0.0,0.0,0.0,0.0,0.0,0.0,0.0,0.0,0.0,0.0,0.0,0.0,0.0,0.0,0.0,0.0,0.0,0.0,0.0,0.0,0.0,0.0,0.0,0.0,0.0,0.0,0.0,0.0,0.0,0.0,0.0,0.0,0.0,0.0,0.0,0.0,0.0,0.0,0.0,0.0,0.0,0.0,0.0,0.0,0.0,0.0,0.0,0.0,0.0,0.0,0.0,0.0,0.0,0.0,0.0,0.0,0.0,0.0,0.0,0.0,0.0,0.0,0.0,0.0,0.0,0.0,0.0,0.0,0.0,0.0,0.0,0.0,0.0,0.0,0.0,0.0,0.0,0.0,0.0,0.0,0.0,0.0,0.0,0.0,0.0,0.0,0.0,0.0,0.0,0.0,0.0,0.0,0.0,0.0,0.0,0.0,0.0,0.0,0.0,0.0,0.0,0.0,0.0,0.0,0.0,0.0,0.0,0.0,0.0,0.0,0.0,0.0,0.0,0.0,0.0,0.0,0.0,0.0,0.0,0.0,0.0,0.0,0.0,0.0,0.0,0.0,0.0,0.0,0.0,0.0,0.0,0.0,0.0,0.0,0.0,0.0,0.0,0.0,0.0,0.0,0.0,0.0,0.0,0.0,0.0,0.0,0.0,0.0,0.0,0.0,0.0,0.0,0.0,0.0,0.0,0.0,0.0,0.0,0.0,0.0,0.0,0.0,0.0,0.0,0.0,0.0,0.0,0.0,0.0,0.0,0.0,0.0,0.0,0.0,0.0,0.0,0.0,0.0,0.0,0.0,0.0,0.0,0.0,0.0,0.0,0.0,0.0,0.0,0.0,0.0,0.0,0.0,0.0,0.0,0.0,0.0,0.0,0.0,0.0,0.0,0.0,0.0,0.0,0.0,0.0,0.0,0.0,0.0,0.0,0.0,0.0,0.0,0.0,0.0,0.0,0.0,0.0,0.0,0.0,0.0,0.0,0.0,0.0,0.0,0.0,0.0,0.0,0.0,0.0,0.0,0.0,0.0,0.0,0.0,0.0,0.0,0.0,0.0,0.0,0.0,0.0,0.0,0.0,0.0,0.0,0.0,0.0,0.0,0.0,0.0,0.0,0.0,0.0,0.0,0.0,0.0,0.0,0.0,0.0,0.0,0.0,0.0,0.0,0.0,0.0,0.0,0.0,0.0,0.0,0.0,0.0,0.0,0.0,0.0,0.0,0.0,0.0,0.0,0.0,0.0,0.0,0.0,0.0,0.0,0.0,0.0,0.0,0.0,0.0,0.0,0.0,0.0,0.0,0.0,0.0,0.0,0.0,0.0,0.0,0.0,0.0,0.0,0.0,0.0,0.0,0.0,0.0,0.0,0.0,0.0,0.0,0.0,0.0,0.0,0.0,0.0,0.0,0.0,0.0,0.0,0.0,0.0,0.0,0.0,0.0,0.0,0.0,0.0,0.0,0.0,0.0,0.0,0.0,0.0,0.0,0.0,0.0,0.0,0.0,0.0,0.0,0.0,0.0,0.0,0.0,0.0,0.0,0.0,0.0,0.0,0.0,0.0,0.0,0.0,0.0,0.0,0.0,0.0,0.0,0.0,0.0,0.0,0.0,0.0,0.0,0.0,0.0,0.0,0.0,0.0,0.0,0.0,0.0,0.0,0.0,0.0,0.0,0.0,0.0,0.0,0.0,0.0,0.0,0.0,0.0,0.0,0.0,0.0,0.0,0.0,0.0,0.0,0.0,0.0,0.0,0.0,0.0,0.0,0.0,0.0,0.0,0.0,0.0,0.0,0.0,0.0,0.0,0.0,0.0,0.0,0.0,0.0,0.0,0.0,0.0,0.0,0.0,0.0,0.0,0.0,0.0,0.0,0.0,0.0,0.0,0.0,0.0,0.0,0.0,0.0,0.0,0.0,0.0,0.0,0.0,0.0,0.0,0.0,0.0,0.0,0.0,0.0,0.0,0.0,0.0,0.0,0.0,0.0,0.0,0.0,0.0,0.0,0.0,0.0,0.0,0.0,0.0,0.0,0.0,0.0,0.0,0.0,0.0,0.0,0.0,0.0,0.0,0.0,0.0,0.0,0.0,0.0,0.0,0.0,0.0,0.0,0.0,0.0,0.0,0.0,0.0,0.0,0.0,0.0,0.0,0.0,0.0,0.0,0.0,0.0,0.0,0.0,0.0,0.0,0.0,0.0,0.0,0.0,0.0,0.0,0.0,0.0,0.0,0.0,0.0,0.0,0.0,0.0,0.0,0.0,0.0,0.0,0.0,0.0,0.0,0.0,0.0,0.0,0.0,0.0,0.0,0.0,0.0,0.0,0.0,0.0,0.0,0.0,0.0,0.0,0.0,0.0,0.0,0.0,0.0,0.0,0.0,0.0,0.0,0.0,0.0,0.0,0.0,0.0,0.0,0.0,0.0,0.0,0.0,0.0,0.0,0.0,0.0,0.0,0.0,0.0,0.0,0.0,0.0,0.0,0.0,0.0,0.0,0.0,0.0,0.0,0.0,0.0,0.0,0.0,0.0,0.0,0.0,0.0,0.0,0.0,0.0,0.0,0.0,0.0,0.0,0.0,0.0,0.0,0.0,0.0,0.0,0.0,0.0,0.0,0.0,0.0,0.0,0.0,0.0,0.0,0.0,0.0,0.0,0.0,0.0,0.0,0.0,0.0,0.0,0.0,0.0,0.0,0.0,0.0,0.0,0.0,0.0,0.0,0.0,0.0,0.0,0.0,0.0,0.0,0.0,0.0,0.0,0.0,0.0,0.0,0.0,0.0,0.0,0.0,0.0,0.0,0.0,0.0,0.0,0.0,0.0,0.0,0.0,0.0,0.0,0.0,0.0,0.0,0.0,0.0,0.0,0.0,0.0,0.0,0.0,0.0,0.0,0.0,0.0,0.0,0.0,0.0,0.0,0.0,0.0,0.0,0.0,0.0,0.0,0.0,0.0,0.0,0.0,0.0,0.0,0.0,0.0,0.0,0.0,0.0,0.0,0.0,0.0,0.0,0.0,0.0,0.0,0.0,0.0,0.0,0.0,0.0,0.0,0.0,0.0,0.0,0.0,0.0,0.0,0.0,0.0,0.0,0.0,0.0,0.0,0.0,0.0,0.0,0.0,0.0,0.0,0.0,0.0,0.0,0.0,0.0,0.0,0.0,0.0,0.0,0.0,0.0,0.0,0.0,0.0,0.0,0.0,0.0,0.0,0.0,0.0,0.0,0.0,0.0,0.0,0.0,0.0,0.0,0.0,0.0,0.0,0.0,0.0,0.0,0.0,0.0,0.0,0.0,0.0,0.0,0.0,0.0,0.0,0.0,0.0,0.0,0.0,0.0,0.0,0.0,0.0,0.0,0.0,0.0,0.0,0.0,0.0,0.0,0.0,0.0,0.0,0.0,0.0,0.0,0.0,0.0,0.0,0.0,0.0,0.0,0.0,0.0,0.0,0.0,0.0,0.0,0.0,0.0,0.0,0.0,0.0,0.0,0.0,0.0,0.0,0.0,0.0,0.0,0.0,0.0,0.0,0.0,0.0,0.0,0.0,0.0,0.0,0.0,0.0,0.0,0.0,0.0,0.0,0.0,0.0,0.0,0.0,0.0,0.0,0.0,0.0,0.0,0.0,0.0,0.0,0.0,0.0,0.0,0.0,0.0,0.0,0.0,0.0,0.0,0.0,0.0,0.0,0.0,0.0,0.0,0.0,0.0,0.0,0.0,0.0,0.0,0.0,0.0,0.0,0.0,0.0,0.0,0.0,0.0,0.0,0.0,0.0,0.0,0.0,0.0,0.0,0.0,0.0,0.0,0.0,0.0,0.0,0.0,0.0,0.0,0.0,0.0,0.0,0.0,0.0,0.0,0.0,0.0,0.0,0.0,0.0,0.0,0.0,0.0,0.0,0.0,0.0,0.0,0.0,0.0,0.0,0.0,0.0,0.0,0.0,0.0,0.0,0.0,0.0,0.0,0.0,0.0,0.0,0.0,0.0,0.0,0.0,0.0,0.0,0.0,0.0,0.0,0.0,0.0,0.0,0.0,0.0,0.0,0.0,0.0,0.0,0.0,0.0,0.0,0.0,0.0,0.0,0.0,0.0,0.0,0.0,0.0,0.0,0.0,0.0,0.0,0.0,0.0,0.0,0.0,0.0,0.0,0.0,0.0,0.0,0.0,0.0,0.0,0.0,0.0,0.0,0.0,0.0,0.0,0.0,0.0,0.0,0.0,0.0,0.0,0.0,0.0,0.0,0.0,0.0,0.0,0.0,0.0,0.0,0.0,0.0,0.0,0.0,0.0,0.0,0.0,0.0,0.0,0.0,0.0,0.0,0.0,0.0,0.0,0.0,0.0,0.0,0.0,0.0,0.0,0.0,0.0,0.0,0.0,0.0,0.0,0.0,0.0,0.0,0.0,0.0,0.0,0.0,0.0,0.0,0.0,0.0,0.0,0.0,0.0,0.0,2.0721,0.0,0.0,0.0,0.0,0.0,0.0,0.0,0.0,0.0,0.0,0.0,0.0,0.0,0.0,0.0,0.0,0.0,0.0,0.0,0.0,0.0,0.0,0.0,0.0,0.0,0.0,0.0,0.0,0.0,0.0,0.0,0.0,0.0,0.0,0.0,0.0,0.0,0.0,0.0,1.908,1.9726,2.0566,2.1331,2.1352,2.0672,0.0,0.0,0.0,0.0,0.0,0.0,0.0,0.0,0.0,0.0,0.0,0.0,0.0,0.0,0.0,0.0,0.0,0.0,0.0,0.0,0.0,0.0,0.0,0.0,0.0,0.0,0.0,0.0,0.0,0.0,0.0,0.0,0.0,0.0,0.0,0.0,0.0,0.0,0.0,0.0,0.0,0.0,0.0,0.0,0.0,0.0,0.0,0.0,0.0,0.0,0.0,0.0,0.0,0.0,0.0,0.0,0.0,0.0,0.0,0.0,0.0,0.0,0.0,0.0,0.0,0.0,0.0,0.0,0.0,0.0,0.0,2.2353,0.0,0.0,0.0,0.0,0.0,0.0,0.0,0.0,0.0,0.0,0.0,0.0,0.0,0.0,0.0,0.0,0.0,0.0,0.0,0.0,0.0,0.0,0.0,0.0,0.0,0.0,0.0,0.0,0.0,0.0,0.0,0.0,0.0,0.0,0.0,0.0,0.0,0.0,1.9684,2.0918,2.2793,2.3299,2.3172,2.2453,2.169,0.0,0.0,0.0,0.0,0.0,0.0,0.0,0.0,0.0,0.0,0.0,0.0,0.0,0.0,0.0,0.0,0.0,0.0,0.0,0.0,0.0,0.0,0.0,0.0,0.0,0.0,0.0,0.0,0.0,0.0,0.0,0.0,0.0,0.0,0.0,0.0,0.0,0.0,0.0,0.0,0.0,0.0,0.0,0.0,0.0,0.0,0.0,0.0,0.0,0.0,0.0,0.0,0.0,0.0,0.0,0.0,0.0,0.0,0.0,0.0,0.0,0.0,0.0,2.7362,2.764,2.8102,2.9399,2.9829,2.9454,2.6453,2.5292,2.5405,0.0,0.0,0.0,0.0,0.0,0.0,0.0,0.0,0.0,0.0,0.0,0.0,0.0,0.0,0.0,0.0,0.0,0.0,0.0,0.0,0.0,0.0,0.0,0.0,0.0,0.0,0.0,0.0,0.0,0.0,0.0,0.0,0.0,0.0,1.8907,1.9163,1.8695,2.1253,2.3817,2.6302,2.6199,2.6662,2.7497,2.4493,2.3943,2.5146,0.0,0.0,0.0,0.0,0.0,0.0,0.0,0.0,0.0,0.0,0.0,0.0,0.0,0.0,0.0,0.0,0.0,0.0,0.0,0.0,0.0,0.0,0.0,0.0,0.0,0.0,0.0,0.0,0.0,0.0,0.0,0.0,0.0,0.0,0.0,0.0,0.0,0.0,0.0,0.0,0.0,2.206,2.1341,0.0,0.0,0.0,0.0,0.0,0.0,0.0,0.0,0.0,0.0,0.0,0.0,0.0,2.8372,2.9788,3.1113,3.2066,3.2609,3.307,3.3534,3.3982,3.3895,3.4061,3.4331,3.3352,0.0,2.6759,2.5264,0.0,0.0,0.0,0.0,0.0,0.0,0.0,0.0,0.0,0.0,0.0,0.0,0.0,0.0,0.0,0.0,0.0,0.0,0.0,0.0,0.0,0.0,0.0,0.0,0.0,0.0,0.0,0.0,0.0,0.0,0.0,0.0,1.873,1.9298,2.0378,2.1969,2.504,2.7283,2.8701,2.921,2.9886,3.06,2.8716,2.7167,2.5815,2.455,0.0,0.0,0.0,0.0,0.0,0.0,0.0,0.0,0.0,0.0,0.0,0.0,0.0,0.0,0.0,0.0,0.0,0.0,0.0,0.0,0.0,0.0,0.0,0.0,0.0,0.0,0.0,0.0,0.0,0.0,0.0,0.0,0.0,0.0,0.0,0.0,0.0,0.0,0.0,2.2426,2.3304,2.152,2.2615,2.2699,0.0,0.0,0.0,0.0,0.0,0.0,0.0,0.0,0.0,3.0546,3.1675,3.2856,3.4174,3.527,3.6065,3.6517,3.677,3.6804,3.6705,3.7803,3.7918,3.7246,3.7692,3.5788,3.2155,2.9285,2.7741,2.7067,0.0,0.0,0.0,0.0,2.5393,2.5757,0.0,0.0,0.0,0.0,0.0,0.0,0.0,0.0,0.0,0.0,0.0,0.0,0.0,0.0,0.0,2.1931,0.0,0.0,0.0,0.0,0.0,0.0,0.0,1.8459,1.9102,2.0008,2.225,2.5881,2.8457,3.0296,3.1396,3.224,3.2912,3.3425,3.2695,3.0588,2.7552,2.6289,2.4964,2.3681,0.0,0.0,0.0,0.0,0.0,0.0,0.0,0.0,0.0,0.0,0.0,0.0,0.0,0.0,0.0,0.0,0.0,0.0,0.0,0.0,0.0,0.0,0.0,0.0,0.0,0.0,0.0,0.0,0.0,0.0,0.0,0.0,0.0,0.0,0.0,0.0,0.0,2.4153,2.5214,2.2672,2.4582,2.4899,0.0,0.0,0.0,0.0,0.0,0.0,2.9839,3.1281,3.2864,3.4629,3.6184,3.7685,3.9088,3.9685,4.0236,4.0721,4.0727,4.0395,3.9916,4.1687,4.1745,4.049,4.1375,4.0442,3.8031,3.3618,3.1421,3.0759,2.9469,2.8875,2.879,2.8994,2.914,2.9431,0.0,0.0,0.0,0.0,0.0,0.0,0.0,0.0,0.0,0.0,0.0,0.0,0.0,0.0,2.2869,2.4118,2.3616,2.3147,0.0,0.0,0.0,1.9297,1.883,1.8598,1.8637,2.1372,2.497,2.9335,3.0404,3.2366,3.5128,3.5201,3.5697,3.6524,3.5593,3.4125,3.214,2.8674,2.7143,2.6809,2.4219,0.0,0.0,0.0,0.0,0.0,0.0,0.0,0.0,0.0,0.0,0.0,0.0,0.0,0.0,0.0,0.0,0.0,0.0,0.0,0.0,0.0,0.0,0.0,0.0,0.0,0.0,0.0,0.0,0.0,0.0,0.0,0.0,0.0,0.0,0.0,0.0,0.0,0.0,2.614,2.7931,0.0,0.0,0.0,0.0,2.7952,2.9547,3.1517,3.3974,3.5162,3.7315,4.0743,4.1501,4.2883,4.5066,4.5112,4.5413,4.591,4.5925,4.5649,4.5149,4.5754,4.5704,4.5149,4.4947,4.4338,4.3012,3.7597,3.4174,3.2368,3.2151,3.1804,3.1426,3.1628,3.2031,3.2532,0.0,0.0,0.0,0.0,0.0,0.0,0.0,0.0,0.0,0.0,0.0,0.0,0.0,2.3909,2.5527,2.6797,2.7174,2.6724,2.5356,0.0,0.0,2.1757,2.0001,2.0112,2.241,2.5343,2.8436,3.1615,3.3697,3.5428,3.6763,3.7053,3.7384,3.7653,3.7032,3.6225,3.5128,3.1754,2.898,2.6705,2.513,2.3784,0.0,0.0,0.0,0.0,0.0,0.0,0.0,0.0,0.0,0.0,0.0,0.0,0.0,0.0,0.0,0.0,0.0,0.0,0.0,0.0,0.0,0.0,0.0,0.0,0.0,0.0,0.0,0.0,0.0,0.0,0.0,0.0,0.0,0.0,0.0,0.0,0.0,3.0261,3.2585,0.0,3.0543,3.0822,3.175,3.3166,3.4942,3.6801,3.8735,4.0229,4.1933,4.3937,4.4895,4.5899,4.7029,4.7054,4.6979,4.6823,4.7149,4.6677,4.5522,4.6396,4.6351,4.5527,4.5973,4.5606,4.4503,4.2748,4.0018,3.6873,3.6769,3.6197,3.5421,3.5673,3.5884,3.6006,0.0,0.0,0.0,0.0,0.0,0.0,0.0,0.0,0.0,0.0,0.0,2.1857,2.4046,2.6035,2.7812,2.9258,2.9355,2.8601,2.6719,0.0,0.0,2.2477,2.1233,2.2107,2.5401,2.8243,3.1004,3.3708,3.579,3.7115,3.7736,3.8191,3.8398,3.8398,3.8088,3.7612,3.6919,3.5071,3.1944,2.8118,2.7054,2.5813,2.4407,0.0,0.0,0.0,0.0,0.0,0.0,0.0,0.0,0.0,0.0,0.0,0.0,0.0,0.0,0.0,0.0,0.0,0.0,0.0,0.0,0.0,0.0,0.0,0.0,0.0,0.0,0.0,0.0,0.0,0.0,0.0,0.0,0.0,0.0,0.0,3.4865,3.4294,3.6869,3.7682,3.5065,3.5649,3.6653,3.7712,3.9662,4.1379,4.2632,4.4088,4.5347,4.6276,4.7205,4.8033,4.8736,4.856,4.841,4.8203,4.841,4.7869,4.6809,4.7509,4.7293,4.6408,4.7117,4.6794,4.5843,4.6302,4.4397,4.1233,4.0821,4.0012,3.9068,3.9055,3.8919,3.8658,0.0,0.0,0.0,0.0,0.0,0.0,0.0,0.0,0.0,0.0,2.0312,2.3086,2.6094,2.7988,2.9679,3.1396,2.9933,2.8372,2.7103,2.4176,0.0,2.1308,2.2482,2.4456,2.7274,2.9807,3.262,3.5752,3.649,3.7322,3.8212,3.8613,3.882,3.8807,3.8861,3.8398,3.7672,3.8486,3.6071,3.1606,3.0159,2.8702,2.7322,0.0,0.0,0.0,0.0,0.0,0.0,0.0,0.0,0.0,0.0,0.0,0.0,0.0,0.0,0.0,0.0,0.0,0.0,0.0,0.0,0.0,0.0,0.0,0.0,0.0,0.0,0.0,0.0,0.0,0.0,0.0,0.0,0.0,3.1339,3.5238,3.8165,3.8241,4.0678,4.1281,3.8542,4.0248,4.1503,4.1476,4.3485,4.497,4.5522,4.6547,4.7375,4.7908,4.8485,4.9314,5.0361,4.9866,4.9866,5.0393,4.9841,4.9506,4.9292,4.9292,4.8844,4.8107,4.8463,4.8068,4.7265,4.7938,4.7007,4.5035,4.3977,4.3022,4.216,4.1559,4.0933,4.0332,0.0,0.0,0.0,0.0,0.0,0.0,0.0,0.0,0.0,0.0,2.1074,2.432,2.7037,2.9715,3.1719,3.2781,3.0742,2.8984,2.8008,0.0,2.2624,2.2937,2.5113,2.7622,3.0384,3.2629,3.4643,3.649,3.7393,3.8109,3.8634,3.8758,3.8985,3.9337,3.9647,4.0093,4.0499,3.9635,3.9131,3.8551,3.4952,3.2425,3.055,0.0,0.0,0.0,0.0,0.0,0.0,0.0,0.0,0.0,0.0,0.0,0.0,0.0,0.0,0.0,0.0,0.0,0.0,0.0,0.0,0.0,0.0,0.0,0.0,0.0,0.0,0.0,0.0,0.0,0.0,0.0,0.0,3.571,3.6048,3.8968,4.1632,4.3237,4.4819,4.5443,4.4665,4.5493,4.5919,4.5543,4.6421,4.7079,4.723,4.7531,4.7958,4.8542,4.9088,4.9515,4.9816,4.9665,4.9665,4.9816,4.9665,4.9506,4.9292,4.9292,4.8844,4.8107,4.8463,4.8217,4.7589,4.8026,4.7385,4.6047,4.5317,4.4093,4.2709,4.216,4.1298,4.0385,0.0,0.0,0.0,0.0,0.0,0.0,0.0,0.0,0.0,0.0,2.1875,2.5176,2.8171,3.038,3.1894,3.2528,3.043,2.8386,2.6777,0.0,2.3588,2.5054,2.7614,3.0362,3.3185,3.4818,3.6287,3.762,3.8158,3.8551,3.882,3.9213,3.9868,4.0705,4.0355,4.1228,4.2828,4.1721,4.1979,4.2918,4.0688,3.7807,3.4616,3.2487,3.1318,3.0533,2.8359,2.778,2.7666,2.5359,0.0,0.0,0.0,0.0,0.0,0.0,0.0,0.0,0.0,0.0,0.0,0.0,0.0,0.0,0.0,0.0,0.0,0.0,0.0,0.0,0.0,0.0,0.0,0.0,3.6835,3.9672,4.1856,4.3363,4.497,4.6979,4.8184,4.8586,4.7883,4.8736,4.9012,4.8234,4.8629,4.8862,4.8636,4.8611,4.8761,4.9113,4.9665,4.9941,4.9941,4.9941,4.9816,4.959,4.9719,4.9799,4.9843,5.0001,4.9636,0.0,4.904,4.8663,4.7909,4.8114,4.7547,0.0,0.0,0.0,0.0,0.0,4.1611,4.0776,0.0,0.0,0.0,0.0,0.0,0.0,0.0,0.0,0.0,0.0,0.0,2.5684,2.9012,3.0302,3.1055,3.1455,2.9453,2.7135,0.0,2.4187,2.51,2.7607,3.0146,3.2806,3.5635,3.6639,3.7682,3.8882,3.8882,3.8971,3.9223,4.0035,4.1289,4.277,4.1486,4.2491,4.5062,4.4436,4.4724,4.5663,4.6136,4.3495,3.9098,3.7487,3.6063,3.4745,3.3455,3.2002,3.0543,2.933,0.0,0.0,0.0,0.0,0.0,0.0,0.0,0.0,0.0,0.0,0.0,0.0,0.0,0.0,0.0,0.0,0.0,0.0,0.0,0.0,0.0,0.0,0.0,0.0,4.0273,4.3259,4.7506,4.7726,4.8052,4.9615,5.0619,5.0594,4.9145,5.0419,5.0896,4.9766,5.0193,5.0293,4.9816,0.0,0.0,0.0,0.0,5.0451,5.0451,5.0409,5.0165,4.9719,5.0084,5.0404,5.0677,5.1014,5.0737,4.9897,4.9897,4.9244,4.8201,4.8201,4.7547,4.6501,4.637,4.5272,4.3677,4.2657,4.1847,4.1299,0.0,0.0,0.0,0.0,0.0,0.0,0.0,0.0,0.0,1.959,2.2518,2.5332,2.78,2.9774,3.1055,3.1455,2.8906,2.6677,2.5366,2.5943,2.7676,3.069,3.3205,3.5521,3.7612,3.8543,3.9109,3.9378,3.9378,4.0164,4.1705,4.1878,4.3184,4.5381,4.5477,4.6508,4.8171,4.7249,4.7553,4.859,4.7157,4.5055,4.2584,4.0566,3.9327,3.8305,3.5622,3.5112,3.5342,3.2864,3.2111,3.1715,2.904,0.0,0.0,0.0,0.0,0.0,0.0,0.0,0.0,0.0,0.0,0.0,0.0,0.0,0.0,0.0,0.0,0.0,0.0,0.0,0.0,4.0073,4.2936,4.5748,4.8837,4.9565,5.0067,5.0845,5.0745,5.0469,5.0117,5.1222,5.1473,5.0343,5.0795,5.1071,5.1004,5.0519,5.0469,5.0946,5.0882,5.0778,5.0778,5.0645,5.0525,5.0423,0.0,0.0,5.0994,5.1554,5.1101,4.9897,4.9897,4.9244,4.8201,4.8201,4.7547,4.6423,4.5428,4.4277,4.3154,4.2944,4.2213,4.1299,0.0,0.0,0.0,0.0,0.0,0.0,0.0,0.0,0.0,0.0,2.1971,2.4199,2.6177,2.7402,2.8048,2.7969,2.6119,2.5303,2.6147,2.7772,3.0198,3.358,3.5686,3.7653,3.953,3.9765,4.0081,4.0551,4.132,4.2196,4.318,4.4165,4.5691,4.7568,4.7075,4.8094,5.014,4.8863,4.9145,5.0361,4.9043,4.7753,4.6466,4.4288,4.291,4.1945,4.0419,3.955,3.896,3.7255,3.6277,3.5356,3.3029,3.1207,2.9496,0.0,0.0,0.0,0.0,0.0,0.0,0.0,0.0,0.0,0.0,0.0,0.0,0.0,0.0,3.287,0.0,0.0,4.0388,4.3543,4.5859,4.8003,5.0205,5.0348,5.0381,5.0803,5.0845,5.0745,5.0444,5.1448,5.1875,5.1297,5.1691,5.1942,5.1942,5.1299,5.122,5.1778,5.1376,5.1168,5.1168,5.1056,5.1024,5.1049,5.1241,5.1401,5.1566,5.1724,5.1101,4.9897,4.9897,4.9244,4.8175,4.76,4.7024,4.6397,4.5165,4.3989,4.2997,4.2997,4.2265,4.1299,0.0,0.0,0.0,0.0,0.0,0.0,0.0,0.0,0.0,0.0,2.1291,2.2899,2.432,2.4729,2.4697,0.0,2.3593,2.4411,2.7122,2.9609,3.2539,3.6031,3.7823,3.9475,4.1146,4.08,4.0986,4.1747,4.2985,4.3892,4.4494,4.6143,4.7864,4.965,4.8444,4.9273,5.1532,5.0332,5.0463,5.1398,5.082,5.0318,4.9715,4.7707,4.6175,4.5016,4.4589,4.3084,4.1227,4.0754,3.9421,3.7764,3.6457,3.4899,3.3011,3.0192,2.95,0.0,0.0,0.0,0.0,0.0,0.0,0.0,0.0,0.0,3.124,3.3793,3.5164,3.6843,3.9803,4.1874,4.403,4.6781,4.8314,4.9645,5.1043,5.0742,5.0427,5.0597,5.0944,5.1087,5.0968,5.1682,5.2236,5.2304,5.2649,5.2818,5.2716,5.2115,5.1972,5.2272,5.1774,5.1524,5.1524,5.146,5.1473,5.1531,5.1425,5.1552,5.1921,5.181,5.1073,4.9871,4.9662,4.9035,4.8123,4.6972,4.6501,4.6397,4.5165,4.3989,4.2997,4.2997,4.2265,4.1299,0.0,0.0,0.0,0.0,0.0,0.0,0.0,0.0,0.0,0.0,0.0,0.0,0.0,0.0,0.0,2.3011,2.396,2.5747,2.8503,3.1443,3.4527,3.7765,3.964,4.1084,4.212,4.2099,4.212,4.2223,4.2386,4.3838,4.6491,4.6735,4.8586,5.1763,5.1569,5.197,5.2694,5.2523,5.2316,5.1975,5.1398,5.1147,5.0979,4.9715,4.8234,4.6572,4.4564,4.2758,4.1254,4.0966,3.96,3.7989,3.8058,3.6775,3.4803,3.2701,3.0597,2.8913,2.845,2.8963,2.9849,3.0682,3.1387,3.2505,0.0,0.0,3.6893,3.8664,4.0309,4.1979,4.3826,4.5189,4.6652,4.8461,4.9312,4.9928,5.0588,5.1069,5.1344,5.1363,5.0861,5.1135,5.2736,5.2673,5.2682,5.3051,5.3545,5.3622,5.3076,5.2982,5.2733,5.2298,5.2059,5.1936,5.1936,5.1678,5.1575,5.1575,5.2108,5.2082,5.1638,5.2171,5.1492,4.9845,4.8855,4.8332,4.8123,4.6972,4.6501,4.6397,4.5165,4.3989,4.2997,4.2997,4.2265,4.1299,0.0,0.0,0.0,0.0,0.0,0.0,0.0,0.0,0.0,0.0,0.0,0.0,0.0,0.0,2.0655,2.1187,2.3448,2.6274,2.9551,3.3293,3.668,3.962,4.1022,4.2016,4.2642,4.2642,4.3192,4.441,4.5347,4.6888,4.9027,4.995,5.1137,5.2578,5.2578,5.2669,5.2895,5.2895,5.277,5.2468,5.1624,5.1306,5.1046,4.8962,4.7392,4.6128,4.4396,4.2133,0.0,3.955,3.8715,3.7805,3.8048,3.6879,3.5006,3.2856,3.1284,3.0336,3.0721,3.1042,3.1526,0.0,3.4155,3.5749,3.7226,3.8473,3.9919,4.219,4.3926,4.5522,4.7169,4.8558,4.9628,0.0,5.0856,5.1448,5.1681,5.1186,5.0994,5.1494,5.0633,5.0856,5.2972,5.2711,5.2754,5.3587,5.3762,5.3708,5.3476,5.2996,5.2816,5.2952,5.2198,5.1924,5.2288,5.1847,5.1779,5.2119,5.2014,5.2014,5.2119,5.1701,5.0734,4.9404,4.8567,4.7989,4.7623,4.6841,4.629,4.5898,4.5034,4.3989,4.2997,4.2997,4.2265,4.1299,0.0,0.0,0.0,0.0,0.0,0.0,0.0,0.0,0.0,0.0,0.0,0.0,0.0,0.0,1.8522,1.9826,2.2572,2.5753,2.9312,3.3517,3.7198,4.0179,4.1477,4.243,4.3097,4.3118,4.3807,4.5266,4.6876,4.8444,4.9985,5.1537,5.2491,5.2895,5.2895,5.2895,5.2895,5.2895,5.2895,5.2795,5.1724,5.1096,5.0494,4.7525,4.549,4.4052,4.2924,4.0632,3.8009,3.7059,3.6419,3.6088,3.6294,3.5574,3.4349,3.2572,3.1523,3.1061,3.174,3.244,0.0,3.4833,3.7066,3.9146,4.0211,4.1542,4.3279,4.6023,4.7479,4.8689,5.0,5.1283,5.1925,5.1329,5.2091,5.2589,5.2093,5.1252,5.0773,5.1095,5.0038,5.0146,5.2349,5.2476,5.2958,5.4224,5.4019,5.3763,5.3607,5.2905,5.2616,5.2877,5.2067,5.1805,5.225,5.1805,5.1805,5.225,5.1805,5.1753,5.1988,5.0838,4.9871,4.909,4.8463,4.7937,4.749,4.6787,4.6238,4.5766,4.5008,4.4094,4.3232,4.3049,4.247,4.1695,0.0,0.0,0.0,0.0,0.0,0.0,0.0,0.0,0.0,0.0,0.0,0.0,0.0,0.0,1.7853,1.9372,2.1394,2.3929,2.7182,3.1222,3.5107,3.8716,4.0634,4.2265,4.3553,4.3594,4.3594,4.3691,4.5213,4.6802,4.8407,4.9949,5.1443,5.2895,5.2895,5.2895,5.2895,5.2895,5.2895,5.2795,5.1724,5.0619,4.9289,4.5974,4.2821,4.0107,3.9474,3.7976,3.5887,3.3338,3.2325,3.2204,3.2406,3.2659,0.0,3.2406,3.1273,3.0202,3.0637,3.2508,3.4894,3.7198,3.9939,4.2657,4.4878,4.626,4.7934,5.0812,5.1439,5.1648,5.2302,5.2929,5.2955,5.1779,5.2589,5.2772,5.1073,5.1256,5.1178,5.008,4.8956,4.8927,0.0,5.203,5.3425,5.4953,5.4517,5.3975,5.3452,5.2825,5.2223,5.1675,5.1622,5.1596,5.1622,5.1596,5.1596,5.1622,5.1596,5.1335,5.0812,4.9662,4.9113,4.909,4.8463,4.8201,4.8097,4.6972,4.6501,4.6342,4.5139,4.4356,4.3807,4.3232,4.2901,4.2744,0.0,0.0,0.0,0.0,0.0,0.0,0.0,0.0,0.0,0.0,0.0,0.0,0.0,0.0,0.0,0.0,2.1695,2.4074,2.6687,3.0953,3.4465,3.6896,3.9661,4.1498,4.2265,4.2849,4.4315,4.6728,4.7243,4.8804,5.1362,5.1876,5.2421,5.2895,5.2895,5.2895,5.287,5.2494,5.2377,5.2151,4.9758,4.8566,4.7682,4.2996,3.9727,3.7315,0.0,3.2716,3.1533,3.0481,3.0054,3.0183,3.1149,3.1234,3.0917,3.0459,3.0481,3.1137,3.3213,0.0,3.79,4.0594,4.318,4.535,4.6471,4.8221,4.9688,4.9897,4.961,4.927,4.9083,4.9214,4.9344,4.9348,5.0943,5.1884,5.0917,5.0943,5.0342,4.8433,4.7858,0.0,0.0,0.0,0.0,5.3792,5.34,5.3321,5.3896,5.34,5.3008,5.2798,5.2406,5.2197,5.2197,5.1805,5.1413,5.1047,5.0655,5.0185,4.9666,4.927,4.8669,4.7882,4.7673,4.715,4.6473,4.6081,4.5689,4.5326,4.5688,4.5472,4.5014,4.5514,4.5605,4.5204,0.0,0.0,0.0,0.0,0.0,0.0,0.0,0.0,0.0,0.0,0.0,0.0,0.0,0.0,0.0,0.0,0.0,2.3121,2.5255,2.8736,3.1733,3.4072,3.6287,3.7872,3.866,3.9346,4.0988,4.3725,4.4965,4.6779,4.9125,5.0106,5.0536,5.0536,5.0536,5.0637,5.0762,5.0067,4.9615,4.9163,4.6495,4.4662,4.3121,3.8734,3.5699,0.0,2.9984,2.8366,2.773,2.7117,2.7339,2.7936,2.8377,2.91,2.9831,2.9894,3.0992,3.2881,3.5992,3.837,4.0644,4.352,4.5532,4.71,4.8273,4.9401,5.0028,4.9479,4.859,4.7571,4.6604,4.6421,4.6473,4.6658,4.8437,4.9714,4.9584,4.9557,4.9165,4.8065,4.7568,4.7542,0.0,0.0,0.0,5.2851,5.272,5.2903,5.387,5.3583,5.3295,5.3086,5.2694,5.238,5.2171,5.1779,5.1335,5.0786,4.9766,4.9087,4.8747,4.8358,4.7754,4.6994,4.6994,4.6604,4.5924,4.5687,4.5374,4.5091,4.5766,4.5805,4.5527,4.6166,4.6562,4.6524,0.0,0.0,0.0,0.0,0.0,0.0,0.0,0.0,0.0,0.0,0.0,0.0,0.0,0.0,0.0,0.0,0.0,0.0,2.2936,2.4758,2.7161,3.0263,3.1,3.1941,3.329,3.3735,3.4481,3.5591,3.8914,4.1089,4.2209,4.4764,4.5974,4.5974,4.5974,4.622,4.6647,4.5598,4.4819,4.4091,4.2048,3.9297,3.616,3.3518,3.1003,2.8523,2.6317,2.5252,2.4783,2.3707,2.4502,2.5809,2.4738,2.6713,2.9658,3.0861,3.2875,3.5417,3.8893,4.114,4.3154,4.5952,4.7048,4.7986,5.0132,4.9766,4.9087,4.9453,4.8146,4.6393,0.0,0.0,4.433,4.3886,4.5403,4.6813,4.7307,4.7516,4.796,0.0,0.0,0.0,0.0,0.0,0.0,5.225,0.0,5.272,5.3373,5.3426,5.3138,5.2511,5.2485,5.2197,5.1596,5.1544,5.123,5.0681,4.8956,4.8146,4.8123,4.7024,4.6475,4.6449,4.6449,4.6477,4.6455,4.5877,4.5641,4.5648,4.5575,4.5555,4.5493,4.5452,4.5977,4.6789,0.0,0.0,0.0,0.0,0.0,0.0,0.0,0.0,0.0,0.0,0.0,0.0,0.0,0.0,0.0,0.0,0.0,0.0,2.1054,2.2853,2.4695,2.6514,2.8905,3.0841,3.2173,3.3563,3.5136,3.6928,3.7809,3.8969,4.0366,4.1041,4.1379,4.1379,4.1379,4.1455,4.153,4.0879,4.0224,3.9497,3.7242,3.5573,3.4134,3.1261,2.9218,2.7683,2.6225,2.511,2.4413,2.4947,2.6592,2.8412,2.8551,2.9761,3.1555,3.3613,3.6149,3.8945,4.1977,4.4697,4.6972,4.8149,4.8826,4.9061,4.8352,4.796,4.7176,4.5165,4.3049,4.1063,0.0,0.0,0.0,4.2369,4.59,0.0,4.8616,5.0498,0.0,4.9296,0.0,4.9976,5.0106,5.0132,0.0,0.0,5.1831,5.2276,5.3347,5.3792,5.353,5.2537,5.2485,5.2197,5.1596,5.076,5.0054,4.9505,4.8172,4.7516,4.749,4.6813,4.6238,4.5818,4.5818,4.6053,4.641,4.6249,4.6373,4.6733,4.75,4.7465,4.7133,4.7927,4.8094,4.7889,0.0,0.0,0.0,0.0,0.0,0.0,0.0,0.0,0.0,0.0,0.0,0.0,0.0,0.0,0.0,0.0,0.0,0.0,0.0,2.0925,2.2087,2.3639,2.4977,2.6363,2.7812,2.9187,3.0606,3.2077,3.3138,3.4273,3.5353,3.5604,3.5705,3.5705,3.5705,3.583,3.6006,3.5479,3.4972,0.0,0.0,3.097,2.9898,2.8083,2.6817,2.5923,2.5286,2.5286,2.5861,0.0,0.0,2.998,3.179,3.2992,3.4298,3.7403,0.0,4.2108,4.501,4.7338,4.8956,4.9061,4.893,4.8303,4.6549,4.5583,4.4173,4.1036,3.9155,0.0,3.5469,3.6253,0.0,0.0,0.0,0.0,4.8486,5.0524,5.1648,0.0,5.1544,0.0,5.157,5.1779,5.1831,0.0,5.1831,5.2276,5.2955,5.353,5.3426,5.2537,5.2485,5.2093,5.1256,5.0106,4.9401,4.9061,4.7649,4.697,4.6917,4.6081,4.5807,4.5927,0.0,4.6382,4.7072,4.6799,4.6798,4.7059,4.7563,4.7532,4.7306,4.8119,4.8177,4.7848,0.0,0.0,0.0,0.0,0.0,0.0,0.0,0.0,0.0,0.0,0.0,0.0,0.0,0.0,0.0,0.0,0.0,0.0,0.0,0.0,1.9703,2.1466,2.079,2.1068,2.2508,2.3401,2.4143,2.4787,2.6959,2.8294,2.8831,2.9364,2.9659,2.971,2.971,3.003,3.0482,3.0011,2.9605,2.9118,2.787,2.6523,2.5247,0.0,0.0,2.4111,2.4267,2.56,2.7689,3.0424,3.1156,3.1458,3.4816,3.641,3.7769,4.1558,4.352,4.5063,4.773,4.9244,4.9949,4.9244,4.8198,4.6785,4.4825,4.2944,4.0669,3.7246,0.0,3.4894,3.2751,3.3901,3.5835,3.7795,0.0,4.4487,4.8015,4.9584,5.1152,5.3243,5.3583,5.3426,5.2903,5.3321,5.3138,5.1936,5.2328,5.2537,5.238,5.2955,5.3008,5.2406,5.2302,5.1753,5.0681,4.961,4.9035,4.896,4.7312,4.6586,4.6673,4.5463,4.5555,4.6609,4.6609,0.0,4.8164,4.7493,4.7257,4.7279,4.7021,4.6874,4.682,4.7072,4.7219,4.7309,0.0,0.0,0.0,0.0,0.0,0.0,0.0,0.0,0.0,0.0,1.8365,0.0,0.0,0.0,0.0,0.0,0.0,0.0,0.0,0.0,0.0,2.0093,2.0189,2.0548,2.1222,2.2031,2.2345,2.2095,2.2999,2.3513,2.3603,2.4158,2.4666,2.5134,2.5134,2.5444,2.5946,2.5845,2.5577,2.5185,2.5039,2.4648,2.419,2.4249,0.0,0.0,2.5182,2.5756,2.6827,3.1548,3.4005,3.55,3.8057,4.0226,4.2213,4.4381,4.6159,4.7783,4.9191,5.042,5.0943,4.9483,4.8198,4.6471,4.3363,4.0591,0.0,0.0,3.3306,3.2137,3.0798,3.2751,3.56,3.8789,4.2213,4.5874,4.9793,5.1753,5.3112,0.0,0.0,0.0,0.0,0.0,0.0,0.0,0.0,5.2798,5.1805,5.2328,5.238,5.1779,5.1309,5.076,5.0054,4.9401,4.8855,4.8329,4.7103,4.6951,4.7783,4.6624,4.6686,4.7712,4.7712,0.0,4.9259,4.8596,4.8546,4.8837,4.8253,4.7695,4.713,4.6655,4.6809,4.7219,0.0,0.0,0.0,0.0,0.0,0.0,0.0,0.0,0.0,2.0241,1.9875,1.9379,0.0,0.0,0.0,0.0,0.0,0.0,0.0,0.0,0.0,0.0,0.0,0.0,2.0101,2.1073,2.1385,2.097,0.0,2.2164,2.1893,2.2141,2.2422,2.2698,2.3,2.3321,2.3674,2.3937,2.4065,2.4064,2.4099,2.4094,0.0,0.0,0.0,0.0,0.0,2.6383,2.7732,3.1425,3.4612,3.756,4.0437,4.2343,4.399,4.6656,4.8015,4.9064,5.076,5.1648,5.1648,4.9923,4.7728,4.4904,4.088,0.0,0.0,0.0,3.0686,3.0346,2.9797,3.1784,0.0,3.7325,4.0435,4.4016,4.8381,5.0472,0.0,5.4001,5.4733,5.4968,0.0,0.0,0.0,0.0,0.0,5.2537,5.1648,5.1596,5.1465,5.1178,5.0342,4.9766,4.9509,4.8934,4.8515,4.8201,4.7619,4.759,4.8083,4.7495,4.7816,4.882,4.882,0.0,5.0377,4.9374,4.9113,4.9187,4.8199,4.7578,4.7279,4.6929,4.7018,4.7249,0.0,0.0,0.0,0.0,0.0,0.0,0.0,1.8642,1.9392,2.13,2.1447,2.122,2.0744,1.9913,1.9268,0.0,0.0,0.0,0.0,0.0,0.0,0.0,0.0,0.0,0.0,0.0,0.0,2.0232,2.1362,0.0,0.0,0.0,0.0,0.0,2.2121,2.2445,2.2752,2.3198,2.358,0.0,0.0,2.3979,0.0,0.0,0.0,0.0,0.0,0.0,2.8089,3.0719,3.3854,3.7172,4.062,4.2892,4.4801,4.7417,4.8803,4.9871,5.1779,5.2406,5.2014,5.0028,4.7022,4.331,3.8762,3.5391,0.0,2.924,2.8874,2.9135,2.9266,3.0966,3.3169,0.0,3.8214,4.1585,4.6445,4.8643,5.0786,0.0,5.4654,0.0,5.4262,0.0,0.0,0.0,0.0,0.0,5.1465,5.1021,5.0734,5.0603,4.961,4.9117,4.9117,4.8486,4.8265,4.8368,4.8183,4.83,4.8592,4.8448,4.8919,4.9955,4.9955,0.0,0.0,4.9942,4.9426,4.9157,4.7967,4.7429,4.7279,4.716,4.7189,4.7279,0.0,0.0,0.0,0.0,0.0,0.0,0.0,1.9409,2.0469,2.2728,2.2625,2.219,2.1735,2.0827,1.9772,0.0,0.0,0.0,0.0,0.0,0.0,0.0,0.0,0.0,0.0,0.0,0.0,1.9061,2.0203,0.0,0.0,0.0,0.0,0.0,0.0,2.2583,2.3075,2.329,0.0,0.0,0.0,0.0,0.0,0.0,0.0,0.0,0.0,0.0,2.5908,0.0,0.0,3.2972,3.644,4.1168,4.54,4.5246,0.0,0.0,5.1492,5.2067,5.1831,4.9035,4.6161,4.2761,3.8135,0.0,3.1451,2.9606,2.8821,2.8638,2.9188,3.0312,0.0,0.0,0.0,4.0095,4.5795,4.8068,5.0237,5.3138,0.0,0.0,5.4262,0.0,0.0,0.0,0.0,0.0,5.089,5.0812,5.0551,5.0002,4.9401,4.9117,4.9117,4.8486,4.846,4.8946,4.8354,4.8855,5.0277,4.9709,5.0052,5.1035,5.1035,0.0,0.0,5.0428,4.9793,4.9239,4.8498,4.7848,4.7249,4.66,4.6779,4.7219,0.0,0.0,0.0,0.0,0.0,0.0,0.0,1.943,2.0404,2.3246,2.3225,2.2832,2.2666,2.1799,2.0596,0.0,0.0,0.0,0.0,0.0,0.0,0.0,0.0,0.0,0.0,0.0,0.0,1.9324,2.0542,0.0,0.0,0.0,0.0,0.0,0.0,2.2979,2.3285,0.0,0.0,0.0,0.0,0.0,0.0,0.0,0.0,0.0,0.0,0.0,2.6274,0.0,0.0,0.0,3.1705,3.5312,0.0,0.0,4.5611,4.8172,5.0498,5.1779,5.1805,4.8934,4.5507,4.1663,3.7037,0.0,3.0283,2.8577,2.8046,2.815,2.9135,2.9371,3.0443,0.0,0.0,0.0,4.1089,4.2997,4.5454,4.974,5.1256,0.0,0.0,0.0,0.0,0.0,0.0,0.0,5.0289,5.0263,5.0002,4.9427,4.8881,4.8567,4.8567,4.7963,4.8118,4.8977,4.8731,4.9277,5.049,5.0538,5.0799,5.1206,5.1206,0.0,0.0,5.0092,4.9516,4.9187,4.8139,4.7549,4.7279,4.6988,4.7048,4.7279,0.0,0.0,0.0,0.0,0.0,0.0,1.9264,1.9516,2.0449,2.3142,2.3328,2.3163,2.3018,2.2025,2.0866,1.9599,0.0,0.0,0.0,0.0,0.0,0.0,0.0,0.0,0.0,0.0,0.0,2.0329,2.1423,2.2122,0.0,0.0,2.2784,2.2809,0.0,0.0,0.0,0.0,0.0,0.0,0.0,0.0,0.0,0.0,0.0,0.0,0.0,0.0,0.0,0.0,0.0,0.0,2.8952,3.0914,3.4476,0.0,4.2814,4.5767,4.8721,5.0603,5.1073,4.8384,4.4801,4.0721,0.0,0.0,2.9604,2.7855,2.749,2.7872,2.9083,2.8952,2.9501,3.2019,0.0,3.3776,3.79,3.9599,4.2082,0.0,0.0,0.0,0.0,0.0,0.0,0.0,0.0,0.0,4.9688,4.9479,4.9218,4.8855,4.825,4.8111,4.8431,4.7849,4.8181,4.9441,4.9394,4.9828,5.072,5.1054,5.1206,5.1206,5.1206,0.0,0.0,4.9942,4.9337,4.8917,4.7967,4.7489,4.7309,4.7309,4.7309,4.7309,0.0,0.0,0.0,0.0,0.0,0.0,0.0,1.9831,2.0889,2.2335,2.2894,2.3018,2.2563,2.124,2.0413,2.0392,0.0,0.0,0.0,0.0,0.0,0.0,0.0,0.0,0.0,0.0,0.0,2.2086,2.2678,2.3586,2.4766,2.423,2.3979,2.3954,0.0,0.0,0.0,0.0,0.0,0.0,0.0,0.0,0.0,0.0,0.0,0.0,0.0,0.0,0.0,0.0,0.0,0.0,0.0,2.9318,3.0155,3.4188,3.9416,4.4304,4.6083,4.8201,4.9374,4.7103,4.3885,4.0122,0.0,0.0,2.9604,2.7855,2.749,2.7872,2.9083,2.9292,2.9823,3.1536,3.2809,0.0,3.7508,3.9364,4.1482,0.0,0.0,0.0,0.0,0.0,0.0,0.0,0.0,0.0,4.9165,4.8538,4.8227,4.8227,4.7594,4.7851,4.8976,4.8381,4.8908,5.0469,5.0469,5.0715,5.1182,5.1206,5.1206,0.0,0.0,0.0,0.0,5.0196,4.9441,4.8319,4.8319,4.7878,4.7309,4.7309,4.7309,4.7309,0.0,0.0,0.0,0.0,0.0,0.0,0.0,1.8386,1.9155,2.0847,2.1199,2.1468,2.1963,2.1054,2.0413,2.0413,0.0,0.0,0.0,0.0,0.0,0.0,0.0,0.0,0.0,0.0,2.0483,2.1688,2.285,2.377,2.4461,2.4532,2.434,2.3979,2.3788,0.0,0.0,0.0,0.0,0.0,0.0,0.0,0.0,0.0,0.0,0.0,0.0,0.0,0.0,0.0,0.0,0.0,0.0,0.0,0.0,3.0704,3.4706,3.8945,4.0697,4.2892,4.399,4.1298,3.9181,3.6854,3.341,3.1033,2.917,2.7777,2.749,2.7742,2.8534,2.836,2.9022,3.194,3.2391,0.0,0.0,0.0,0.0,4.2683,4.6264,4.893,0.0,0.0,0.0,0.0,0.0,0.0,4.8541,4.8634,4.8401,4.7597,4.7759,4.7996,4.8381,4.8563,4.9272,5.0494,5.0084,5.0354,5.1206,5.1206,5.1206,0.0,0.0,0.0,0.0,4.9262,4.8656,4.8259,4.7788,4.7489,4.7309,4.7309,4.7309,4.7309,0.0,0.0,0.0,0.0,0.0,0.0,0.0,1.7585,1.8163,1.9462,1.9644,2.0058,2.1137,2.0289,1.9834,2.0372,0.0,0.0,0.0,0.0,0.0,0.0,0.0,0.0,0.0,1.9448,2.0482,2.207,2.2764,2.3821,2.5248,2.523,2.5021,2.4582,2.4406,0.0,0.0,0.0,0.0,0.0,0.0,0.0,2.3498,0.0,0.0,0.0,0.0,0.0,0.0,0.0,0.0,0.0,0.0,0.0,0.0,0.0,3.1149,3.411,3.6724,3.9102,4.0355,3.8109,3.6488,0.0,0.0,3.0014,2.8638,2.7445,2.735,2.7689,2.8298,2.8098,2.8699,3.1313,0.0,0.0,0.0,0.0,0.0,4.1898,0.0,0.0,0.0,0.0,0.0,0.0,0.0,0.0,4.855,4.8788,4.8627,4.7942,4.8218,4.8616,4.9011,4.9124,4.9695,5.0759,5.0373,5.0531,5.1206,5.1206,5.1056,0.0,0.0,0.0,0.0,4.8626,4.8169,4.7878,4.7459,4.7309,4.7309,4.7309,4.7309,4.7309,0.0,0.0,0.0,0.0,0.0,0.0,0.0,0.0,0.0,0.0,1.8294,1.8791,2.0061,1.9127,1.8899,0.0,0.0,0.0,0.0,0.0,0.0,0.0,0.0,0.0,0.0,1.9388,2.0421,2.2908,2.2641,2.3954,2.6755,2.6351,2.5937,2.5586,2.5067,0.0,0.0,0.0,0.0,0.0,0.0,0.0,0.0,0.0,0.0,0.0,0.0,0.0,0.0,0.0,0.0,0.0,0.0,0.0,0.0,0.0,0.0,0.0,0.0,3.641,3.7799,3.6671,3.5208,3.3326,3.0615,2.917,0.0,2.6964,2.7141,2.7689,2.8351,2.8429,2.8804,0.0,0.0,0.0,0.0,3.6593,0.0,0.0,0.0,0.0,0.0,0.0,0.0,0.0,0.0,0.0,4.9144,4.9043,4.8998,4.8942,4.899,4.9475,5.0436,4.9921,5.0162,5.1206,5.1146,5.1116,5.1116,5.1116,5.0757,0.0,0.0,0.0,0.0,4.8259,4.7848,4.7309,4.7309,4.7309,4.7309,4.7309,4.7309,4.7309,0.0,0.0,0.0,0.0,0.0,0.0,0.0,0.0,0.0,0.0,1.7316,1.7585,1.8267,1.8361,1.8522,0.0,0.0,0.0,0.0,0.0,0.0,0.0,0.0,0.0,0.0,1.981,2.0749,2.2082,2.3635,2.5062,2.6433,2.7216,2.6873,2.5586,2.546,0.0,0.0,0.0,0.0,0.0,0.0,0.0,0.0,0.0,0.0,0.0,2.4111,2.4491,0.0,0.0,0.0,0.0,0.0,0.0,0.0,0.0,2.7801,2.8821,2.9763,0.0,3.1843,3.0712,3.0469,3.0208,0.0,0.0,0.0,0.0,0.0,2.782,2.89,2.8717,2.9214,0.0,0.0,0.0,3.4842,0.0,0.0,0.0,0.0,0.0,0.0,0.0,0.0,0.0,0.0,5.0532,4.9649,4.9962,4.9914,4.9449,4.9716,4.9884,4.9818,4.9976,5.0434,5.1176,5.0697,5.0458,5.0458,5.0458,5.0099,0.0,0.0,0.0,4.8259,4.7758,4.7429,4.7309,4.7309,4.7309,4.7309,4.7309,4.7309,4.7309,0.0,0.0,0.0,0.0,0.0,0.0,0.0,0.0,0.0,0.0,0.0,0.0,0.0,0.0,0.0,0.0,0.0,0.0,0.0,0.0,0.0,0.0,0.0,0.0,1.9409,1.9889,2.0979,2.2719,2.387,2.5436,2.7304,2.7699,2.7333,2.6331,2.5375,0.0,0.0,0.0,0.0,0.0,2.2883,0.0,0.0,0.0,0.0,0.0,2.4006,2.4491,0.0,2.5291,2.5971,2.6624,0.0,0.0,0.0,0.0,2.6912,2.7618,2.7618,2.883,2.991,2.9031,2.9057,2.9135,2.8534,2.8194,0.0,0.0,0.0,2.7794,2.8717,2.8905,0.0,0.0,3.3005,0.0,0.0,0.0,0.0,0.0,0.0,0.0,0.0,0.0,0.0,0.0,0.0,5.1033,5.0175,5.0265,5.0204,4.9904,4.9822,4.9816,4.9875,4.9816,4.9972,5.0331,4.9972,4.9793,4.9793,4.9793,4.9434,0.0,0.0,0.0,4.7818,4.7459,4.7309,4.7309,4.7309,4.7309,4.7309,4.7309,4.7309,4.7249,0.0,0.0,0.0,0.0,0.0,0.0,0.0,0.0,0.0,0.0,0.0,0.0,0.0,0.0,0.0,0.0,0.0,0.0,0.0,0.0,0.0,0.0,0.0,1.9347,1.9886,1.9907,2.1096,2.3602,2.4021,2.5587,2.8191,2.8096,2.7753,2.7102,2.5228,2.4091,0.0,0.0,0.0,0.0,2.3249,0.0,0.0,0.0,0.0,0.0,0.0,0.0,0.0,2.5417,2.6007,2.652,2.6363,0.0,0.0,0.0,0.0,0.0,2.6912,2.8438,2.9831,2.917,2.9083,2.9004,2.8403,2.7872,0.0,0.0,0.0,0.0,2.8662,2.9176,0.0,0.0,0.0,0.0,4.0832,4.1239,0.0,0.0,0.0,0.0,0.0,0.0,0.0,0.0,0.0,5.1713,5.0529,5.0295,5.0136,5.0069,4.9464,4.9396,4.992,4.9404,4.9187,4.9277,4.9187,4.9157,4.9157,4.9157,4.8768,4.8169,0.0,0.0,4.7309,4.7309,4.7309,4.7309,4.7309,4.7309,4.7309,4.7189,4.716,4.704,0.0,0.0,0.0,0.0,0.0,0.0,0.0,0.0,0.0,0.0,0.0,0.0,0.0,0.0,0.0,0.0,0.0,0.0,0.0,0.0,0.0,0.0,1.9098,1.9475,2.0289,2.031,2.1086,2.2696,2.5041,2.6388,2.684,2.908,2.8887,2.6592,2.5577,2.4571,2.3577,0.0,0.0,0.0,0.0,0.0,0.0,0.0,0.0,0.0,0.0,0.0,0.0,2.4517,2.5051,2.5756,2.479,0.0,0.0,0.0,0.0,0.0,2.788,2.8769,2.9144,2.8055,2.815,2.8377,2.7768,0.0,0.0,0.0,0.0,0.0,0.0,2.998,3.0227,0.0,0.0,0.0,0.0,0.0,0.0,0.0,0.0,0.0,0.0,0.0,0.0,0.0,0.0,5.1637,5.0315,5.0216,4.9979,4.9456,4.8798,4.8498,4.8596,4.8498,4.8738,4.9299,4.8708,4.8468,4.8468,4.8468,4.8087,4.7459,0.0,4.7399,4.7309,4.7309,4.7309,4.7309,4.7309,4.7309,4.7249,4.6659,4.645,4.6271,0.0,0.0,0.0,0.0,0.0,0.0,0.0,0.0,0.0,0.0,0.0,0.0,0.0,0.0,0.0,0.0,0.0,0.0,0.0,0.0,0.0,1.9768,1.9578,1.9679,2.0076,2.0555,2.1709,2.3584,2.5856,2.7298,2.7918,2.8825,2.8097,2.5996,2.5517,2.4679,2.3603,0.0,0.0,0.0,0.0,0.0,0.0,0.0,0.0,0.0,0.0,0.0,0.0,0.0,2.4936,2.5291,2.4768,0.0,0.0,0.0,0.0,0.0,2.6494,2.7644,2.8612,2.7715,2.8466,2.9285,0.0,0.0,0.0,0.0,0.0,0.0,0.0,0.0,0.0,0.0,0.0,0.0,0.0,0.0,0.0,0.0,0.0,0.0,0.0,0.0,0.0,0.0,0.0,0.0,4.9763,4.9374,4.9045,4.8768,4.8087,4.7758,4.7758,4.7758,4.7908,4.8229,4.7908,4.7758,4.7758,4.7758,4.7578,4.7309,0.0,4.7309,4.7279,4.6899,4.6749,4.6719,4.6352,4.6232,4.6172,4.5873,4.5523,4.5134,0.0,0.0,0.0,0.0,0.0,0.0,0.0,0.0,0.0,0.0,0.0,0.0,0.0,0.0,0.0,0.0,0.0,0.0,0.0,0.0,1.9392,2.0061,1.9993,2.0155,2.0591,2.1135,2.2548,2.4847,2.6626,2.8169,2.9444,2.8511,2.7286,2.5845,2.5473,2.4695,2.3688,2.3993,2.3823,0.0,0.0,0.0,0.0,0.0,0.0,0.0,0.0,0.0,0.0,0.0,0.0,0.0,0.0,0.0,0.0,2.4413,2.4936,2.5589,2.5437,2.6755,2.8072,2.7637,0.0,0.0,0.0,0.0,0.0,0.0,0.0,0.0,0.0,3.3477,0.0,0.0,0.0,0.0,0.0,0.0,0.0,0.0,0.0,0.0,0.0,0.0,0.0,0.0,0.0,0.0,4.8858,4.8498,4.8229,4.8057,4.7578,4.7309,4.7309,4.7309,4.7309,4.7309,4.7309,4.7309,4.7309,4.7309,4.7309,4.7309,4.7108,4.707,4.6988,4.633,4.6061,4.6001,4.5514,4.5185,4.5065,4.5065,4.4646,4.4057,0.0,0.0,0.0,0.0,0.0,0.0,0.0,0.0,0.0,0.0,0.0,0.0,0.0,0.0,0.0,0.0,0.0,0.0,0.0,0.0,1.9139,1.9202,1.9934,2.1158,2.2914,2.2584,2.3561,2.5877,2.7266,2.881,3.0463,2.8863,2.7583,2.6578,2.57,2.4772,2.3891,2.4052,2.4084,2.4032,0.0,0.0,0.0,0.0,0.0,0.0,0.0,0.0,0.0,0.0,0.0,0.0,0.0,0.0,2.4267,2.4768,2.4992,2.528,2.63,2.7053,2.7542,2.7516,2.8028,0.0,3.0845,3.1304,0.0,3.2956,0.0,0.0,0.0,0.0,0.0,0.0,0.0,0.0,0.0,0.0,0.0,0.0,0.0,0.0,0.0,0.0,0.0,0.0,0.0,0.0,4.7519,4.7967,4.7997,4.7399,4.7339,4.7309,4.7309,4.7309,4.7309,4.7309,4.7309,4.7309,4.7309,4.7309,4.7309,4.7279,4.6629,4.636,4.633,4.5663,4.5364,4.5364,4.5304,4.4915,4.4356,4.4356,4.3938,4.3299,0.0,0.0,0.0,0.0,0.0,0.0,0.0,0.0,0.0,0.0,0.0,0.0,0.0,0.0,0.0,0.0,0.0,0.0,0.0,0.0,1.933,1.9893,2.0227,2.1013,2.2294,2.2998,2.4054,2.5507,2.7049,2.861,3.0055,2.804,2.6769,2.6155,2.5183,2.4612,2.4371,2.4168,2.4111,2.4111,2.4111,0.0,0.0,0.0,0.0,0.0,0.0,0.0,0.0,0.0,2.4111,2.4111,2.4111,2.4111,2.4137,2.436,2.4715,2.5018,2.5066,2.6279,2.7428,2.7079,2.7723,0.0,0.0,3.276,3.3579,3.445,0.0,0.0,0.0,0.0,0.0,0.0,0.0,0.0,0.0,0.0,0.0,0.0,0.0,0.0,0.0,0.0,0.0,0.0,0.0,0.0,4.7369,4.716,4.6929,4.6689,4.6292,4.6052,4.6052,4.6052,4.6052,4.6052,4.6501,4.645,4.6052,4.6052,4.6052,4.6052,4.5783,4.5693,4.5633,4.4945,4.4676,4.4646,4.4207,4.3908,4.3698,4.3698,4.3628,4.3467,0.0,0.0,0.0,0.0,0.0,0.0,0.0,0.0,0.0,0.0,0.0,0.0,0.0,0.0,0.0,0.0,0.0,0.0,0.0,1.9098,1.9371,1.9975,2.0248,2.0765,2.155,2.3101,2.4472,2.5637,2.7453,2.8759,2.9478,2.749,2.6468,2.6205,2.5227,2.4782,2.4773,2.4499,2.4267,2.4111,2.4111,2.3629,0.0,0.0,0.0,0.0,0.0,0.0,0.0,0.0,2.4111,2.4111,2.4111,2.4111,2.4111,2.4111,2.4387,2.4637,2.4215,2.5506,2.6997,2.7035,0.0,0.0,3.319,3.4577,3.5497,3.6934,0.0,0.0,0.0,0.0,0.0,0.0,0.0,0.0,0.0,0.0,0.0,0.0,0.0,0.0,0.0,0.0,0.0,0.0,0.0,0.0,0.0,4.6211,4.5971,4.5971,4.5544,4.5304,4.5304,4.5304,4.5095,4.4676,4.5343,4.5523,4.5304,4.5304,4.5304,4.5274,4.5065,4.4975,4.4945,4.4267,4.3997,4.3938,4.3489,4.319,4.301,4.301,4.3048,4.3001,0.0,0.0,0.0,0.0,0.0,0.0,0.0,0.0,0.0,0.0,0.0,0.0,0.0,0.0,0.0,0.0,0.0,0.0,1.9098,1.9098,1.9098,1.9098,1.9934,2.062,2.1075,2.2935,2.4775,2.6602,2.8743,2.9459,2.8856,2.7377,2.6782,2.6943,2.601,2.5371,2.4992,2.4992,2.4663,2.4111,2.4111,2.4111,0.0,0.0,0.0,0.0,0.0,0.0,0.0,0.0,2.4111,2.4111,2.4111,2.4111,2.4111,2.4111,2.4111,2.4111,2.4111,2.4947,2.6127,0.0,0.0,0.0,3.6029,3.6874,3.7346,4.0721,0.0,0.0,0.0,0.0,0.0,0.0,0.0,0.0,0.0,0.0,0.0,0.0,0.0,0.0,0.0,0.0,0.0,0.0,0.0,0.0,0.0,4.5274,4.5274,4.5274,4.5274,4.5244,4.5244,4.5244,4.4616,4.329,4.3938,4.4616,4.5274,4.5274,4.5274,4.5244,4.4586,4.4296,4.4237,4.3579,4.329,4.329,4.329,4.291,4.2381,4.2381,4.2106,4.1644,0.0,0.0,0.0,0.0,0.0,0.0,0.0,0.0,0.0,0.0,0.0,0.0,0.0,0.0,0.0,0.0,0.0,0.0,1.9098,1.9098,1.9098,1.9098,1.9661,2.0034,2.0179,2.2382,2.4648,2.6872,2.7739,2.803,2.7745,2.6516,2.5869,2.5781,2.5496,2.5236,2.4992,2.4992,2.4913,2.4689,2.4267,2.4111,2.4111,0.0,0.0,0.0,0.0,0.0,0.0,0.0,0.0,0.0,2.4111,2.4387,2.4663,2.4215,2.4413,2.4637,2.4215,2.5249,0.0,2.8171,0.0,0.0,0.0,3.6068,0.0,0.0,0.0,0.0,0.0,0.0,0.0,0.0,0.0,0.0,0.0,0.0,0.0,0.0,0.0,0.0,0.0,0.0,0.0,0.0,0.0,0.0,0.0,4.4407,4.3908,4.3958,4.305,4.2571,4.2571,4.2571,4.2361,4.1953,4.2162,4.2601,4.3259,4.3718,4.3878,4.3878,4.3698,4.3609,4.3549,4.291,4.2661,4.2631,4.2132,4.1959,4.1893,4.1893,4.1904,4.1758,0.0,0.0,0.0,0.0,0.0,0.0,0.0,0.0,0.0,0.0,0.0,0.0,0.0,0.0,0.0,0.0,0.0,0.0,0.0,0.0,1.9098,1.9098,1.9367,1.9682,2.0034,2.2426,2.4297,2.5531,2.6346,2.6825,2.6977,2.6409,2.6095,2.5986,2.6381,2.6093,2.5317,2.5317,2.5186,2.4966,2.4611,2.4465,2.4465,0.0,0.0,0.0,0.0,0.0,0.0,0.0,0.0,0.0,2.4111,2.436,2.4584,2.4215,2.436,2.4611,2.4491,2.5552,0.0,2.9359,3.0635,3.2273,3.5939,0.0,0.0,0.0,0.0,0.0,0.0,0.0,0.0,0.0,0.0,0.0,0.0,0.0,0.0,0.0,0.0,0.0,0.0,0.0,0.0,0.0,0.0,0.0,0.0,4.312,4.2551,4.2601,4.1822,4.1403,4.1403,4.1403,4.1283,4.1014,4.1283,4.1463,4.1643,4.2521,4.2821,4.2551,4.2551,4.2681,4.288,4.2271,4.2059,4.2087,4.1697,4.1479,4.1387,4.1011,4.0885,4.0725,0.0,0.0,0.0,0.0,0.0,0.0,0.0,0.0,0.0,0.0,1.6388,0.0,0.0,0.0,0.0,0.0,0.0,0.0,0.0,0.0,1.9098,1.9098,1.9181,1.962,2.0454,2.2768,2.3728,2.3235,2.4815,2.5854,2.6348,2.6782,2.6934,2.6883,2.785,2.7298,2.5652,2.5652,2.5328,2.4835,2.4835,2.4835,2.4835,2.4835,0.0,0.0,0.0,0.0,0.0,0.0,0.0,0.0,2.4111,2.4137,2.4163,2.4111,2.4137,2.4323,2.4989,0.0,0.0,3.1005,3.2224,0.0,3.5538,0.0,0.0,0.0,0.0,0.0,0.0,0.0,0.0,0.0,0.0,0.0,0.0,0.0,0.0,0.0,0.0,0.0,0.0,0.0,0.0,0.0,0.0,0.0,0.0,4.1673,4.1313,4.1313,4.1254,4.1194,4.1134,4.1134,4.0804,4.0127,4.0726,4.0715,4.0187,4.1643,4.1991,4.1403,4.1403,4.1733,4.2261,4.1583,4.1378,4.1498,4.1516,4.1193,4.063,3.9924,3.9399,3.8954,0.0,0.0,0.0,0.0,0.0,0.0,0.0,0.0,0.0,0.0,0.0,0.0,0.0,0.0,0.0,0.0,0.0,0.0,0.0,0.0,1.9098,1.9098,1.9748,2.0372,2.093,2.2192,2.2805,2.2674,2.4644,2.546,2.5184,2.6316,2.6433,2.572,2.698,2.6375,2.4476,2.4476,2.4137,2.3602,2.3602,2.3602,2.3602,2.3602,2.351,0.0,0.0,0.0,0.0,0.0,0.0,0.0,2.4111,2.4439,2.4715,2.4241,2.4439,2.5034,2.6193,2.6598,0.0,0.0,3.6265,3.8465,3.8219,4.005,0.0,0.0,0.0,0.0,0.0,0.0,0.0,0.0,0.0,0.0,0.0,0.0,0.0,0.0,0.0,0.0,0.0,0.0,0.0,0.0,0.0,0.0,4.1613,4.0984,4.0606,4.0606,4.0098,3.9589,3.9068,3.9068,3.8691,0.0,3.8182,3.8182,3.8123,4.0535,4.1523,4.1403,4.1403,4.1493,4.1553,4.0894,4.0325,3.9913,4.0064,3.9501,3.8688,3.9022,3.8766,3.8149,0.0,0.0,0.0,0.0,0.0,0.0,0.0,0.0,0.0,0.0,0.0,0.0,0.0,0.0,0.0,0.0,0.0,0.0,0.0,0.0,0.0,1.9098,1.9744,2.012,2.0141,2.1461,2.2057,2.1838,2.3651,2.4668,2.4962,2.6332,2.6704,2.6287,2.7365,2.6596,2.4517,2.4215,2.3745,2.3196,2.3196,2.3196,2.3196,2.3196,2.3054,2.2858,2.3106,0.0,0.0,0.0,0.0,0.0,0.0,0.0,2.4517,2.4189,2.4334,2.4891,2.6451,0.0,0.0,3.2946,0.0,4.0135,3.9061,4.0168,4.1379,0.0,0.0,0.0,0.0,0.0,0.0,0.0,0.0,0.0,0.0,0.0,0.0,0.0,0.0,0.0,0.0,0.0,0.0,0.0,0.0,4.0756,4.0457,3.9798,3.929,3.896,3.8614,3.8255,3.7913,3.7913,3.7798,3.7554,3.7554,3.7588,3.7686,3.8912,4.0063,4.0988,4.0254,4.0021,4.0076,3.9643,3.9139,3.8727,3.8762,3.8512,3.8141,3.8074,3.803,3.7957,0.0,0.0,0.0,0.0,0.0,0.0,0.0,0.0,0.0,0.0,0.0,0.0,0.0,0.0,0.0,0.0,0.0,0.0,0.0,0.0,0.0,1.9202,1.9596,1.9658,1.933,2.0947,2.1593,2.1229,2.2659,0.0,0.0,0.0,2.6991,2.703,2.7786,2.6834,2.4652,2.4047,2.3458,2.2909,2.2909,2.2909,2.2909,2.2909,2.2635,2.2296,2.274,2.2961,2.3158,2.364,0.0,0.0,0.0,0.0,2.398,2.4084,2.4111,2.4508,2.6313,0.0,2.9297,3.2397,3.6521,0.0,3.8416,3.9499,4.0715,0.0,0.0,0.0,0.0,0.0,0.0,0.0,0.0,0.0,0.0,0.0,0.0,0.0,0.0,0.0,0.0,0.0,0.0,0.0,0.0,3.9768,3.9092,3.8542,3.7973,3.7434,3.7387,3.7345,3.7289,3.7289,3.7314,3.7426,3.7426,3.7537,3.7745,3.7355,3.8232,4.0016,3.8797,3.8382,3.8504,3.833,3.8043,3.7788,3.7866,3.7958,3.801,3.7519,3.7654,3.7976,0.0,0.0,0.0,0.0,0.0,0.0,0.0,0.0,0.0,0.0,0.0,0.0,0.0,0.0,0.0,0.0,0.0,0.0,1.7792,0.0,0.0,1.9679,1.9761,1.9931,2.0206,2.1245,2.1776,2.1707,0.0,0.0,0.0,0.0,0.0,2.5864,0.0,2.5631,2.3405,2.2858,2.2283,2.1734,2.1734,2.1734,2.1734,2.1734,0.0,0.0,2.1707,2.206,2.2506,2.261,2.2623,0.0,0.0,0.0,2.3431,2.3954,2.4111,2.4522,2.6373,0.0,3.2544,0.0,3.4578,3.7422,0.0,0.0,3.7943,0.0,0.0,0.0,0.0,0.0,0.0,0.0,0.0,0.0,0.0,0.0,0.0,0.0,0.0,0.0,0.0,0.0,0.0,0.0,3.8739,3.8362,3.7686,3.7584,3.7494,3.7387,3.7387,3.7203,3.6813,3.6797,3.6611,3.623,3.623,3.6534,3.711,3.6471,3.6858,3.8082,3.7884,3.7794,3.7811,3.7623,3.7267,3.7006,3.8263,3.8058,3.7233,3.8388,3.8476,3.7987,0.0,0.0,0.0,0.0,0.0,0.0,0.0,0.0,0.0,0.0,0.0,0.0,0.0,0.0,0.0,1.667,1.685,1.7063,1.728,1.8195,1.8808,1.9015,1.9264,1.9475,1.9665,2.0814,2.1468,2.1581,0.0,0.0,0.0,2.5869,2.6287,0.0,0.0,0.0,0.0,2.2766,2.1891,2.1054,2.1054,2.1054,2.1054,0.0,0.0,0.0,0.0,0.0,0.0,0.0,0.0,2.244,2.2675,0.0,0.0,0.0,2.3849,2.4587,2.6745,2.9591,3.1952,0.0,3.3941,3.5669,3.5705,0.0,3.6891,0.0,0.0,0.0,0.0,0.0,0.0,0.0,0.0,0.0,0.0,0.0,0.0,0.0,0.0,0.0,0.0,0.0,0.0,0.0,3.7853,3.7554,3.6926,3.6896,3.6716,3.6357,3.6427,3.6359,3.614,3.6237,3.623,3.6132,3.6226,3.6411,3.6716,3.6426,3.6664,3.7298,3.7198,3.7138,3.7161,3.7416,3.7445,3.7389,3.8023,3.7981,3.7589,3.8243,3.8491,3.8539,0.0,0.0,0.0,0.0,0.0,0.0,0.0,0.0,0.0,0.0,0.0,0.0,0.0,0.0,0.0,0.0,1.6388,1.656,1.6971,1.7766,1.8273,1.8398,1.8745,1.8994,1.9098,2.0404,2.1118,0.0,0.0,0.0,2.5381,2.5745,2.6459,0.0,2.6938,2.5735,0.0,0.0,0.0,0.0,0.0,0.0,0.0,0.0,0.0,0.0,0.0,0.0,0.0,0.0,0.0,0.0,0.0,0.0,0.0,0.0,0.0,0.0,0.0,0.0,3.0011,3.1561,3.2649,3.3742,0.0,0.0,3.5851,0.0,0.0,0.0,0.0,0.0,0.0,0.0,0.0,0.0,0.0,0.0,0.0,0.0,0.0,0.0,0.0,0.0,0.0,0.0,3.7165,3.6896,3.6267,3.6254,3.5998,3.5519,3.5589,3.5672,3.5768,3.6021,3.6087,3.6013,3.6368,3.6477,3.6491,3.6631,3.6832,3.6969,3.6836,3.6813,3.6846,3.7436,3.7736,3.7879,3.8005,3.8147,3.8241,3.8451,3.8813,3.9236,0.0,0.0,0.0,0.0,0.0,0.0,0.0,0.0,0.0,0.0,0.0,0.0,0.0,1.6429,1.6409,1.6388,1.6388,1.656,1.6971,1.7461,1.7931,1.8377,1.8418,0.0,1.9098,2.0404,2.0925,0.0,0.0,0.0,2.4786,2.572,2.6669,2.7464,2.6938,2.5735,2.4058,0.0,0.0,0.0,0.0,0.0,0.0,0.0,0.0,0.0,0.0,0.0,0.0,0.0,0.0,0.0,0.0,0.0,0.0,0.0,0.0,0.0,0.0,2.6099,0.0,2.8458,2.9762,0.0,0.0,0.0,0.0,0.0,0.0,0.0,0.0,0.0,0.0,0.0,0.0,0.0,0.0,0.0,0.0,0.0,0.0,0.0,0.0,0.0,0.0,0.0,3.6553,3.6237,3.5579,3.5549,3.5549,3.5519,3.5519,3.5667,3.5973,3.6305,3.6153,3.5522,3.6168,3.6474,3.644,3.7042,3.7184,3.6908,3.7044,3.7072,3.7115,3.7592,3.7865,3.8044,3.8635,3.8854,3.8935,3.9701,4.0003,4.0049,0.0,0.0,0.0,0.0,0.0,0.0,0.0,0.0,0.0,0.0,0.0,0.0,0.0,1.6388,1.6388,1.6388,1.6388,1.645,1.6601,1.7006,1.7461,1.7931,1.8253,1.8815,1.9721,2.0629,0.0,0.0,0.0,2.3357,2.4194,2.465,2.522,2.5918,2.6441,2.596,2.4611,2.3614,0.0,0.0,0.0,0.0,0.0,0.0,0.0,0.0,0.0,0.0,0.0,0.0,0.0,0.0,0.0,0.0,0.0,0.0,0.0,0.0,0.0,0.0,0.0,2.9171,2.9205,2.9401,3.2199,3.2476,3.2674,0.0,0.0,0.0,0.0,0.0,0.0,0.0,0.0,0.0,0.0,0.0,0.0,0.0,0.0,0.0,0.0,0.0,0.0,0.0,0.0,3.5759,3.5519,3.5519,3.5538,3.5637,3.575,3.5791,3.5661,3.5354,3.5106,3.4874,3.546,3.5734,3.571,3.6284,3.6759,3.7118,3.7537,3.764,3.7491,3.8205,3.8805,3.9256,3.9545,3.9662,3.9701,3.9978,4.0113,4.0113,0.0,0.0,0.0,0.0,0.0,0.0,0.0,0.0,0.0,0.0,0.0,0.0,0.0,0.0,1.6829,1.6829,1.6829,1.6829,1.6829,1.6944,1.7275,1.791,1.8092,1.878,2.008,0.0,0.0,0.0,0.0,0.0,0.0,2.3815,2.4275,2.4715,2.55,2.5526,0.0,0.0,0.0,2.2961,0.0,0.0,2.2726,0.0,0.0,0.0,0.0,0.0,0.0,0.0,0.0,0.0,0.0,0.0,0.0,0.0,0.0,0.0,2.6273,0.0,0.0,0.0,2.8134,2.7797,3.0866,0.0,3.1622,0.0,0.0,0.0,0.0,0.0,0.0,0.0,0.0,0.0,0.0,0.0,0.0,0.0,0.0,0.0,0.0,0.0,0.0,0.0,0.0,0.0,3.519,3.516,3.5121,3.5024,3.5259,3.5294,3.5078,3.4691,3.4484,3.4392,3.4994,3.5385,3.5538,3.6142,3.6633,3.7104,3.7734,3.8081,3.8215,3.8984,3.9558,3.9973,4.0075,4.0113,4.0113,4.0113,4.0113,4.0113,0.0,0.0,0.0,0.0,0.0,0.0,0.0,0.0,0.0,0.0,0.0,0.0,0.0,0.0,0.0,1.7709,1.7709,1.7709,1.7709,1.726,1.742,1.8356,1.7952,1.8485,2.009,0.0,0.0,0.0,0.0,0.0,0.0,0.0,2.3901,2.4058,2.4058,2.4387,2.4913,0.0,2.4084,2.4084,0.0,2.3249,2.3458,0.0,0.0,0.0,2.5615,2.5458,0.0,0.0,0.0,0.0,0.0,0.0,0.0,0.0,0.0,0.0,0.0,0.0,0.0,0.0,0.0,0.0,2.9059,0.0,3.0791,0.0,0.0,0.0,0.0,0.0,0.0,0.0,0.0,0.0,0.0,0.0,0.0,0.0,0.0,0.0,0.0,0.0,0.0,0.0,3.5459,3.516,3.4488,3.4474,3.4252,3.3728,3.4014,3.4193,3.4208,3.4384,3.439,3.4194,3.4934,3.5514,3.5979,3.6638,3.6889,3.6818,3.755,3.8359,3.9222,3.9817,4.0079,4.0113,4.0113,4.0113,4.0113,4.0113,4.0113,4.0113,0.0,0.0,0.0,0.0,0.0,0.0,0.0,0.0,0.0,0.0,0.0,0.0,0.0,0.0,1.7709,1.7709,1.7709,1.7709,1.7709,1.7585,1.7771,1.8377,1.8273,1.9105,2.1012,0.0,0.0,0.0,0.0,0.0,0.0,0.0,0.0,0.0,2.2872,2.3172,2.3681,2.351,0.0,0.0,2.4084,2.4331,0.0,0.0,0.0,0.0,0.0,2.5395,0.0,0.0,2.4998,2.5334,0.0,0.0,0.0,0.0,0.0,0.0,2.6533,0.0,0.0,0.0,0.0,0.0,2.7875,2.836,2.8984,0.0,0.0,0.0,0.0,0.0,0.0,0.0,0.0,0.0,0.0,0.0,0.0,0.0,0.0,0.0,0.0,0.0,0.0,0.0,3.4053,3.3963,3.3799,3.403,3.4076,3.391,3.3719,3.3818,3.421,3.3764,3.3728,3.4073,3.4661,3.4997,3.516,3.5736,3.6284,3.6829,3.7021,3.7535,3.8311,3.9023,3.9626,4.0113,4.0113,4.0113,4.0113,4.0113,4.0113,4.0163,0.0,0.0,0.0,0.0,0.0,0.0,0.0,0.0,0.0,0.0,0.0,0.0,0.0,0.0,0.0,1.8299,1.8283,1.8283,1.8283,1.8097,1.8195,1.8667,1.8501,1.9313,2.1234,0.0,0.0,0.0,0.0,0.0,0.0,0.0,0.0,0.0,0.0,0.0,0.0,0.0,0.0,0.0,2.4517,0.0,0.0,2.5861,2.6321,0.0,0.0,0.0,2.6761,2.5996,2.6123,0.0,0.0,0.0,0.0,0.0,0.0,0.0,0.0,0.0,0.0,0.0,0.0,0.0,2.6686,2.7283,2.7983,0.0,3.0089,0.0,0.0,0.0,0.0,0.0,0.0,0.0,0.0,0.0,0.0,0.0,0.0,0.0,0.0,3.3095,3.3215,3.3484,3.3484,3.3365,3.3095,3.3139,3.3165,3.3165,3.3057,3.3246,3.3769,3.3403,3.3572,3.4346,3.4649,3.4911,3.5155,3.5475,3.5847,3.6299,3.6299,3.6738,3.7483,3.79,3.8713,3.9626,3.9626,3.9842,4.0113,4.0113,4.0217,4.0439,0.0,0.0,0.0,0.0,0.0,0.0,0.0,0.0,0.0,0.0,0.0,0.0,0.0,0.0,0.0,0.0,1.916,1.9119,1.9181,1.8745,0.0,0.0,1.8818,0.0,0.0,0.0,0.0,0.0,0.0,0.0,0.0,0.0,0.0,0.0,0.0,0.0,0.0,0.0,0.0,2.4137,2.4768,2.5395,0.0,0.0,2.8376,0.0,2.854,2.8618,2.8593,2.7562,2.7412,0.0,0.0,0.0,0.0,0.0,2.6704,0.0,0.0,0.0,0.0,0.0,0.0,0.0,2.5723,2.6625,2.7496,2.7496,2.8551,0.0,0.0,0.0,0.0,0.0,0.0,0.0,0.0,0.0,0.0,0.0,0.0,0.0,3.2213,3.2273,3.2527,3.3125,3.3111,3.2826,3.2257,3.1945,3.187,3.2001,3.2249,3.2698,3.3365,3.3378,3.389,3.4875,3.4875,3.5143,3.56,3.56,3.56,3.56,3.56,3.6028,3.666,3.6706,3.7678,3.9057,3.9029,3.9497,4.0241,4.0192,4.0488,4.0896,0.0,0.0,0.0,0.0,0.0,0.0,0.0,0.0,0.0,0.0,0.0,0.0,0.0,0.0,0.0,0.0,1.9499,1.9264,1.9637,1.9222,1.9242,1.9868,0.0,0.0,0.0,0.0,0.0,0.0,0.0,0.0,0.0,0.0,0.0,0.0,0.0,0.0,0.0,0.0,0.0,2.4137,2.4768,0.0,2.7167,2.7069,2.8256,2.9956,2.947,2.9991,3.078,0.0,2.8843,2.773,0.0,0.0,0.0,0.0,0.0,0.0,0.0,0.0,0.0,0.0,0.0,0.0,2.5839,2.6307,2.688,0.0,2.7906,0.0,0.0,0.0,0.0,0.0,0.0,0.0,0.0,0.0,0.0,0.0,0.0,0.0,3.0881,3.0881,3.0927,3.1091,3.074,3.052,3.0492,3.0529,3.1001,3.1958,3.2147,3.2965,3.4459,3.4504,3.4804,3.543,3.543,3.5509,3.56,3.56,3.56,3.56,3.56,3.5678,3.5847,3.6235,3.7669,3.9512,3.9142,3.9911,4.1185,4.0814,4.0943,4.1444,0.0,0.0,0.0,0.0,0.0,0.0,0.0,0.0,0.0,0.0,0.0,0.0,0.0,0.0,0.0,0.0,0.0,0.0,0.0,0.0,0.0,0.0,0.0,0.0,0.0,0.0,0.0,0.0,0.0,0.0,0.0,0.0,0.0,0.0,0.0,0.0,0.0,0.0,2.3823,2.4189,2.504,0.0,2.7653,2.8305,2.9679,3.1284,3.1031,3.1162,3.1349,3.03,2.9565,0.0,0.0,2.838,2.8111,0.0,2.7842,2.7585,0.0,0.0,0.0,2.7585,0.0,0.0,0.0,2.5641,2.5747,2.6083,2.6674,2.732,2.7991,0.0,0.0,0.0,0.0,0.0,0.0,0.0,0.0,0.0,0.0,0.0,3.0057,3.0057,3.0084,3.0139,2.9937,2.9863,2.998,3.0138,3.0587,3.1425,3.1577,3.2308,3.3677,3.371,3.4173,3.5036,3.5036,3.5239,3.56,3.56,3.56,3.5611,3.5866,3.5965,3.5963,3.643,3.7619,3.9189,3.9118,3.9843,4.0929,4.1091,4.1499,4.1983,0.0,0.0,0.0,0.0,0.0,0.0,0.0,0.0,0.0,0.0,0.0,0.0,0.0,0.0,0.0,0.0,0.0,0.0,0.0,0.0,0.0,0.0,2.0604,2.1069,0.0,0.0,0.0,0.0,0.0,0.0,0.0,0.0,0.0,0.0,0.0,0.0,0.0,0.0,0.0,2.4346,0.0,2.6495,2.7714,2.954,3.0962,3.2083,3.247,3.2214,3.1521,3.0366,0.0,3.0313,2.9146,2.8697,0.0,0.0,0.0,0.0,0.0,0.0,0.0,0.0,0.0,2.6123,0.0,0.0,0.0,2.5674,2.5794,0.0,0.0,0.0,0.0,0.0,0.0,0.0,0.0,0.0,0.0,0.0,0.0,0.0,0.0,2.9398,2.9435,2.9461,2.9445,2.9563,2.9806,2.9935,3.0322,3.1,3.1133,3.1699,3.2741,3.2752,3.3339,3.4516,3.4516,3.4878,3.56,3.56,3.5656,3.5767,3.6148,3.6336,3.6451,3.6841,3.7591,3.8576,3.9035,3.9799,4.069,4.141,4.2056,4.2547,1.9098,1.9098,0.0,0.0,0.0,0.0,0.0,0.0,0.0,0.0,0.0,0.0,0.0,0.0,0.0,0.0,0.0,0.0,2.219,0.0,0.0,0.0,0.0,0.0,2.3673,0.0,0.0,0.0,0.0,0.0,0.0,0.0,0.0,0.0,2.3771,0.0,0.0,0.0,2.4413,0.0,2.5563,2.6212,0.0,2.8831,3.0356,3.1665,3.292,3.2958,3.2348,0.0,3.1407,3.0372,0.0,2.9069,0.0,0.0,0.0,0.0,0.0,0.0,0.0,0.0,2.7931,0.0,0.0,0.0,2.6393,2.6452,0.0,0.0,0.0,0.0,0.0,0.0,0.0,0.0,0.0,0.0,0.0,0.0,0.0,0.0,0.0,2.8697,2.8561,2.823,2.8195,2.8486,2.9175,2.9222,2.9927,3.1473,3.155,3.2098,3.3294,3.3294,3.3708,3.4516,3.4516,3.4878,3.56,3.56,3.5844,3.621,3.6262,3.6512,3.686,3.7274,3.7586,3.7918,3.8978,4.035,4.1759,4.2214,4.2676,4.3142,1.9098,1.9098,0.0,0.0,0.0,0.0,0.0,0.0,0.0,0.0,0.0,0.0,0.0,0.0,0.0,0.0,0.0,2.188,0.0,0.0,0.0,0.0,0.0,0.0,0.0,0.0,0.0,0.0,2.3379,0.0,0.0,0.0,0.0,0.0,2.398,0.0,2.4111,0.0,0.0,0.0,0.0,0.0,0.0,2.9343,3.1099,3.2634,3.2838,3.2721,3.2392,0.0,3.1226,0.0,0.0,0.0,0.0,0.0,0.0,0.0,0.0,0.0,0.0,0.0,0.0,0.0,0.0,0.0,2.6123,0.0,0.0,0.0,0.0,0.0,0.0,0.0,2.6674,0.0,0.0,0.0,0.0,0.0,0.0,0.0,0.0,0.0,0.0,0.0,2.8332,2.8697,2.9074,2.9359,2.9956,3.094,3.0962,3.1347,3.2138,3.2138,3.2713,3.3863,3.3863,3.4461,3.5611,3.5899,3.6092,3.6315,3.6791,3.7132,3.7412,3.7801,3.8008,3.8193,3.9246,4.0302,4.1349,4.1969,4.2678,4.334,0.0,0.0,0.0,0.0,0.0,0.0,0.0,0.0,0.0,0.0,0.0,0.0,2.2666,2.2915,0.0,0.0,0.0,2.3442,0.0,0.0,2.2566,0.0,0.0,0.0,0.0,0.0,0.0,0.0,0.0,0.0,0.0,0.0,0.0,0.0,0.0,2.436,2.4375,0.0,0.0,2.5826,2.6885,2.7797,2.8617,2.9982,3.1527,3.2886,3.2392,3.2243,3.2093,3.1106,3.1092,0.0,3.0193,0.0,0.0,0.0,0.0,0.0,2.7645,0.0,0.0,0.0,0.0,0.0,0.0,0.0,0.0,0.0,0.0,0.0,0.0,0.0,0.0,0.0,0.0,2.6681,0.0,0.0,0.0,0.0,0.0,0.0,0.0,0.0,0.0,2.7753,2.8299,2.8816,2.928,2.9739,3.0204,3.0662,3.0672,3.0858,3.12,3.12,3.1935,3.3413,3.3186,3.3916,3.5494,3.5826,3.6108,3.6362,3.7177,3.7676,3.7898,3.8188,3.836,3.8485,3.9162,3.9943,4.0781,4.1722,4.2714,4.3555,1.9098,1.9098,0.0,0.0,0.0,0.0,0.0,0.0,0.0,0.0,0.0,0.0,0.0,0.0,0.0,0.0,0.0,2.5867,2.626,0.0,2.4413,0.0,0.0,2.3882,0.0,0.0,0.0,0.0,0.0,0.0,0.0,0.0,0.0,0.0,0.0,2.4966,2.5063,2.6232,2.7057,2.7674,2.8363,2.9349,3.0406,0.0,3.0955,3.157,3.154,0.0,0.0,3.1481,3.1481,0.0,0.0,0.0,0.0,0.0,0.0,0.0,0.0,0.0,0.0,2.7914,0.0,0.0,0.0,0.0,2.7525,0.0,0.0,0.0,0.0,0.0,0.0,0.0,0.0,0.0,0.0,0.0,0.0,0.0,0.0,0.0,0.0,0.0,0.0,2.7177,2.7654,2.848,2.9706,3.0225,3.0672,3.1161,3.1181,3.1181,3.12,3.12,3.1935,3.3379,3.2689,3.3312,3.5108,3.519,3.5622,3.6355,3.7301,3.7924,3.829,3.8368,3.8457,3.8483,3.8528,3.9289,4.0466,4.1805,4.3017,4.3851,0.0,0.0,0.0,0.0,0.0,0.0,0.0,2.1054,0.0,0.0,0.0,0.0,0.0,0.0,2.6948,0.0,0.0,2.7042,2.6497,2.5856,0.0,0.0,0.0,2.4881,0.0,0.0,0.0,0.0,0.0,0.0,0.0,0.0,0.0,0.0,0.0,2.5652,0.0,0.0,0.0,0.0,0.0,3.0395,3.1161,0.0,0.0,3.1511,3.1511,3.1511,0.0,3.1511,3.1511,3.1391,3.0717,3.0087,2.9458,2.8786,2.8291,0.0,0.0,0.0,2.871,2.7824,0.0,0.0,0.0,0.0,0.0,0.0,0.0,0.0,0.0,0.0,0.0,0.0,0.0,0.0,0.0,0.0,0.0,0.0,0.0,0.0,0.0,0.0,0.0,2.6092,2.719,2.8111,2.8772,3.0172,3.1052,3.119,3.12,3.12,3.12,3.12,3.1846,3.3058,3.2828,3.3662,3.551,3.5873,3.6505,3.7256,3.79,3.8287,3.8441,3.8473,3.8536,3.8666,3.8848,3.9452,4.0368,4.0815,4.1668,4.2499,1.9803,0.0,0.0,0.0,0.0,0.0,0.0,0.0,0.0,0.0,2.5335,0.0,2.7755,0.0,2.8549,0.0,2.9132,2.8812,2.7838,2.7612,0.0,2.7222,2.6373,0.0,0.0,0.0,0.0,0.0,0.0,2.4308,0.0,0.0,0.0,0.0,0.0,2.5945,2.6031,0.0,2.8624,0.0,0.0,3.1117,0.0,0.0,3.1511,3.1511,0.0,3.1511,3.1511,3.1511,3.1511,3.1391,3.0717,3.0087,2.9458,2.8786,2.8141,2.7585,2.7585,2.8081,0.0,2.7764,2.8111,0.0,2.7764,0.0,0.0,0.0,0.0,0.0,0.0,0.0,0.0,0.0,0.0,0.0,0.0,2.362,0.0,0.0,0.0,0.0,0.0,0.0,2.4954,2.528,2.6599,2.7627,0.0,0.0,3.092,3.119,3.12,3.12,3.12,3.1303,3.189,3.2904,3.2734,3.3691,3.556,3.5935,3.6642,3.7552,3.8174,3.8444,3.8491,3.8559,3.8667,3.884,3.9043,3.9547,4.0193,4.0385,4.0937,4.1593,0.0,0.0,0.0,0.0,2.0182,0.0,0.0,0.0,2.4528,0.0,2.6268,2.7617,2.8086,2.8989,2.9947,3.0902,3.1351,0.0,3.0233,3.0169,0.0,0.0,2.7635,2.7165,2.6755,0.0,0.0,0.0,0.0,0.0,0.0,0.0,0.0,0.0,2.5425,0.0,2.6045,2.8525,2.9595,2.9697,3.0997,3.1511,3.1511,3.1511,3.1511,3.1511,3.1511,3.1511,3.1511,3.1511,3.1511,3.1391,3.0717,3.0087,2.9458,2.8786,2.8141,2.7615,2.7645,2.8081,2.841,2.7794,0.0,0.0,0.0,0.0,2.8436,0.0,0.0,0.0,0.0,0.0,0.0,0.0,0.0,0.0,0.0,0.0,0.0,0.0,0.0,0.0,0.0,2.4245,2.44,2.4711,2.5869,2.7062,0.0,0.0,3.0446,3.12,3.122,3.122,3.122,3.1554,3.2138,3.2901,3.2529,3.3366,3.5266,3.5404,3.6065,3.7197,3.8094,3.8455,3.8397,3.8629,3.8855,3.9052,3.9117,3.9471,3.9987,4.0477,4.0837,4.1119,2.0265,2.0534,2.0762,0.0,2.0847,2.0951,0.0,0.0,0.0,0.0,2.8176,2.9849,3.1312,3.2469,3.2944,3.2424,3.3242,0.0,0.0,0.0,0.0,2.9411,2.856,2.7855,2.7298,2.6739,0.0,2.5364,0.0,0.0,2.4783,0.0,0.0,0.0,0.0,0.0,2.7382,2.9897,3.0997,3.1011,3.1349,3.1511,0.0,0.0,3.1511,3.1511,3.1511,3.1511,3.1511,3.1511,3.1511,3.1391,3.0717,3.0087,2.9458,2.8786,2.8141,2.7705,2.8201,2.8111,2.7944,2.8248,2.8111,2.7824,0.0,0.0,0.0,0.0,0.0,0.0,0.0,0.0,0.0,0.0,0.0,0.0,0.0,0.0,0.0,2.3866,0.0,0.0,2.4122,2.4067,2.3913,2.3688,2.5317,2.6531,2.7093,0.0,0.0,3.12,3.1447,3.1564,3.1564,3.1941,3.2413,3.2989,3.2873,3.3565,3.4954,3.5619,3.6103,3.6486,3.7996,3.7961,3.6993,3.8426,3.8679,3.8312,3.9325,3.9905,4.0206,4.0334,4.0434,4.0549,2.0703,0.0,0.0,2.1694,0.0,0.0,2.2585,0.0,0.0,2.7037,2.8881,0.0,3.1395,3.3078,3.3972,3.363,3.386,0.0,0.0,0.0,0.0,2.9962,2.9195,2.8386,2.7516,2.6974,0.0,2.5051,0.0,0.0,2.4998,0.0,0.0,0.0,0.0,2.762,2.7415,2.9705,3.0987,3.1511,3.1511,0.0,0.0,3.1511,3.1511,3.1511,3.1511,3.1511,3.1511,3.1511,3.1511,3.1331,3.0402,2.9877,2.9398,2.844,2.7914,2.7735,2.8427,2.8321,2.8141,2.8517,2.8321,2.7974,2.7675,2.7952,2.8076,0.0,0.0,0.0,0.0,0.0,0.0,0.0,0.0,0.0,0.0,0.0,0.0,0.0,2.308,0.0,2.4004,2.4375,2.431,2.36,2.5469,2.6665,0.0,0.0,0.0,3.0878,3.1748,3.1977,3.1454,3.2544,3.3054,3.3008,3.3193,3.3836,3.4878,3.5725,3.6135,3.6282,3.7698,3.7586,3.6514,3.768,3.8165,3.8326,3.9575,4.0187,4.0311,4.0355,4.0407,4.0386,0.0,0.0,0.0,0.0,0.0,0.0,0.0,2.5112,0.0,2.7541,0.0,3.0485,3.058,3.2603,3.4097,3.448,0.0,3.3303,3.2837,3.1994,3.1099,3.0257,2.9693,2.883,2.762,2.7079,0.0,0.0,0.0,0.0,0.0,0.0,0.0,0.0,0.0,0.0,0.0,2.8885,3.0283,3.1391,3.1481,3.1511,3.1511,3.1511,3.1511,3.1481,3.1391,3.1421,3.1511,3.1511,3.1451,3.1152,2.9967,2.9548,2.9219,2.7974,2.7585,2.7735,2.8427,2.8547,2.8487,2.8577,2.8517,2.8321,2.7735,2.7703,2.784,2.7983,2.7558,2.7204,0.0,0.0,0.0,0.0,0.0,0.0,0.0,0.0,0.0,0.0,0.0,0.0,2.4102,2.4857,2.4898,2.3959,2.5733,2.6749,0.0,0.0,0.0,3.0332,3.1959,3.2351,3.1342,0.0,3.3768,3.3237,3.3481,3.4008,3.4788,3.5579,3.5966,3.6087,3.7165,3.7137,3.6378,3.6774,3.7558,3.8571,3.9618,4.0052,4.0185,4.029,4.0407,4.0508,0.0,0.0,0.0,0.0,0.0,2.533,2.7754,2.8317,2.8889,3.0129,3.1862,3.3148,3.3653,3.4982,3.549,3.4644,3.4662,0.0,0.0,0.0,0.0,3.0869,3.0275,2.9413,2.8272,2.7663,2.6749,0.0,0.0,0.0,0.0,0.0,0.0,0.0,0.0,0.0,2.9115,2.9448,0.0,3.0717,3.1271,3.1511,3.1511,3.1511,3.1511,3.1421,3.0867,3.1046,3.1511,3.1511,3.1122,3.0538,2.9817,2.9219,2.862,2.7824,2.7585,2.7735,2.8427,2.8201,2.7914,2.8457,2.8171,2.7735,2.7627,2.7703,2.784,2.7983,2.7984,2.8027,2.8179,0.0,0.0,0.0,0.0,0.0,0.0,0.0,0.0,0.0,0.0,2.461,0.0,2.4766,2.4116,2.3918,2.4577,0.0,0.0,0.0,0.0,0.0,3.1463,0.0,0.0,0.0,3.396,3.4462,3.3943,3.3792,3.4014,3.4844,3.4981,3.4667,3.6146,3.6062,3.4978,3.6594,3.7527,3.7954,3.8223,3.8771,3.9399,3.948,4.0011,4.0575,0.0,0.0,0.0,0.0,0.0,0.0,0.0,3.1315,0.0,3.1392,3.2134,3.2777,3.308,3.4853,3.5691,3.4872,3.4642,3.411,3.3106,3.1908,3.1173,3.1018,3.0163,0.0,2.8403,2.7219,2.6357,2.5809,0.0,0.0,0.0,0.0,0.0,0.0,0.0,2.844,0.0,0.0,0.0,3.0552,3.1241,3.1511,3.1511,3.1511,3.1271,3.0957,3.0612,3.0522,3.0508,3.0508,3.0522,3.0342,2.9385,2.8846,2.8457,2.7794,2.7585,2.7735,2.8427,2.8111,2.7764,2.8427,2.8111,2.761,2.7703,2.7803,2.7927,2.8063,2.8198,2.8216,2.7938,2.7611,0.0,0.0,0.0,0.0,0.0,0.0,0.0,0.0,0.0,0.0,0.0,0.0,0.0,0.0,0.0,0.0,0.0,0.0,0.0,0.0,0.0,0.0,0.0,0.0,0.0,3.4848,3.4085,3.4074,3.4657,3.5514,3.5552,3.5106,3.6403,3.6334,3.5418,3.6445,3.7003,3.7281,3.8203,3.8866,3.9315,3.9834,4.038,4.0795,0.0,2.4304,0.0,0.0,2.8589,0.0,3.2389,3.3504,3.3732,3.2716,3.2601,3.265,3.2842,3.4631,3.5623,3.5133,3.4363,3.3654,3.3085,3.1772,3.0992,3.0992,3.0129,2.9266,2.8403,2.7036,2.6154,0.0,0.0,0.0,0.0,0.0,0.0,0.0,0.0,0.0,0.0,0.0,2.9877,3.0372,3.1182,3.1511,3.1466,3.1331,3.0957,3.0462,3.0193,2.9864,2.9562,2.9249,2.9488,2.9714,2.8697,2.8278,2.8068,2.7555,2.7495,2.7705,2.8231,2.7991,2.7735,2.8261,2.7991,2.7653,2.7778,2.789,2.8057,2.8174,2.8296,2.8196,2.7519,2.7519,0.0,0.0,0.0,0.0,0.0,0.0,0.0,0.0,0.0,0.0,0.0,0.0,0.0,0.0,0.0,0.0,0.0,0.0,0.0,0.0,0.0,3.2349,3.1653,0.0,3.421,3.5139,3.4465,3.4688,3.5714,3.6267,3.6283,3.5921,3.6684,3.6633,3.5951,3.6162,3.6297,3.6485,3.8097,3.8859,3.9167,4.0134,4.0693,4.1,0.0,0.0,0.0,0.0,0.0,0.0,0.0,3.4126,3.4821,3.5107,3.5155,3.5429,3.6161,3.602,3.5755,3.5375,3.4088,3.3059,3.251,3.1557,3.0992,3.0992,3.0914,3.0077,2.8429,2.8255,2.7382,0.0,0.0,0.0,0.0,0.0,0.0,0.0,0.0,0.0,0.0,2.9052,2.9638,2.9788,3.1017,3.1511,3.1421,3.0837,3.0538,3.0342,2.9205,2.9116,2.9398,2.8214,2.7824,2.7854,2.7735,2.7285,2.6764,2.6704,2.7123,2.7615,2.7675,2.7645,2.7627,2.7675,2.7645,2.7653,2.7778,2.789,2.8057,2.8174,2.8296,2.8196,2.7519,2.7888,2.7888,0.0,0.0,0.0,0.0,0.0,0.0,0.0,0.0,0.0,0.0,2.4674,0.0,0.0,0.0,0.0,0.0,0.0,0.0,2.946,0.0,3.2495,3.3354,3.3652,3.4529,3.5974,3.5507,3.5726,3.6558,3.6082,3.5964,3.6096,3.6187,3.5902,3.538,3.5473,3.5513,3.5615,3.6687,3.756,3.8327,3.9416,4.0298,4.1022,0.0,0.0,0.0,0.0,0.0,0.0,0.0,3.5926,3.6075,3.6419,3.6204,3.6077,3.621,3.6164,3.5859,3.516,3.4079,3.3184,3.2605,3.1588,3.0992,3.0992,3.066,2.998,2.8952,2.8284,2.7572,0.0,0.0,0.0,0.0,0.0,0.0,0.0,0.0,2.7585,2.7645,2.859,2.9009,2.9086,2.9983,3.0372,3.0342,3.0043,2.9714,2.9295,2.8786,2.8517,2.8334,2.7764,2.7884,2.8141,2.7735,2.7405,2.7195,2.7195,2.7375,2.7585,2.7585,2.7585,2.7585,2.7585,2.7678,2.7765,2.7878,2.8014,2.8149,2.8284,2.8375,2.8319,2.8042,2.8227,2.8227,0.0,0.0,0.0,0.0,0.0,0.0,0.0,0.0,0.0,0.0,0.0,0.0,0.0,0.0,0.0,0.0,0.0,0.0,3.0522,0.0,3.2502,3.2933,3.3503,3.4432,3.5678,3.6022,3.6478,3.706,3.7408,3.7397,3.7107,3.7107,3.6464,3.5361,3.5394,3.5433,3.5655,3.7085,3.789,3.8465,3.994,4.0724,4.1146,3.1244,0.0,3.17,0.0,3.425,3.4525,3.6649,3.6689,3.6527,3.6713,3.6527,3.6358,3.6363,3.6237,3.59,3.5293,3.4059,3.3143,3.2744,3.1627,3.0992,3.0992,3.0608,0.0,2.961,2.8817,2.8343,2.8177,2.8038,0.0,0.0,0.0,0.0,0.0,2.7585,2.7585,2.7645,2.8321,2.8607,2.8667,2.9338,2.9608,2.9578,2.9368,2.8996,2.8577,2.838,2.7991,2.7585,2.7585,2.7914,2.8201,2.7525,2.7315,2.7315,2.7315,2.7435,2.7585,2.7585,2.7585,2.7585,2.7585,2.7703,2.784,2.7983,2.81,2.8235,2.8375,2.8411,2.8411,2.8411,2.8411,2.8411,2.8411,0.0,0.0,0.0,0.0,0.0,0.0,2.7375,2.6704,2.69,0.0,0.0,0.0,0.0,0.0,0.0,0.0,0.0,0.0,0.0,0.0,0.0,3.3806,3.4788,3.5789,3.6777,3.7552,3.8081,3.8606,3.8437,3.7781,3.7576,3.67,3.5405,3.5416,3.5647,3.614,3.7574,3.8397,3.8945,4.0488,4.1227,4.1523,3.297,3.3372,3.3989,3.6039,3.6356,3.618,3.5608,3.5739,3.59,3.592,3.6126,3.6608,3.7381,3.6473,3.5863,3.6075,3.4005,3.2698,3.2698,3.1627,3.0992,0.0,0.0,3.0829,3.0295,3.0353,3.0071,2.9493,0.0,0.0,2.8594,0.0,2.7615,2.7585,2.7585,2.7585,2.7645,2.8321,2.8607,2.8667,2.9338,2.9608,2.9518,2.8846,2.8607,2.8517,2.7854,2.7615,2.7585,2.7585,2.7627,2.7495,2.6824,2.6614,2.6614,2.6614,2.7076,2.7585,2.7585,2.7585,2.7585,2.7585,2.7703,2.784,2.7983,2.81,2.8235,2.8375,2.8411,2.8411,2.8411,2.8411,2.8411,2.8411,0.0,0.0,0.0,0.0,0.0,0.0,2.7206,2.6186,2.694,0.0,0.0,0.0,0.0,0.0,0.0,0.0,0.0,3.1283,3.1353,0.0,3.377,3.4845,3.5808,3.6713,3.7977,3.9029,3.9857,3.9323,3.8627,3.7747,3.7026,3.6215,3.5409,3.5483,3.6061,3.6977,3.7939,3.8852,3.9782,4.0757,4.1601,4.2286,3.47,3.4768,3.4959,3.561,3.5732,3.5701,3.5705,3.5769,3.5881,3.603,3.6119,3.6263,3.6512,3.6093,3.5418,0.0,3.3352,3.2542,0.0,3.1392,3.1014,3.1083,3.1101,3.0883,3.0372,3.0392,2.9898,2.8899,0.0,0.0,0.0,2.838,2.8021,2.7585,2.7585,2.7585,2.7615,2.7824,2.7902,2.7944,2.8154,2.8244,2.8214,2.8004,2.7902,2.7884,2.7675,2.7585,2.7585,2.7585,2.7585,2.7555,2.7345,2.7285,2.7363,2.7829,2.7782,2.7705,2.8171,2.7944,2.7585,2.7585,2.7778,2.7958,2.7995,2.8162,2.8363,2.8399,2.8411,2.8411,2.8411,2.8411,2.8489,2.8826,2.8993,0.0,0.0,0.0,0.0,0.0,2.7707,2.6813,0.0,2.666,0.0,0.0,0.0,0.0,0.0,0.0,0.0,0.0,3.2509,0.0,3.4889,3.5838,3.6589,3.7187,3.8753,3.9713,4.0158,4.0008,3.915,3.7862,3.7621,3.6726,3.5532,3.6196,3.6662,3.7119,3.8661,3.9508,3.9938,4.0773,4.1211,4.1581,3.5341,3.5353,3.5398,3.5398,3.5398,3.5388,3.5337,3.524,3.5297,3.5631,3.5535,3.5547,3.5783,3.5496,0.0,3.3979,3.3169,3.2437,3.185,3.1085,3.0789,3.1082,3.0927,3.0815,3.0791,0.0,0.0,2.9678,2.9626,2.9129,2.8231,2.8231,2.7991,2.7585,2.7585,2.7585,2.7585,2.7585,2.7585,2.7585,2.7585,2.7585,2.7585,2.7585,2.7585,2.7585,2.7585,2.7585,2.7585,2.7585,2.7585,2.7585,2.7585,2.7585,2.7675,2.8111,2.7931,2.7675,2.8111,2.7902,2.7585,2.7585,2.7765,2.794,2.8039,2.8253,2.8411,2.8411,2.8411,2.8411,2.8411,2.8537,2.8744,2.9039,2.9404,2.974,3.012,0.0,0.0,0.0,0.0,0.0,0.0,2.7797,2.8482,0.0,0.0,0.0,0.0,0.0,0.0,3.377,3.341,0.0,3.5882,3.6913,3.7615,3.7895,3.9366,4.0138,4.0307,3.998,3.9142,3.7897,3.7567,3.6706,3.5552,3.6523,3.7148,3.763,3.9126,3.9963,4.0422,4.0898,4.1241,4.1593,3.5051,3.5207,0.0,0.0,3.5336,0.0,3.4666,3.4323,3.4296,3.4813,3.459,3.4607,3.5129,3.4685,3.4319,3.4214,0.0,0.0,0.0,3.0846,3.051,3.1141,3.0771,3.0807,3.1394,3.1457,3.1481,3.1421,3.0193,2.8933,2.7675,2.7675,2.7645,2.7585,2.7585,2.7585,2.7585,2.7585,2.7585,2.7585,2.7585,2.7585,2.7585,2.7585,2.7585,2.7585,2.7585,2.7585,2.7585,2.7585,2.7585,2.7585,2.7585,2.7585,2.7615,2.7645,2.7645,2.7615,2.7645,2.7645,2.7615,2.7645,2.7775,2.7938,2.8137,2.8284,2.8411,2.8411,2.8411,2.8411,2.8411,2.8779,2.9109,2.9131,2.9892,3.0273,2.9633,0.0,0.0,0.0,0.0,0.0,0.0,2.9225,2.9546,0.0,0.0,0.0,0.0,0.0,3.3103,3.3844,3.4154,3.5095,3.6806,3.806,3.874,3.8831,3.981,4.03,4.0273,3.9478,3.8676,3.7863,3.7062,3.6269,3.5668,3.6609,3.7548,3.8496,3.9445,4.0321,4.109,4.1049,4.1479,4.211,0.0,0.0,3.4647,3.4647,3.4647,3.4595,3.4464,3.4376,3.4366,3.4497,3.4434,3.4293,3.4031,3.3875,3.343,3.2496,3.2163,3.2033,3.2033,3.1774,3.1778,3.2082,3.1996,3.1802,3.1471,3.1483,3.1241,3.0747,2.9967,2.9189,2.8368,2.8368,2.8081,2.7585,2.7585,2.7585,2.7585,2.7585,2.7585,2.7585,2.7585,2.7585,2.7585,2.7585,2.7585,2.7585,2.7585,2.7585,2.7585,2.7585,2.7585,2.7585,2.7585,2.7585,2.7705,2.8201,2.7991,2.7705,2.8231,2.7991,2.7735,2.8231,2.8548,2.8627,2.8284,2.8284,2.8411,2.8411,2.8411,2.8411,2.8411,2.8779,2.9212,2.9572,3.0149,3.0476,3.0213,2.9696,0.0,0.0,2.8576,2.8567,2.9624,3.0011,3.0621,0.0,0.0,0.0,0.0,3.4344,3.452,3.4711,3.4987,3.6025,3.7896,3.8439,3.911,3.9939,4.0171,4.0311,4.0355,3.9558,3.8758,3.7916,3.7077,3.658,3.6486,3.7554,3.8471,3.9371,4.0391,4.089,4.1092,4.1084,4.1162,4.137,3.4266,3.4335,3.4397,3.4397,3.4397,3.4397,3.4397,3.3953,3.3718,3.4005,3.3561,3.3221,3.3195,3.296,3.2522,3.185,3.1797,3.1774,3.1658,3.1414,3.1484,3.1922,3.1682,3.1524,3.1496,3.1511,3.1152,3.0492,3.0163,2.9698,2.9069,2.8727,2.8397,2.8051,2.7735,2.7585,2.7585,2.7585,2.7585,2.7585,2.7585,2.7585,2.7585,2.7585,2.7585,2.7585,2.7585,2.7585,2.7585,2.7585,2.7585,2.7585,2.7585,2.7585,2.7675,2.8021,2.7884,2.7675,2.8051,2.7884,2.7687,2.8128,2.8625,2.8865,2.8314,2.8284,2.8411,2.8411,2.8411,2.8411,2.8411,2.8955,2.9517,2.9794,3.0168,3.0311,2.9997,2.9641,0.0,2.9024,2.9087,2.954,3.0671,3.1063,3.1448,3.1816,3.2987,0.0,3.3903,3.5436,3.6323,3.6323,3.6583,3.7458,3.9014,3.9287,3.9724,4.0304,4.0293,4.0342,4.0407,3.9583,3.8966,3.855,3.7661,3.7315,3.7437,3.8464,3.9182,3.9739,4.0724,4.1093,4.1052,4.1061,4.1004,4.1007,3.4084,3.4272,3.4397,3.4397,3.4397,3.4371,3.4293,3.3456,3.2986,3.3404,3.2574,3.2104,3.2515,3.2104,3.181,3.1839,3.1859,3.1686,3.1277,3.0952,3.1004,3.1543,3.1066,3.1028,3.1496,3.1511,3.1212,3.0658,3.0658,3.0342,2.9728,2.9069,2.8697,2.8577,2.7914,2.7585,2.7585,2.7585,2.7585,2.7585,2.7585,2.7585,2.7585,2.7585,2.7585,2.7585,2.7585,2.7585,2.7585,2.7585,2.7585,2.7585,2.7585,2.7585,2.7585,2.7585,2.7585,2.7585,2.7585,2.7735,2.7892,2.7826,2.8482,2.8961,2.8345,2.8284,2.8387,2.8411,2.8472,2.8501,2.8501,2.9257,2.9935,2.9978,3.0129,3.0026,2.9488,0.0,2.9188,2.8618,2.9502,3.0635,3.1768,3.227,3.2381,3.1959,3.3947,3.4637,3.3396,3.6226,3.7958,3.8153,3.839,3.8994,3.9942,4.0196,4.0304,4.0316,4.0325,4.0407,4.0482,3.9603,3.9242,3.9246,3.8379,3.8122,3.8363,3.9252,3.9731,3.9984,4.0772,4.1054,4.0995,4.0981,4.0945,4.0893,3.4314,3.4377,3.4397,3.4397,3.4397,3.4241,3.3796,3.3561,3.33,3.2881,3.2672,3.2411,3.198,3.185,3.1875,3.2026,3.2054,3.2064,3.2034,3.2584,3.2745,3.2362,3.2243,3.196,3.1511,3.1511,3.1451,3.1331,3.1331,3.1017,3.0342,2.9728,2.9129,2.8577,2.7914,2.7585,2.7585,2.7585,2.7585,2.7585,2.7585,2.7585,2.7585,2.7585,2.7585,2.7585,2.7585,2.7585,2.7585,2.7585,2.7585,2.7585,2.7585,2.7585,2.7585,2.7585,2.7585,2.7585,2.7585,2.8423,2.9049,2.8037,2.8738,2.942,2.8442,2.8223,2.8259,2.8387,2.874,2.897,2.897,2.9772,3.0425,3.0475,3.0432,3.0133,2.9488,0.0,2.9437,2.9343,3.0339,3.143,3.2521,3.3545,3.4222,3.4433,3.5452,3.6303,3.6721,3.7484,3.8311,3.9214,3.9516,3.9849,4.021,4.028,4.0316,4.0398,4.0441,4.047,4.0486,3.9677,3.9273,3.925,3.8453,3.8495,3.9215,3.9555,4.0132,4.082,4.1008,4.1092,4.1067,4.1017,4.0945,4.0893,3.4356,3.4397,3.4397,3.4397,3.4397,3.4214,3.3666,3.3587,3.3378,3.2777,3.2437,3.2104,3.1823,3.1555,3.1555,3.2046,3.2452,3.2577,3.2326,3.2647,3.2591,3.1989,3.1959,3.1809,3.1511,3.1511,3.1511,3.1511,3.1511,3.1331,3.1017,3.0057,2.9428,2.9099,2.8064,2.7585,2.7585,2.7585,2.7585,2.7585,2.7585,2.7585,2.7585,2.7585,2.7585,2.7585,2.7585,2.7585,2.7585,2.7585,2.7585,2.7585,2.7585,2.7585,2.7585,2.7585,2.7585,2.7585,2.7585,2.8334,2.8856,2.8006,2.8595,2.9152,2.8394,2.8259,2.8393,2.8697,2.8955,2.9177,2.9427,3.0043,3.0549,3.0703,3.0166,0.0,0.0,2.9765,2.9799,3.0627,3.1915,3.306,3.3992,3.4927,3.5345,3.5027,3.6193,3.6919,3.6919,3.8096,3.9033,3.9573,3.9942,4.0158,4.0307,4.0329,4.0402,4.0449,4.0474,4.0499,4.0484,4.0119,3.9983,4.0026,3.9643,3.9798,4.0268,4.0353,4.067,4.1044,4.1093,4.1075,4.1028,4.0962,4.1184,4.1504,3.4168,3.411,3.4005,3.4005,3.411,3.4031,3.3477,3.3378,3.3169,3.2568,3.1973,3.1615,3.1615,3.1405,3.1561,3.229,3.3038,3.3237,3.2685,3.2645,3.2307,3.1541,3.1511,3.1511,3.1511,3.1511,3.1511,3.1511,3.1511,3.1511,3.1466,3.0193,2.9608,2.9548,2.8214,2.7585,2.7585,2.7585,2.7585,2.7585,2.7585,2.7585,2.7585,2.7585,2.7585,2.7585,2.7585,2.7585,2.7585,2.7585,2.7585,2.7585,2.7585,2.7585,2.7585,2.7585,2.7585,2.7615,2.7794,2.8227,2.8535,2.814,2.8525,2.8865,2.8314,2.8271,2.8489,2.9013,2.9177,2.9404,2.9881,3.0362,3.0754,3.0925,0.0,0.0,0.0,3.042,3.0524,3.1903,3.3371,3.4508,3.5141,3.6054,3.6332,3.5656,3.6978,3.7602,3.7096,3.8658,3.9656,3.9862,4.0148,4.0329,4.0338,4.0411,4.0449,4.0499,4.0499,4.0519,4.0516,4.0516,4.0563,4.07,4.0718,4.0816,4.0987,4.1018,4.1042,4.1132,4.1122,4.1044,4.1021,4.1136,4.153,4.2025,3.3535,3.3195,3.2849,3.2849,3.3294,3.3477,3.2855,3.2771,3.2542,3.1954,3.1418,3.1071,3.1071,3.1616,3.2308,3.3038,3.3802,3.3988,3.3451,3.3408,3.2856,3.157,3.1511,3.1511,3.1511,3.1511,3.1511,3.1511,3.1511,3.1511,3.1466,3.0193,2.9608,2.9548,2.8214,2.7585,2.7585,2.7585,2.7585,2.7585,2.7585,2.7585,2.7585,2.7585,2.7585,2.7585,2.7585,2.7585,2.7585,2.7585,2.7585,2.7585,2.7585,2.7585,2.7585,2.7585,2.7585,2.7735,2.8351,2.8651,2.8798,2.8751,2.8858,2.8865,2.8314,2.821,2.8362,2.897,2.9438,2.9892,3.0362,3.0885,3.1293,3.1423,0.0,0.0,3.1575,3.1662,3.1938,3.2731,3.4164,3.5141,3.5177,3.6589,3.7485,3.7404,3.828,3.8896,3.9065,3.947,3.9895,4.0316,4.0389,4.0424,4.0474,4.0478,4.0503,4.0512,4.0512,4.0512,4.0516,4.0516,4.0563,4.0706,4.0767,4.0884,4.1004,4.1082,4.1132,4.1172,4.112,4.1044,4.1099,4.1753,4.2017,4.209,3.3613,3.3424,3.3247,3.3247,3.3143,3.3111,3.3221,3.2934,3.262,3.2411,3.1843,3.1686,3.2196,3.2153,3.2595,3.3785,3.4143,3.407,3.3543,3.3484,3.2916,3.157,3.1511,3.1511,3.1511,3.1511,3.1511,3.1511,3.1511,3.1511,3.1481,3.0582,2.9967,2.9578,2.9082,2.859,2.8261,2.865,2.859,2.8231,2.8231,2.7974,2.7585,2.7585,2.7585,2.7585,2.7585,2.7585,2.7585,2.7585,2.7585,2.7585,2.7585,2.7585,2.7585,2.7585,2.7585,2.776,2.8527,2.8407,2.8076,2.8152,2.8283,2.8452,2.8742,2.8791,2.9014,2.998,3.0195,3.0372,3.0848,3.1137,3.1341,3.1471,0.0,3.1507,3.2377,3.249,3.3042,3.4524,3.5429,3.6244,3.6991,3.7846,3.8361,3.8405,3.8722,3.9043,3.9344,3.9764,4.0158,4.0452,4.046,4.0456,4.0482,4.0515,4.0496,4.0516,4.0516,4.0516,4.0519,4.0577,4.0667,4.0767,4.0882,4.096,4.1081,4.1131,4.1172,4.1171,4.1096,4.1014,4.1094,4.1761,4.2338,4.2812,3.3117,3.2908,3.2777,3.2777,3.2744,3.2777,3.3012,3.2829,3.2719,3.2789,3.228,3.2185,3.2983,3.2897,3.3185,3.4211,3.4543,3.4434,3.3858,3.3425,3.2691,3.154,3.1511,3.1511,3.1511,3.1511,3.1511,3.1511,3.1511,3.1511,3.1481,3.0807,3.0177,2.9608,2.9608,2.9219,2.8637,2.9099,2.9129,2.8876,2.847,2.8141,2.7914,2.7914,2.7914,2.7944,2.8154,2.8094,2.7914,2.7914,2.7764,2.7585,2.7585,2.7585,2.7585,2.7585,2.7585,2.773,2.8269,2.8046,2.7793,2.8341,2.838,2.8455,2.9067,2.9248,2.9596,3.0621,3.0849,3.1008,3.1499,3.1837,3.2013,3.1929,3.2172,3.268,3.3515,3.3628,3.4252,3.5961,3.6513,3.7154,3.8133,3.8615,3.887,3.8921,3.895,3.9124,3.9495,4.0012,4.0356,4.0512,4.0516,4.05,4.0507,4.05,4.0627,4.0896,4.0627,4.0658,4.0941,4.0771,4.0762,4.0873,4.0978,4.1029,4.1092,4.1172,4.1171,4.1167,4.1031,4.1133,4.1443,4.2113,4.2862,4.3562,3.1823,3.1392,3.1018,3.1018,3.194,3.2489,3.1902,3.2313,3.2757,3.2965,3.2481,3.238,3.3126,3.3871,3.4312,3.4312,3.505,3.522,3.4533,3.3245,3.2213,3.154,3.1511,3.1511,3.1511,3.1511,3.1511,3.1511,3.1511,3.1511,3.1481,3.0807,3.0193,2.9608,2.9608,2.9249,2.8607,2.8637,2.9009,2.9488,2.8154,2.8021,2.8607,2.8607,2.8607,2.8697,2.9368,2.9189,2.8607,2.8607,2.8171,2.7615,2.7585,2.7585,2.7585,2.7585,2.7585,2.7585,2.7585,2.7703,2.816,2.9633,2.9453,2.8967,2.9149,2.9509,3.001,3.0757,3.1287,3.1795,3.2401,3.3162,3.3512,3.2911,3.3535,3.4362,3.5087,3.5225,3.5669,3.6872,3.736,3.779,3.8251,3.8737,3.8993,3.8993,3.9078,3.9306,3.9781,4.0244,4.0516,4.0516,4.0516,4.0516,4.0516,4.0516,4.0935,4.1773,4.0896,4.0983,4.1854,4.1045,4.0806,4.1018,4.0995,4.103,4.1092,4.1172,4.1168,4.1105,4.1056,4.1449,4.2203,4.2941,4.3596,4.4169,3.2515,3.2306,3.2326,3.2771,3.2091,3.1862,3.2908,3.2176,3.1879,3.2884,3.2481,3.2595,3.3837,3.4177,3.4543,3.51,3.5359,3.5011,3.3889,3.2961,3.2213,3.154,3.1511,3.1511,3.1511,3.1511,3.1511,3.1511,3.1511,3.1511,3.1511,3.1301,3.0867,3.0253,3.0717,3.0568,2.9953,3.0448,3.0478,3.0193,2.9817,2.9505,2.9309,2.9309,2.9309,2.9338,2.9518,2.9458,2.9309,2.9309,2.8859,2.8231,2.7735,2.7585,2.7585,2.7585,2.7678,2.7765,2.7853,2.7903,2.8049,2.848,2.9132,2.9709,2.9821,3.0452,3.1243,3.1945,3.2096,3.2339,3.3141,3.3513,3.3683,3.3598,3.4292,3.4949,3.5156,3.5903,3.6664,3.7333,3.7772,3.8202,3.8744,3.8928,3.9021,3.9078,3.9402,3.9726,4.0062,4.0356,4.0516,4.0516,4.0516,4.0516,4.0516,4.0516,4.0627,4.0896,4.0627,4.0714,4.1048,4.0848,4.0856,4.0997,4.1034,4.1128,4.1172,4.1172,4.148,4.1922,4.1872,4.2303,4.3094,4.383,4.4097,4.4169,3.2437,3.2176,3.2123,3.2509,3.1888,3.1601,3.2437,3.2124,3.211,3.2965,3.3012,3.344,3.4627,3.476,3.4955,3.5441,3.5519,3.4921,3.3574,3.3125,3.2482,3.154,3.1511,3.1511,3.1511,3.1511,3.1511,3.1511,3.1511,3.1511,3.1511,3.1511,3.1122,3.0522,3.1182,3.1136,3.0522,3.0927,3.1017,3.0867,3.0342,3.0073,2.9967,2.9967,2.9967,2.9997,3.0253,3.0193,2.9967,2.9967,2.9355,2.8487,2.7824,2.7585,2.7585,2.7585,2.7703,2.7815,2.789,2.7989,2.8113,2.832,2.9096,3.002,3.0656,3.1144,3.166,3.2453,3.2744,3.3063,3.3959,3.4438,3.461,3.4448,3.5105,3.5628,3.5628,3.6382,3.7106,3.7569,3.8029,3.8486,3.9,3.9043,3.9113,3.9245,3.9675,4.0032,4.02,4.0385,4.0516,4.0516,4.0516,4.0516,4.0516,4.0516,4.0666,4.1012,4.073,4.0807,4.1253,4.0989,4.0931,4.1031,4.1088,4.1132,4.1211,4.117,4.1585,4.2244,4.2183,4.2864,4.3901,4.4327,4.4449,4.4444,3.1823,3.1399,3.1097,3.1149,3.1477,3.1582,3.113,3.2115,3.2983,3.3174,3.3854,3.461,3.5408,3.5519,3.5519,3.5519,3.5459,3.4861,3.3574,3.3455,3.2856,3.157,3.1511,3.1511,3.1511,3.1511,3.1511,3.1511,3.1511,3.1511,3.1511,3.1511,3.1182,3.0612,3.1212,3.1152,3.0582,3.0582,3.0957,3.1391,3.0253,3.0117,3.0582,3.0582,3.0582,3.0658,3.1271,3.1092,3.0582,3.0462,2.9654,2.8547,2.7824,2.7585,2.7585,2.7585,2.7703,2.7815,2.7815,2.8014,2.8356,2.8936,2.9346,3.0006,3.1512,3.1646,3.1665,3.2662,3.3253,3.3904,3.4848,3.5649,3.5995,3.5411,3.587,3.6294,3.6267,3.6656,3.7132,3.7602,3.8049,3.8529,3.9048,3.911,3.9245,3.952,3.9936,4.0214,4.0233,4.0393,4.0516,4.0516,4.0516,4.0516,4.0516,4.0492,4.0916,4.1682,4.1022,4.117,4.1995,4.1302,4.1058,4.1092,4.1092,4.1132,4.1172,4.112,4.159,4.2307,4.2256,4.3174,4.4607,4.4508,4.4653,4.4878,3.1876,3.1693,3.179,3.2254,3.1679,3.1287,3.1582,3.2017,3.2526,3.3118,3.3854,3.461,3.5408,3.5519,3.5519,3.5519,3.5011,3.4368,3.3544,3.3006,3.2362,3.154,3.1511,3.1511,3.1511,3.1511,3.1511,3.1511,3.1511,3.1511,3.1511,3.1511,3.1421,3.1301,3.1451,3.1421,3.1271,3.1271,3.1361,3.1481,3.1182,3.1152,3.1271,3.1271,3.1271,3.1301,3.1451,3.1421,3.1122,3.0133,2.9608,2.9159,2.7974,2.7585,2.7585,2.7585,2.7778,2.797,2.797,2.8168,2.8697,3.011,3.0093,3.0097,3.1375,3.2325,3.3155,3.3958,3.3827,3.404,3.5497,3.5992,3.6167,3.6101,3.618,3.6181,3.5859,3.6232,3.6682,3.716,3.7654,3.8247,3.9031,3.9292,3.9495,3.9709,4.0022,4.0273,4.0414,4.0496,4.0516,4.0516,4.0516,4.0516,4.0516,4.0598,4.0768,4.0919,4.078,4.0881,4.123,4.1072,4.1031,4.1092,4.1171,4.1172,4.1172,4.112,4.194,4.3196,4.3085,4.4047,4.5488,4.5229,4.5038,4.4825,3.185,3.1608,3.1522,3.1836,3.1411,3.1078,3.1392,3.1822,3.2362,3.309,3.3854,3.461,3.5408,3.5519,3.5519,3.5519,3.519,3.4578,3.3544,3.3455,3.2871,3.157,3.2108,3.2303,3.1989,3.1959,3.1809,3.1511,3.1511,3.1511,3.1511,3.1511,3.1511,3.1511,3.1511,3.1511,3.1511,3.1511,3.1511,3.1511,3.1511,3.1511,3.1511,3.1511,3.1511,3.1511,3.1511,3.1511,3.1301,3.0027,2.9608,2.9382,2.8034,2.7585,2.7597,2.769,2.784,2.802,2.8063,2.8417,2.8944,2.9818,3.0627,3.1331,3.1815,3.2153,3.2699,3.3836,3.3873,3.4192,3.5788,3.617,3.6255,3.6273,3.6284,3.6302,3.6309,3.6727,3.7176,3.7663,3.8118,3.865,3.9234,3.9501,3.9909,4.0558,4.0424,4.0573,4.1081,4.0743,4.0704,4.1123,4.1123,4.1124,4.1166,4.1238,4.1111,4.0841,4.0852,4.0912,4.0991,4.1027,4.1086,4.1132,4.1172,4.1211,4.1211,4.1494,4.2383,4.3502,4.376,4.4632,4.5739,4.5577,4.5222,4.4763,3.1667,3.1313,3.0992,3.0992,3.0992,3.0992,3.0992,3.1718,3.2506,3.3108,3.3956,3.4773,3.5424,3.5519,3.5519,3.5519,3.54,3.4801,3.3574,3.4009,3.3484,3.16,3.2662,3.3036,3.2333,3.2333,3.2108,3.166,3.157,3.1511,3.1511,3.1511,3.1511,3.1511,3.1511,3.1511,3.1511,3.1511,3.1511,3.1511,3.1511,3.1511,3.1511,3.1511,3.1511,3.1511,3.1511,3.1421,3.1152,2.9997,2.9518,2.9219,2.7974,2.7585,2.761,2.7765,2.7878,2.8057,2.8271,2.8708,2.9163,2.9473,3.101,3.2496,3.2495,3.2134,3.2164,3.3512,3.3908,3.4476,3.5942,3.6244,3.6284,3.6284,3.6357,3.6535,3.6853,3.7301,3.7848,3.8449,3.8995,3.9385,3.9483,3.9815,4.043,4.1409,4.1144,4.1243,4.1966,4.1358,4.1281,4.2004,4.2004,4.1971,4.189,4.1918,4.1626,4.1017,4.0992,4.1005,4.1016,4.1086,4.1132,4.1211,4.1211,4.1172,4.1248,4.1932,4.2693,4.3512,4.4215,4.497,4.5703,4.5594,4.518,4.4592,3.1209,3.1044,3.0992,3.0992,3.0992,3.0992,3.0992,3.2173,3.309,3.3178,3.4455,3.5375,3.5503,3.5519,3.5519,3.5519,3.4967,3.4308,3.3544,3.3574,3.3006,3.157,3.2243,3.2333,3.166,3.163,3.1869,3.2362,3.178,3.1511,3.1511,3.1511,3.1511,3.1511,3.1511,3.1511,3.1511,3.1511,3.1511,3.1511,3.1511,3.1511,3.1511,3.1511,3.1511,3.1511,3.1511,3.1136,3.0522,2.9847,2.9219,2.8607,2.7854,2.7585,2.761,2.7765,2.7878,2.8113,2.8661,2.8935,2.9462,3.0915,3.1505,3.2008,3.3024,3.3778,3.4304,3.4519,3.4767,3.5197,3.6032,3.6244,3.6284,3.6284,3.6641,3.6792,3.6524,3.693,3.768,3.8803,3.9687,4.0018,3.9558,4.035,4.1076,4.1404,4.2253,4.2816,4.2931,4.2816,4.2816,4.2931,4.2931,4.2587,4.1928,4.2017,4.1703,4.1018,4.1074,4.1088,4.1089,4.1171,4.1172,4.1211,4.1211,4.1169,4.1151,4.1918,4.2649,4.3386,4.4137,4.4928,4.5629,4.5094,4.4572,4.4102,3.1555,3.1209,3.0992,3.0992,3.1339,3.1608,3.1608,3.2506,3.3353,3.3768,3.4409,3.4988,3.5441,3.5519,3.5519,3.5519,3.4907,3.4218,3.3544,3.3484,3.3066,3.2079,3.2691,3.2901,3.2632,3.2243,3.2213,3.2512,3.1839,3.1511,3.1511,3.1511,3.1511,3.1511,3.1511,3.1511,3.1511,3.1511,3.1511,3.1511,3.1511,3.1511,3.1511,3.1511,3.1511,3.1511,3.1511,3.1076,3.0402,2.9788,2.9159,2.85,2.79,2.7715,2.7753,2.7965,2.8063,2.8247,2.8861,2.9246,2.9756,3.0914,3.1901,3.271,3.3033,3.4301,3.5307,3.4898,3.4956,3.5332,3.6106,3.6286,3.6388,3.6651,3.6855,3.7115,3.7464,3.8121,3.9071,4.0303,4.094,4.1208,4.1089,4.1613,4.2296,4.2955,4.3082,4.3316,4.3739,4.3355,4.3316,4.3778,4.3836,4.3736,4.3455,4.31,4.2766,4.2518,4.2026,4.156,4.1092,4.1172,4.1211,4.1211,4.1168,4.112,4.1182,4.2324,4.3003,4.3432,4.4645,4.5248,4.5381,4.4943,4.4546,4.4199]}]]